[[{"header":{"parameterUnit":"m.s-1","parameterCategory":1,"la1":31.0,"la2":29.5877,"lo1":-88.7671,"lo2":-86.6584,"dy":0.0162,"dx":0.0185,"nx":115,"ny":88,"refTime":"2024-02-24T06:00:00:Z","depth":0,"parameterNumber":2,"parameterNumberName":"U-component_of_WINDS"},"data":[0.0,0.0,0.0,0.0,0.0,0.0,0.0,0.0,0.0,0.0,0.0,0.0,0.0,0.0,0.0,0.0,0.0,0.0,0.0,0.0,0.0,0.0,0.0,0.0,0.0,0.0,0.0,0.0,0.0,0.0,0.0,0.0,0.0,0.0,0.0,0.0,0.0,0.0,0.0,0.0,0.0,0.0,0.0,0.0,0.0,0.0,0.0,0.0,0.0,0.0,0.0,0.0,0.0,0.0,0.0,0.0,0.0,0.0,0.0,0.0,0.0,0.0,0.0,0.0,0.0,0.0,0.0,0.0,0.0,0.0,0.0,0.0,0.0,0.0,0.0,0.0,0.0,0.0,0.0,0.0,0.0,0.0,0.0,0.0,0.0,0.0,0.0,0.0,0.0,0.0,0.0,0.0,0.0,0.0,0.0,0.0,0.0,0.0,0.0,0.0,0.0,0.0,0.0,0.0,0.0,0.0,0.0,0.0,0.0,0.0,0.0,0.0,0.0,0.0,0.0,0.0,0.0,0.0,0.0,0.0,0.0,0.0,0.0,0.0,0.0,0.0,0.0,0.0,0.0,0.0,0.0,0.0,0.0,0.0,0.0,0.0,0.0,0.0,0.0,0.0,0.0,0.0,0.0,0.0,0.0,0.0,0.0,0.0,0.0,0.0,0.0,0.0,0.0,0.0,0.0,0.0,0.0,0.0,0.0,0.0,0.0,0.0,0.0,0.0,0.0,0.0,0.0,0.0,0.0,0.0,0.0,0.0,0.0,0.0,0.0,0.0,0.0,0.0,0.0,0.0,0.0,0.0,0.0,0.0,0.0,0.0,0.0,0.0,0.0,0.0,0.0,0.0,0.0,0.0,0.0,0.0,0.0,0.0,0.0,0.0,0.0,0.0,0.0,0.0,0.0,0.0,0.0,0.0,0.0,0.0,0.0,0.0,0.0,0.0,0.0,0.0,0.0,0.0,0.0,0.0,0.0,0.0,0.0,0.0,0.0,0.0,0.0,0.0,0.0,0.0,0.0,0.0,0.0,0.0,0.0,0.0,0.0,0.0,0.0,0.0,0.0,0.0,0.0,0.0,0.0,0.0,0.0,0.0,0.0,0.0,0.0,0.0,0.0,0.0,0.0,0.0,0.0,0.0,0.0,0.0,0.0,0.0,0.0,0.0,0.0,0.0,0.0,0.0,0.0,0.0,0.0,0.0,0.0,0.0,0.0,0.0,0.0,0.0,0.0,0.0,0.0,0.0,0.0,0.0,0.0,0.0,0.0,0.0,0.0,0.0,0.0,0.0,0.0,0.0,0.0,0.0,0.0,0.0,0.0,0.0,0.0,0.0,0.0,0.0,0.0,0.0,0.0,0.0,0.0,0.0,0.0,0.0,0.0,0.0,0.0,0.0,0.0,0.0,0.0,0.0,0.0,0.0,0.0,0.0,0.0,0.0,0.0,0.0,0.0,0.0,0.0,0.0,0.0,0.0,0.0,0.0,0.0,0.0,0.0,0.0,0.0,0.0,0.0,0.0,0.0,0.0,0.0,0.0,0.0,0.0,0.0,0.0,0.0,0.0,0.0,0.0,0.0,0.0,0.0,0.0,0.0,0.0,0.0,0.0,0.0,0.0,0.0,0.0,0.0,0.0,0.0,0.0,0.0,0.0,0.0,0.0,0.0,0.0,0.0,0.0,0.0,0.0,0.0,0.0,0.0,0.0,0.0,0.0,0.0,0.0,0.0,0.0,0.0,0.0,0.0,0.0,0.0,0.0,0.0,0.0,0.0,0.0,0.0,0.0,0.0,0.0,0.0,0.0,0.0,0.0,0.0,0.0,0.0,0.0,0.0,0.0,0.0,0.0,0.0,0.0,0.0,0.0,0.0,0.0,0.0,0.0,0.0,0.0,0.0,0.0,0.0,0.0,0.0,0.0,0.0,0.0,0.0,0.0,0.0,0.0,0.0,0.0,0.0,0.0,0.0,0.0,0.0,0.0,0.0,0.0,0.0,0.0,0.0,0.0,0.0,0.0,0.0,0.0,0.0,0.0,0.0,0.0,0.0,0.0,0.0,0.0,0.0,0.0,0.0,0.0,0.0,0.0,0.0,0.0,0.0,0.0,0.0,0.0,0.0,0.0,0.0,0.0,0.0,0.0,0.0,0.0,0.0,0.0,0.0,0.0,0.0,0.0,0.0,0.0,0.0,0.0,0.0,0.0,0.0,0.0,0.0,0.0,0.0,0.0,0.0,0.0,0.0,0.0,0.0,0.0,0.0,0.0,0.0,0.0,0.0,0.0,0.0,0.0,0.0,0.0,0.0,0.0,0.0,0.0,0.0,0.0,0.0,0.0,0.0,0.0,0.0,0.0,0.0,0.0,0.0,0.0,0.0,0.0,0.0,0.0,0.0,0.0,0.0,0.0,0.0,0.0,0.0,0.0,0.0,0.0,0.0,0.0,0.0,0.0,0.0,0.0,0.0,0.0,0.0,0.0,0.0,0.0,0.0,0.0,0.0,0.0,0.0,0.0,0.0,0.0,0.0,0.0,0.0,0.0,0.0,0.0,0.0,0.0,0.0,0.0,0.0,0.0,0.0,0.0,0.0,0.0,0.0,0.0,0.0,0.0,0.0,0.0,0.0,0.0,0.0,0.0,0.0,0.0,0.0,0.0,0.0,0.0,0.0,0.0,0.0,0.0,0.0,0.0,0.0,0.0,0.0,0.0,0.0,0.0,0.0,0.0,0.0,0.0,0.0,0.0,0.0,0.0,0.0,0.0,0.0,0.0,0.0,0.0,0.0,0.0,0.0,0.0,0.0,0.0,0.0,0.0,0.0,0.0,0.0,0.0,0.0,0.0,0.0,0.0,0.0,0.0,0.0,0.0,0.0,0.0,0.0,0.0,0.0,0.0,0.0,0.0,0.0,0.0,0.0,0.0,0.0,0.0,0.0,0.0,0.0,0.0,0.0,0.0,0.0,0.0,0.0,0.0,0.0,0.0,0.0,0.0,0.0,0.0,0.0,0.0,0.0,0.0,0.0,0.0,0.0,0.0,0.0,0.0,0.0,0.0,0.0,0.0,0.0,0.0,0.0,0.0,0.0,0.0,0.0,0.0,0.0,0.0,0.0,0.0,0.0,0.0,0.0,0.0,0.0,0.0,0.0,0.0,0.0,0.0,0.0,0.0,0.0,0.0,0.0,0.0,0.0,0.0,0.0,0.0,0.0,0.0,0.0,0.0,0.0,0.0,0.0,0.0,0.0,0.0,0.0,0.0,0.0,0.0,0.0,0.0,0.0,0.0,0.0,0.0,0.0,0.0,0.0,0.0,0.0,0.0,0.0,0.0,0.0,0.0,0.0,0.0,0.0,0.0,0.0,0.0,0.0,0.0,0.0,0.0,0.0,0.0,0.0,0.0,0.0,0.0,0.0,0.0,0.0,0.0,0.0,0.0,0.0,0.0,0.0,0.0,0.0,0.0,0.0,0.0,0.0,0.0,0.0,0.0,0.0,0.0,0.0,0.0,0.0,0.0,0.0,0.0,0.0,0.0,0.0,0.0,0.0,0.0,0.0,0.0,0.0,0.0,0.0,0.0,0.0,0.0,0.0,0.0,0.0,0.0,0.0,0.0,0.0,0.0,0.0,0.0,0.0,0.0,0.0,0.0,0.0,0.0,0.0,0.0,0.0,0.0,0.0,0.0,0.0,0.0,0.0,0.0,0.0,0.0,0.0,0.0,0.0,0.0,0.0,0.0,0.0,0.0,0.0,0.0,0.0,0.0,0.0,0.0,0.0,0.0,0.0,0.0,0.0,0.0,0.0,0.0,0.0,0.0,0.0,0.0,0.0,0.0,0.0,0.0,0.0,0.0,0.0,0.0,0.0,0.0,0.0,0.0,0.0,0.0,0.0,0.0,0.0,0.0,0.0,0.0,0.0,0.0,0.0,0.0,0.0,0.0,0.0,0.0,0.0,0.0,0.0,0.0,0.0,0.0,0.0,0.0,0.0,0.0,0.0,0.0,0.0,0.0,0.0,0.0,0.0,0.0,0.0,0.0,0.0,0.0,0.0,0.0,0.0,0.0,0.0,0.0,0.0,0.0,0.0,0.0,0.0,0.0,0.0,0.0,0.0,0.0,0.0,0.0,0.0,0.0,0.0,0.0,0.0,0.0,0.0,0.0,0.0,0.0,0.0,0.0,0.0,0.0,0.0,0.0,0.0,0.0,0.0,0.0,0.0,0.0,0.0,0.0,0.0,0.0,0.0,0.0,0.0,0.0,0.0,0.0,0.0,0.0,-4.3602,0.0,0.0,0.0,0.0,0.0,0.0,0.0,0.0,0.0,0.0,0.0,0.0,0.0,0.0,0.0,0.0,0.0,0.0,0.0,0.0,0.0,0.0,0.0,0.0,0.0,0.0,0.0,0.0,0.0,0.0,0.0,0.0,0.0,0.0,0.0,0.0,0.0,0.0,0.0,0.0,0.0,0.0,0.0,0.0,0.0,0.0,0.0,0.0,0.0,0.0,0.0,0.0,0.0,0.0,0.0,0.0,0.0,0.0,0.0,0.0,0.0,0.0,0.0,0.0,0.0,0.0,0.0,0.0,0.0,0.0,0.0,0.0,0.0,0.0,0.0,0.0,0.0,0.0,0.0,0.0,0.0,0.0,0.0,0.0,0.0,0.0,0.0,0.0,0.0,0.0,0.0,0.0,0.0,0.0,0.0,0.0,0.0,0.0,0.0,0.0,0.0,0.0,0.0,0.0,0.0,0.0,0.0,0.0,0.0,0.0,-4.4042,-4.3631,-4.3774,-4.3472,-4.2723,0.0,0.0,0.0,0.0,0.0,0.0,0.0,0.0,0.0,0.0,0.0,0.0,0.0,0.0,0.0,0.0,0.0,0.0,0.0,0.0,0.0,0.0,0.0,0.0,0.0,0.0,0.0,0.0,0.0,0.0,0.0,0.0,0.0,0.0,0.0,0.0,0.0,0.0,0.0,0.0,0.0,0.0,0.0,0.0,0.0,0.0,0.0,0.0,0.0,0.0,0.0,0.0,0.0,0.0,0.0,0.0,0.0,0.0,0.0,0.0,0.0,0.0,0.0,0.0,0.0,0.0,0.0,0.0,0.0,0.0,0.0,0.0,0.0,0.0,0.0,0.0,0.0,0.0,0.0,0.0,0.0,0.0,0.0,0.0,0.0,0.0,0.0,0.0,0.0,0.0,0.0,0.0,0.0,0.0,0.0,0.0,0.0,0.0,0.0,0.0,0.0,0.0,0.0,0.0,0.0,0.0,0.0,0.0,0.0,0.0,0.0,0.0,-4.2973,-4.2632,-4.1845,0.0,0.0,0.0,0.0,0.0,0.0,0.0,0.0,0.0,0.0,0.0,0.0,0.0,0.0,0.0,0.0,0.0,0.0,0.0,0.0,0.0,0.0,0.0,0.0,0.0,0.0,0.0,0.0,0.0,0.0,0.0,0.0,0.0,0.0,0.0,0.0,0.0,0.0,0.0,0.0,0.0,0.0,0.0,0.0,0.0,0.0,0.0,0.0,0.0,0.0,0.0,0.0,0.0,0.0,0.0,0.0,0.0,0.0,0.0,0.0,0.0,0.0,0.0,0.0,0.0,0.0,0.0,0.0,0.0,0.0,0.0,0.0,0.0,0.0,0.0,0.0,0.0,0.0,0.0,0.0,0.0,0.0,0.0,0.0,0.0,0.0,0.0,0.0,0.0,0.0,0.0,0.0,0.0,0.0,0.0,0.0,0.0,0.0,0.0,0.0,0.0,0.0,0.0,0.0,0.0,0.0,0.0,0.0,0.0,0.0,-4.2999,-4.2982,-4.2356,0.0,-4.1005,0.0,0.0,0.0,0.0,0.0,0.0,0.0,0.0,0.0,0.0,0.0,0.0,0.0,0.0,0.0,0.0,0.0,0.0,0.0,0.0,0.0,0.0,0.0,0.0,0.0,0.0,0.0,0.0,0.0,0.0,0.0,0.0,0.0,0.0,0.0,0.0,0.0,0.0,0.0,0.0,0.0,0.0,0.0,0.0,0.0,0.0,0.0,0.0,0.0,0.0,0.0,0.0,0.0,0.0,0.0,0.0,0.0,0.0,0.0,0.0,0.0,0.0,0.0,0.0,0.0,0.0,0.0,0.0,0.0,0.0,0.0,0.0,0.0,0.0,0.0,0.0,0.0,0.0,0.0,0.0,0.0,0.0,0.0,0.0,0.0,0.0,0.0,0.0,0.0,0.0,0.0,0.0,0.0,0.0,0.0,0.0,0.0,0.0,0.0,0.0,0.0,0.0,0.0,0.0,0.0,0.0,0.0,0.0,0.0,0.0,-4.1992,-4.1577,-4.0913,-4.0416,0.0,0.0,0.0,0.0,0.0,0.0,0.0,0.0,0.0,0.0,0.0,0.0,0.0,0.0,0.0,0.0,0.0,0.0,0.0,0.0,0.0,0.0,0.0,0.0,0.0,0.0,0.0,0.0,0.0,0.0,0.0,0.0,0.0,0.0,0.0,0.0,0.0,0.0,0.0,0.0,0.0,0.0,0.0,0.0,0.0,0.0,0.0,0.0,0.0,0.0,0.0,0.0,0.0,0.0,0.0,0.0,0.0,0.0,0.0,0.0,0.0,0.0,0.0,0.0,0.0,0.0,0.0,0.0,0.0,0.0,0.0,0.0,0.0,0.0,0.0,0.0,0.0,0.0,0.0,0.0,0.0,0.0,0.0,0.0,0.0,0.0,0.0,0.0,0.0,0.0,0.0,0.0,0.0,0.0,0.0,0.0,0.0,0.0,0.0,0.0,0.0,0.0,0.0,0.0,0.0,0.0,0.0,0.0,0.0,0.0,-4.1742,-4.1008,-4.0307,-3.9789,-3.9627,-3.965,0.0,0.0,0.0,0.0,0.0,0.0,0.0,0.0,0.0,0.0,0.0,0.0,0.0,0.0,0.0,0.0,0.0,0.0,0.0,0.0,0.0,0.0,0.0,0.0,0.0,0.0,0.0,0.0,0.0,0.0,0.0,0.0,0.0,0.0,0.0,0.0,0.0,0.0,0.0,0.0,0.0,0.0,0.0,0.0,0.0,0.0,0.0,0.0,0.0,0.0,0.0,0.0,0.0,0.0,0.0,0.0,0.0,0.0,0.0,0.0,0.0,0.0,0.0,0.0,0.0,0.0,0.0,0.0,0.0,0.0,0.0,0.0,0.0,0.0,0.0,0.0,0.0,0.0,0.0,0.0,0.0,0.0,0.0,0.0,0.0,0.0,0.0,0.0,0.0,0.0,0.0,0.0,0.0,0.0,0.0,0.0,0.0,0.0,0.0,0.0,0.0,0.0,0.0,0.0,0.0,0.0,0.0,0.0,-4.1646,-4.088,-4.0133,-3.9485,-3.9475,-3.9552,0.0,0.0,0.0,0.0,0.0,0.0,0.0,0.0,0.0,0.0,0.0,0.0,0.0,0.0,0.0,0.0,0.0,0.0,0.0,0.0,0.0,0.0,0.0,0.0,0.0,0.0,0.0,0.0,0.0,0.0,0.0,0.0,0.0,0.0,0.0,0.0,0.0,0.0,0.0,0.0,0.0,0.0,0.0,0.0,0.0,0.0,0.0,0.0,0.0,0.0,0.0,0.0,0.0,0.0,0.0,0.0,0.0,0.0,0.0,0.0,0.0,0.0,0.0,0.0,0.0,0.0,0.0,0.0,0.0,0.0,0.0,0.0,0.0,0.0,0.0,0.0,0.0,0.0,0.0,0.0,0.0,0.0,0.0,0.0,0.0,0.0,0.0,0.0,0.0,0.0,0.0,0.0,0.0,0.0,0.0,0.0,0.0,0.0,0.0,0.0,0.0,0.0,0.0,0.0,0.0,0.0,0.0,0.0,0.0,-4.0806,-4.0016,-3.9513,-3.9293,-3.9412,-3.9527,0.0,0.0,0.0,0.0,0.0,0.0,0.0,0.0,0.0,0.0,0.0,0.0,0.0,0.0,0.0,0.0,0.0,0.0,0.0,0.0,0.0,0.0,0.0,0.0,0.0,0.0,0.0,0.0,0.0,0.0,0.0,0.0,0.0,0.0,0.0,0.0,0.0,0.0,0.0,0.0,0.0,0.0,0.0,0.0,0.0,0.0,0.0,0.0,0.0,0.0,0.0,0.0,0.0,0.0,0.0,0.0,0.0,0.0,0.0,0.0,0.0,0.0,0.0,0.0,0.0,0.0,0.0,0.0,0.0,0.0,0.0,0.0,0.0,0.0,0.0,0.0,0.0,0.0,0.0,0.0,0.0,0.0,0.0,0.0,0.0,0.0,0.0,0.0,0.0,0.0,0.0,0.0,0.0,0.0,0.0,0.0,0.0,0.0,0.0,0.0,0.0,0.0,0.0,0.0,0.0,0.0,0.0,0.0,0.0,-4.0397,0.0,-3.9858,-3.9625,-3.9784,-3.975,0.0,0.0,0.0,0.0,0.0,0.0,0.0,0.0,0.0,0.0,0.0,0.0,0.0,0.0,0.0,0.0,0.0,0.0,0.0,0.0,0.0,0.0,0.0,0.0,0.0,0.0,0.0,0.0,0.0,0.0,0.0,0.0,0.0,0.0,0.0,0.0,0.0,0.0,0.0,0.0,0.0,0.0,0.0,0.0,0.0,0.0,0.0,0.0,0.0,0.0,0.0,0.0,0.0,0.0,0.0,0.0,0.0,0.0,0.0,0.0,0.0,0.0,0.0,0.0,0.0,0.0,0.0,0.0,0.0,0.0,0.0,0.0,0.0,0.0,0.0,0.0,0.0,0.0,0.0,0.0,0.0,0.0,0.0,0.0,0.0,0.0,0.0,0.0,0.0,0.0,0.0,0.0,0.0,0.0,0.0,0.0,0.0,0.0,0.0,0.0,0.0,0.0,0.0,0.0,0.0,0.0,0.0,0.0,-3.9602,-4.0397,-4.1177,-4.1169,-4.0556,-4.0565,-4.0272,0.0,0.0,0.0,0.0,0.0,0.0,0.0,0.0,0.0,0.0,0.0,0.0,0.0,0.0,0.0,0.0,0.0,0.0,0.0,0.0,0.0,0.0,0.0,0.0,0.0,0.0,0.0,0.0,0.0,0.0,0.0,0.0,0.0,0.0,0.0,0.0,0.0,0.0,0.0,0.0,0.0,0.0,0.0,0.0,0.0,0.0,0.0,0.0,0.0,0.0,0.0,0.0,0.0,0.0,0.0,0.0,0.0,0.0,0.0,0.0,0.0,0.0,0.0,0.0,0.0,0.0,0.0,0.0,0.0,0.0,0.0,0.0,0.0,0.0,0.0,0.0,0.0,0.0,0.0,0.0,0.0,0.0,0.0,0.0,0.0,0.0,0.0,0.0,0.0,0.0,0.0,0.0,0.0,0.0,0.0,0.0,0.0,0.0,0.0,0.0,0.0,0.0,0.0,0.0,0.0,0.0,0.0,0.0,0.0,-4.1252,-4.146,-4.1475,-4.1281,-4.1301,-4.1036,0.0,0.0,0.0,0.0,0.0,0.0,0.0,0.0,0.0,0.0,0.0,0.0,0.0,0.0,0.0,0.0,0.0,0.0,0.0,0.0,0.0,0.0,0.0,0.0,0.0,0.0,0.0,0.0,0.0,0.0,0.0,0.0,0.0,0.0,0.0,0.0,0.0,0.0,0.0,0.0,0.0,0.0,0.0,0.0,0.0,0.0,0.0,0.0,0.0,0.0,0.0,0.0,0.0,0.0,0.0,0.0,0.0,0.0,0.0,0.0,0.0,0.0,0.0,0.0,0.0,0.0,0.0,0.0,0.0,0.0,0.0,0.0,0.0,0.0,0.0,0.0,0.0,0.0,0.0,0.0,0.0,0.0,0.0,0.0,0.0,0.0,0.0,0.0,0.0,0.0,0.0,0.0,0.0,0.0,0.0,0.0,0.0,0.0,0.0,0.0,0.0,0.0,0.0,0.0,0.0,0.0,0.0,0.0,0.0,-4.3429,-4.3429,-4.328,-4.2983,-4.2709,-4.2112,-4.1091,0.0,0.0,0.0,0.0,0.0,0.0,0.0,0.0,0.0,0.0,0.0,0.0,0.0,0.0,0.0,0.0,0.0,0.0,0.0,0.0,0.0,0.0,0.0,0.0,0.0,0.0,0.0,0.0,0.0,0.0,0.0,0.0,0.0,0.0,0.0,0.0,0.0,0.0,0.0,0.0,0.0,0.0,0.0,0.0,0.0,0.0,0.0,0.0,0.0,0.0,0.0,0.0,0.0,0.0,0.0,0.0,0.0,0.0,0.0,0.0,0.0,0.0,0.0,0.0,0.0,0.0,0.0,0.0,0.0,0.0,0.0,0.0,0.0,0.0,0.0,0.0,0.0,0.0,0.0,0.0,0.0,0.0,0.0,0.0,0.0,0.0,0.0,0.0,0.0,0.0,0.0,0.0,0.0,0.0,0.0,0.0,0.0,0.0,0.0,0.0,0.0,0.0,0.0,0.0,0.0,0.0,0.0,0.0,-4.6624,-4.6735,-4.6327,-4.5435,-4.4718,-4.355,0.0,0.0,0.0,0.0,0.0,0.0,0.0,0.0,0.0,0.0,0.0,0.0,0.0,0.0,0.0,0.0,0.0,0.0,0.0,0.0,0.0,0.0,0.0,0.0,0.0,0.0,0.0,0.0,0.0,0.0,0.0,0.0,0.0,0.0,0.0,0.0,0.0,0.0,0.0,0.0,0.0,0.0,0.0,0.0,0.0,0.0,0.0,0.0,0.0,0.0,0.0,0.0,0.0,0.0,0.0,0.0,0.0,0.0,0.0,0.0,0.0,0.0,0.0,0.0,0.0,0.0,0.0,0.0,0.0,0.0,0.0,0.0,0.0,0.0,0.0,0.0,0.0,0.0,0.0,0.0,0.0,0.0,0.0,0.0,0.0,0.0,0.0,0.0,0.0,0.0,0.0,0.0,0.0,0.0,0.0,0.0,0.0,0.0,0.0,0.0,0.0,0.0,0.0,0.0,0.0,0.0,0.0,0.0,0.0,-4.8221,-4.9485,-4.915,-4.7144,-4.6863,-4.576,0.0,0.0,0.0,0.0,0.0,0.0,0.0,0.0,0.0,0.0,0.0,0.0,0.0,0.0,0.0,0.0,0.0,0.0,0.0,0.0,0.0,0.0,0.0,0.0,0.0,0.0,0.0,0.0,0.0,0.0,0.0,0.0,0.0,0.0,0.0,0.0,0.0,0.0,0.0,0.0,0.0,0.0,0.0,0.0,0.0,0.0,0.0,0.0,0.0,0.0,0.0,0.0,0.0,0.0,0.0,0.0,0.0,0.0,0.0,0.0,0.0,0.0,0.0,0.0,0.0,0.0,0.0,0.0,0.0,0.0,0.0,0.0,0.0,0.0,0.0,0.0,0.0,0.0,0.0,0.0,0.0,0.0,0.0,0.0,0.0,0.0,0.0,0.0,0.0,0.0,0.0,0.0,0.0,0.0,0.0,0.0,0.0,0.0,0.0,0.0,0.0,0.0,0.0,0.0,0.0,0.0,0.0,0.0,-4.7961,-4.993,-5.1565,-5.1714,-5.0302,-4.8927,-4.7252,0.0,0.0,0.0,0.0,0.0,0.0,0.0,0.0,0.0,0.0,0.0,0.0,0.0,0.0,0.0,0.0,0.0,0.0,0.0,0.0,0.0,0.0,0.0,0.0,0.0,0.0,0.0,0.0,0.0,0.0,0.0,0.0,0.0,0.0,0.0,0.0,0.0,0.0,0.0,0.0,0.0,0.0,0.0,0.0,0.0,0.0,0.0,0.0,0.0,0.0,0.0,0.0,0.0,0.0,0.0,0.0,0.0,0.0,0.0,0.0,0.0,0.0,0.0,0.0,0.0,0.0,0.0,0.0,0.0,0.0,0.0,0.0,0.0,0.0,0.0,0.0,0.0,0.0,0.0,0.0,0.0,0.0,0.0,0.0,0.0,0.0,0.0,0.0,0.0,0.0,0.0,0.0,0.0,0.0,0.0,0.0,0.0,0.0,0.0,0.0,0.0,0.0,0.0,0.0,0.0,0.0,0.0,0.0,-4.9224,-5.1602,-5.3237,-5.4017,-5.3831,-5.0896,-4.8479,0.0,0.0,0.0,0.0,0.0,0.0,0.0,0.0,0.0,0.0,0.0,0.0,0.0,0.0,0.0,0.0,0.0,0.0,0.0,0.0,0.0,0.0,0.0,0.0,0.0,0.0,0.0,0.0,0.0,0.0,0.0,0.0,0.0,0.0,0.0,0.0,0.0,0.0,0.0,0.0,0.0,0.0,0.0,0.0,0.0,0.0,0.0,0.0,0.0,0.0,0.0,0.0,0.0,0.0,0.0,0.0,0.0,0.0,0.0,0.0,0.0,0.0,0.0,0.0,0.0,0.0,0.0,0.0,0.0,0.0,0.0,0.0,0.0,0.0,0.0,0.0,0.0,0.0,0.0,0.0,0.0,0.0,0.0,0.0,0.0,0.0,0.0,0.0,0.0,0.0,0.0,0.0,0.0,0.0,0.0,0.0,0.0,0.0,0.0,0.0,0.0,0.0,0.0,0.0,0.0,0.0,0.0,0.0,-5.1454,-5.3237,-5.4909,-5.5429,-5.476,-5.2828,-5.045,0.0,0.0,0.0,0.0,0.0,0.0,0.0,0.0,0.0,0.0,0.0,0.0,0.0,0.0,0.0,0.0,0.0,0.0,0.0,0.0,0.0,0.0,0.0,0.0,0.0,0.0,0.0,0.0,0.0,0.0,0.0,0.0,0.0,0.0,0.0,0.0,0.0,0.0,0.0,0.0,0.0,0.0,0.0,0.0,0.0,0.0,0.0,0.0,-4.1616,0.0,0.0,0.0,0.0,0.0,0.0,0.0,0.0,0.0,0.0,0.0,0.0,0.0,0.0,0.0,0.0,0.0,0.0,0.0,0.0,0.0,0.0,0.0,0.0,0.0,0.0,0.0,0.0,0.0,0.0,0.0,0.0,0.0,0.0,0.0,0.0,0.0,0.0,0.0,0.0,0.0,0.0,0.0,0.0,0.0,0.0,0.0,0.0,0.0,0.0,0.0,0.0,0.0,0.0,0.0,0.0,0.0,0.0,0.0,-5.2382,-5.4351,-5.5986,-5.6655,-5.6134,-5.4611,-5.2011,0.0,0.0,0.0,0.0,0.0,0.0,0.0,0.0,0.0,0.0,0.0,0.0,0.0,0.0,0.0,0.0,0.0,0.0,0.0,0.0,0.0,0.0,0.0,0.0,0.0,0.0,0.0,0.0,0.0,0.0,0.0,0.0,0.0,0.0,0.0,0.0,0.0,0.0,0.0,0.0,0.0,0.0,0.0,0.0,0.0,0.0,0.0,0.0,0.0,0.0,0.0,0.0,0.0,0.0,0.0,0.0,0.0,0.0,0.0,0.0,0.0,0.0,0.0,0.0,0.0,0.0,0.0,0.0,0.0,0.0,0.0,0.0,0.0,0.0,0.0,0.0,0.0,0.0,0.0,0.0,0.0,0.0,0.0,0.0,0.0,0.0,0.0,0.0,0.0,0.0,0.0,0.0,0.0,0.0,0.0,0.0,0.0,0.0,0.0,0.0,0.0,0.0,0.0,0.0,0.0,0.0,0.0,-5.0042,-5.2865,-5.5112,-5.684,-5.7583,-5.7286,-5.5837,-5.3162,-4.9224,0.0,0.0,0.0,0.0,0.0,0.0,0.0,0.0,0.0,0.0,0.0,0.0,0.0,0.0,0.0,0.0,0.0,0.0,0.0,0.0,0.0,0.0,0.0,0.0,0.0,0.0,0.0,0.0,0.0,0.0,0.0,0.0,0.0,0.0,0.0,0.0,0.0,0.0,-3.8469,-3.9815,0.0,0.0,0.0,0.0,0.0,0.0,0.0,0.0,-4.3672,0.0,0.0,0.0,0.0,0.0,0.0,0.0,0.0,0.0,0.0,0.0,0.0,0.0,0.0,0.0,0.0,0.0,0.0,0.0,0.0,0.0,0.0,0.0,0.0,0.0,0.0,0.0,0.0,0.0,0.0,0.0,0.0,0.0,0.0,0.0,0.0,0.0,0.0,0.0,0.0,0.0,0.0,0.0,0.0,0.0,0.0,0.0,0.0,0.0,0.0,0.0,0.0,0.0,0.0,0.0,0.0,-4.7478,-5.1379,-5.4277,-5.606,-5.7695,-5.7881,-5.6543,-5.554,-5.3404,-5.0042,0.0,0.0,0.0,0.0,0.0,0.0,0.0,0.0,0.0,0.0,0.0,0.0,0.0,0.0,0.0,0.0,0.0,0.0,0.0,0.0,0.0,0.0,0.0,0.0,0.0,0.0,0.0,0.0,0.0,0.0,0.0,0.0,0.0,0.0,0.0,0.0,0.0,0.0,0.0,-4.1431,-4.1893,0.0,0.0,0.0,0.0,0.0,0.0,0.0,0.0,-4.5884,0.0,0.0,0.0,0.0,0.0,0.0,0.0,0.0,0.0,0.0,0.0,0.0,0.0,0.0,0.0,0.0,0.0,0.0,0.0,0.0,0.0,0.0,0.0,0.0,0.0,0.0,0.0,0.0,0.0,0.0,0.0,0.0,0.0,0.0,0.0,0.0,0.0,0.0,0.0,0.0,0.0,0.0,0.0,0.0,0.0,0.0,0.0,0.0,0.0,0.0,0.0,0.0,0.0,0.0,0.0,-4.8333,-5.1936,-5.4611,-5.6283,-5.7881,-5.8141,-5.6952,-5.6134,-5.4128,0.0,0.0,0.0,0.0,0.0,0.0,0.0,0.0,0.0,0.0,0.0,0.0,0.0,0.0,0.0,0.0,0.0,0.0,0.0,0.0,0.0,0.0,0.0,0.0,0.0,0.0,0.0,0.0,0.0,0.0,0.0,0.0,0.0,0.0,0.0,0.0,0.0,0.0,0.0,0.0,-4.247,-4.2931,-4.4201,0.0,0.0,0.0,0.0,0.0,0.0,-4.7086,-4.7395,0.0,0.0,0.0,0.0,0.0,0.0,0.0,0.0,0.0,0.0,0.0,0.0,0.0,0.0,0.0,0.0,0.0,0.0,0.0,0.0,0.0,0.0,0.0,0.0,0.0,0.0,0.0,0.0,0.0,0.0,0.0,0.0,0.0,0.0,0.0,0.0,0.0,0.0,0.0,0.0,0.0,0.0,0.0,0.0,0.0,0.0,0.0,0.0,0.0,0.0,0.0,0.0,0.0,0.0,0.0,-4.889,-5.2122,-5.4611,-5.6283,-5.7881,-5.8252,-5.7286,-5.6617,-5.476,0.0,0.0,0.0,0.0,0.0,0.0,0.0,0.0,0.0,0.0,0.0,0.0,0.0,0.0,0.0,0.0,0.0,0.0,0.0,0.0,0.0,0.0,0.0,0.0,0.0,0.0,0.0,0.0,0.0,0.0,0.0,0.0,0.0,0.0,0.0,0.0,0.0,0.0,0.0,0.0,0.0,-4.4175,-4.5828,-4.6142,0.0,0.0,0.0,0.0,-4.9029,-4.9067,0.0,0.0,0.0,0.0,0.0,0.0,0.0,0.0,0.0,0.0,0.0,0.0,0.0,0.0,0.0,0.0,0.0,0.0,0.0,0.0,0.0,0.0,0.0,0.0,0.0,0.0,0.0,0.0,0.0,0.0,0.0,0.0,0.0,0.0,0.0,0.0,0.0,0.0,0.0,0.0,0.0,0.0,0.0,0.0,0.0,0.0,0.0,0.0,0.0,0.0,0.0,0.0,0.0,0.0,0.0,0.0,-4.889,-5.2122,-5.4611,-5.6283,-5.7881,-5.7992,-5.6506,-5.6357,-5.476,0.0,0.0,0.0,0.0,0.0,0.0,0.0,0.0,0.0,0.0,0.0,0.0,0.0,0.0,0.0,0.0,0.0,0.0,0.0,0.0,0.0,0.0,0.0,0.0,0.0,0.0,0.0,0.0,0.0,0.0,0.0,0.0,0.0,0.0,0.0,0.0,0.0,0.0,0.0,0.0,0.0,-4.5745,-4.7481,-4.7722,-4.8116,0.0,0.0,-4.991,-5.1411,-5.1652,0.0,0.0,0.0,0.0,0.0,0.0,0.0,0.0,0.0,0.0,0.0,0.0,0.0,0.0,0.0,0.0,0.0,0.0,0.0,0.0,0.0,0.0,0.0,0.0,0.0,0.0,0.0,0.0,0.0,0.0,0.0,0.0,0.0,0.0,0.0,0.0,0.0,0.0,0.0,0.0,0.0,0.0,0.0,0.0,0.0,0.0,0.0,0.0,0.0,0.0,0.0,0.0,0.0,0.0,0.0,-4.5621,-4.8853,-5.2159,-5.4611,-5.6283,-5.7881,-5.7955,-5.632,-5.632,-5.476,0.0,0.0,0.0,0.0,0.0,0.0,0.0,0.0,0.0,0.0,0.0,0.0,0.0,0.0,0.0,0.0,0.0,0.0,0.0,0.0,0.0,0.0,0.0,0.0,0.0,0.0,0.0,0.0,0.0,0.0,0.0,0.0,0.0,0.0,0.0,0.0,0.0,0.0,0.0,0.0,0.0,0.0,-4.9262,-4.9782,0.0,0.0,0.0,-5.1767,-5.2518,0.0,0.0,0.0,0.0,0.0,0.0,0.0,0.0,0.0,0.0,0.0,0.0,0.0,0.0,0.0,0.0,0.0,0.0,0.0,0.0,0.0,0.0,0.0,0.0,0.0,0.0,0.0,0.0,0.0,0.0,0.0,0.0,0.0,0.0,0.0,0.0,0.0,0.0,0.0,0.0,0.0,0.0,0.0,0.0,0.0,0.0,0.0,0.0,0.0,0.0,0.0,0.0,0.0,0.0,0.0,0.0,0.0,-4.889,-5.2122,-5.4611,-5.6283,-5.7881,-5.7918,-5.6357,-5.632,0.0,0.0,0.0,0.0,0.0,0.0,0.0,0.0,0.0,0.0,0.0,0.0,0.0,0.0,0.0,0.0,0.0,0.0,0.0,0.0,0.0,0.0,0.0,0.0,0.0,0.0,0.0,-4.1918,0.0,0.0,0.0,0.0,0.0,0.0,0.0,0.0,0.0,0.0,0.0,0.0,0.0,0.0,-5.0057,-5.0899,-5.1752,-5.2568,0.0,0.0,-5.3931,-5.4161,-5.4199,-5.4199,0.0,0.0,0.0,0.0,0.0,0.0,0.0,0.0,0.0,0.0,0.0,0.0,0.0,0.0,0.0,0.0,0.0,0.0,0.0,0.0,0.0,0.0,0.0,0.0,0.0,0.0,0.0,0.0,0.0,0.0,0.0,0.0,0.0,0.0,0.0,0.0,0.0,0.0,0.0,0.0,0.0,0.0,0.0,0.0,0.0,0.0,0.0,0.0,0.0,0.0,0.0,0.0,0.0,0.0,0.0,-4.889,-5.2159,-5.4611,-5.6283,-5.7881,-5.7955,-5.6357,-5.632,-5.5094,0.0,0.0,0.0,0.0,0.0,0.0,0.0,0.0,0.0,0.0,0.0,0.0,0.0,0.0,0.0,0.0,0.0,0.0,0.0,0.0,0.0,0.0,0.0,0.0,0.0,0.0,0.0,0.0,0.0,0.0,0.0,0.0,0.0,0.0,0.0,0.0,0.0,0.0,0.0,0.0,0.0,-5.1548,-5.2347,-5.32,-5.4078,0.0,0.0,-5.6523,-5.7338,-5.7453,-5.7453,-5.7453,0.0,0.0,0.0,0.0,0.0,0.0,0.0,0.0,0.0,0.0,0.0,0.0,0.0,0.0,0.0,0.0,0.0,0.0,0.0,0.0,0.0,0.0,0.0,0.0,0.0,0.0,0.0,0.0,0.0,0.0,0.0,0.0,0.0,0.0,0.0,0.0,0.0,0.0,0.0,0.0,0.0,0.0,0.0,0.0,0.0,0.0,0.0,0.0,0.0,0.0,0.0,0.0,0.0,-4.5621,-4.889,-5.2159,-5.4611,-5.6283,-5.7881,-5.8178,-5.7063,-5.658,-5.5354,0.0,0.0,0.0,0.0,0.0,0.0,0.0,0.0,0.0,0.0,0.0,0.0,0.0,0.0,0.0,0.0,0.0,0.0,0.0,0.0,0.0,0.0,0.0,0.0,0.0,0.0,0.0,0.0,-4.7047,-4.7881,-4.8928,0.0,0.0,0.0,0.0,0.0,0.0,0.0,0.0,0.0,0.0,-5.3995,-5.4832,-5.5646,0.0,0.0,-5.6944,-5.7301,-5.7658,-5.7696,-5.7696,-5.7696,-5.763,0.0,0.0,0.0,0.0,0.0,0.0,0.0,0.0,0.0,0.0,0.0,0.0,0.0,0.0,0.0,0.0,0.0,0.0,0.0,0.0,0.0,0.0,0.0,0.0,0.0,0.0,0.0,0.0,0.0,0.0,0.0,0.0,0.0,0.0,0.0,0.0,0.0,0.0,0.0,0.0,0.0,0.0,0.0,0.0,0.0,0.0,0.0,0.0,0.0,0.0,0.0,0.0,-4.6252,-4.9262,-5.2494,-5.4834,-5.6283,-5.7881,-5.8326,-5.7509,-5.6729,-5.5652,0.0,0.0,0.0,0.0,0.0,0.0,0.0,0.0,0.0,0.0,0.0,0.0,0.0,0.0,0.0,0.0,0.0,0.0,0.0,0.0,0.0,0.0,0.0,0.0,0.0,0.0,0.0,0.0,-4.9529,-5.0327,-5.1496,0.0,0.0,0.0,0.0,0.0,0.0,0.0,0.0,0.0,0.0,-5.5943,-5.6512,-5.7339,-5.7886,-5.7886,-5.8319,-5.8639,-5.8639,-5.8867,-5.9057,-5.9034,0.0,0.0,0.0,0.0,0.0,0.0,0.0,0.0,0.0,0.0,0.0,0.0,0.0,0.0,0.0,0.0,0.0,0.0,0.0,0.0,0.0,0.0,0.0,0.0,0.0,0.0,0.0,0.0,0.0,0.0,-4.3801,0.0,0.0,0.0,0.0,0.0,0.0,0.0,0.0,0.0,0.0,0.0,0.0,0.0,0.0,0.0,0.0,0.0,0.0,0.0,0.0,0.0,0.0,-4.7627,-5.0079,-5.3274,-5.5391,-5.632,-5.7881,-5.8326,-5.7546,-5.6729,-5.5874,-5.4983,0.0,0.0,0.0,0.0,0.0,0.0,0.0,0.0,0.0,0.0,0.0,0.0,0.0,0.0,0.0,0.0,0.0,0.0,0.0,0.0,0.0,0.0,0.0,0.0,0.0,0.0,-5.0707,-5.2199,-5.3225,0.0,0.0,0.0,0.0,0.0,0.0,0.0,0.0,0.0,0.0,-5.6559,-5.7071,-5.7163,-5.7888,-5.8521,-5.8521,-5.9912,-6.1001,-6.1001,-6.1705,-6.2311,0.0,0.0,0.0,0.0,0.0,0.0,0.0,0.0,0.0,0.0,0.0,0.0,0.0,0.0,0.0,0.0,0.0,0.0,0.0,0.0,0.0,0.0,0.0,0.0,0.0,0.0,0.0,-4.7776,-4.7256,0.0,0.0,0.0,0.0,0.0,0.0,0.0,0.0,0.0,0.0,0.0,-4.889,-4.8927,0.0,0.0,0.0,0.0,0.0,0.0,0.0,0.0,0.0,0.0,0.0,0.0,-4.7701,-5.0098,-5.3348,-5.5429,-5.632,-5.7881,-5.8586,-5.8289,-5.7509,-5.6172,-5.4277,0.0,0.0,0.0,0.0,0.0,0.0,0.0,0.0,0.0,0.0,0.0,0.0,0.0,0.0,0.0,0.0,0.0,0.0,0.0,0.0,0.0,0.0,0.0,0.0,0.0,-5.2757,0.0,0.0,0.0,0.0,0.0,0.0,0.0,0.0,0.0,0.0,0.0,-5.692,-5.7486,-5.7788,-5.8353,-5.9465,-5.9897,-6.0289,0.0,0.0,0.0,0.0,0.0,0.0,0.0,0.0,0.0,0.0,0.0,0.0,0.0,0.0,-6.1979,-6.1655,-6.1691,-6.194,-6.2311,0.0,0.0,0.0,0.0,0.0,0.0,0.0,0.0,0.0,0.0,0.0,0.0,0.0,0.0,-5.0339,0.0,-4.9224,0.0,0.0,0.0,0.0,0.0,0.0,0.0,0.0,-5.0636,-5.1714,-5.2234,-5.2271,-5.2271,0.0,-5.1676,-4.9447,0.0,0.0,0.0,0.0,0.0,0.0,0.0,0.0,-4.8816,-5.0971,-5.3943,-5.5874,-5.6729,-5.7992,-5.8677,-5.8677,-5.7918,-5.6469,-5.4314,-5.346,-5.2642,0.0,0.0,0.0,0.0,0.0,0.0,0.0,0.0,0.0,0.0,0.0,0.0,0.0,0.0,0.0,0.0,0.0,0.0,0.0,0.0,0.0,0.0,0.0,-5.4897,0.0,0.0,0.0,0.0,0.0,0.0,0.0,0.0,0.0,-5.8852,-5.8739,-5.8927,-5.951,-5.9585,-6.0017,-6.1146,0.0,0.0,0.0,0.0,0.0,0.0,0.0,-6.3259,-6.3293,-6.3575,-6.3875,-6.4275,-6.4426,-6.4726,-6.5314,0.0,0.0,-6.4475,-6.4421,-6.4666,-6.5072,-6.5247,-6.5412,-6.5431,-6.604,-6.6516,0.0,0.0,0.0,0.0,0.0,0.0,0.0,0.0,-5.3943,-5.3905,0.0,-5.2271,0.0,0.0,0.0,0.0,0.0,-5.0785,0.0,0.0,-5.3274,-5.4834,-5.6209,-5.4797,-5.4871,-5.6246,-5.4723,-5.3125,-5.1379,-4.8296,0.0,0.0,0.0,0.0,0.0,0.0,-5.0933,-5.2605,-5.502,-5.6692,-5.7472,-5.8289,-5.8677,-5.8677,-5.7918,-5.6729,-5.5169,-5.4351,-5.3534,-5.2754,-5.2011,0.0,0.0,0.0,0.0,0.0,0.0,0.0,0.0,0.0,0.0,0.0,0.0,0.0,0.0,0.0,0.0,0.0,0.0,0.0,0.0,-5.6458,0.0,0.0,0.0,0.0,0.0,0.0,0.0,0.0,0.0,0.0,-6.1825,-6.175,-6.1768,-6.175,0.0,0.0,0.0,0.0,-6.218,-6.24,-6.3076,-6.362,-6.3638,-6.4358,-6.4886,-6.501,0.0,0.0,-6.76,-6.789,-6.795,-6.8115,-6.8231,-6.8167,-6.7291,-6.7204,-6.7525,-6.8287,-6.8578,-6.8903,-6.9003,-6.8999,-6.9233,-6.1558,0.0,0.0,0.0,0.0,-5.7286,-5.7323,-5.7303,-5.7286,-5.6989,-5.6357,-5.5354,0.0,0.0,0.0,0.0,0.0,0.0,-5.4909,-5.502,-5.7175,-5.8438,-5.8884,-5.9032,-5.8995,-5.8846,-5.7806,-5.6469,-5.4834,-5.2754,-5.0005,-4.6698,0.0,0.0,0.0,0.0,-5.1231,-5.3423,-5.5317,-5.6692,-5.7509,-5.8289,-5.8677,-5.8677,-5.7918,-5.7286,-5.6803,-5.6023,-5.5466,-5.5243,-5.502,0.0,0.0,0.0,0.0,0.0,0.0,0.0,0.0,0.0,0.0,0.0,0.0,0.0,0.0,0.0,0.0,0.0,0.0,0.0,-5.8071,-5.8446,-5.9065,0.0,0.0,0.0,0.0,0.0,0.0,0.0,0.0,0.0,-6.3556,-6.2558,-6.1844,0.0,0.0,-6.2222,-6.2918,-6.2993,-6.3275,-6.3951,-6.4251,0.0,0.0,-6.4803,-6.5217,-6.5872,-6.6804,-6.7544,-6.7944,-6.8124,-6.8457,-6.9194,-6.9432,-6.9817,-7.0739,-6.9523,-6.8617,-6.881,-6.9406,-6.9978,-7.009,-7.1082,-7.1993,-6.6327,-6.3579,-6.1521,-6.0667,-6.0667,-6.063,-6.0667,-6.0667,-6.063,-6.0221,-5.9404,-5.8586,-5.7769,-5.6894,-5.6077,0.0,0.0,0.0,-5.7918,-5.8326,-6.0072,-6.1224,-6.1856,-6.2041,-6.1871,-6.1373,-6.0555,-5.9181,-5.7249,-5.6246,-5.398,-5.0673,0.0,0.0,-4.9893,-5.0673,-5.2159,-5.4221,-5.5614,-5.684,-5.7955,-5.8475,-5.8677,-5.8698,-5.8252,-5.7843,-5.7509,-5.7026,-5.6617,-5.632,-5.632,-5.606,0.0,0.0,0.0,0.0,0.0,0.0,0.0,0.0,0.0,0.0,0.0,-5.3162,-5.4017,0.0,0.0,0.0,-5.7883,-5.9083,-6.0173,-6.0304,0.0,0.0,0.0,0.0,0.0,0.0,0.0,-6.3517,-6.3593,-6.382,-6.4368,-6.3539,-6.2937,-6.3031,-6.3031,-6.3257,-6.3803,0.0,-6.4177,-6.4739,-6.4868,-6.5072,-6.5479,-6.5568,-6.6015,-6.7327,-6.8097,-6.8708,-6.9131,-6.9346,-6.9682,-7.0313,-7.0803,-7.1513,-7.2613,-7.1784,-7.1023,-7.1062,-7.155,-7.1983,-7.2071,-7.2966,-7.3816,-7.071,-6.9633,-6.5905,-6.4159,-6.3899,-6.3899,-6.3862,-6.3825,-6.3788,-6.3379,-6.2636,-6.1819,-6.1001,-6.0125,-5.9404,0.0,-5.9144,-5.9924,-6.0741,-6.1521,-6.2339,-6.349,-6.4842,-6.4159,-6.3802,-6.3788,-6.2933,-6.1336,-5.9181,-5.8788,-5.7546,-5.528,-5.294,-5.1714,-5.1639,-5.2271,-5.3423,-5.5094,-5.5912,-5.7063,-5.8661,-5.8677,-5.8677,-5.8677,-5.8677,-5.8364,-5.7658,-5.7583,-5.7249,-5.6543,-5.6506,-5.6506,-5.6506,0.0,0.0,0.0,0.0,0.0,0.0,0.0,0.0,0.0,0.0,0.0,0.0,0.0,0.0,0.0,-6.0708,0.0,-6.1881,-6.1919,0.0,0.0,0.0,-6.2294,-6.314,-6.3195,-6.3517,-6.433,0.0,0.0,-6.4615,-6.4615,-6.4634,-6.4652,-6.4634,-6.4671,-6.4725,-6.4815,-6.4941,-6.4989,-6.5204,-6.5558,-6.6222,-6.6608,-6.7346,-6.8878,-6.9472,-6.9893,-7.0656,-7.0965,-7.1208,-7.1337,-7.2219,-7.2959,-7.308,-7.3769,-7.4511,-7.441,-7.4431,-7.4488,-7.4483,-7.4733,-7.5177,-7.3261,-7.2369,-7.0809,-6.8691,-6.6462,-6.6425,-6.6054,-6.5534,-6.5534,-6.5422,-6.5162,-6.4285,-6.3468,-6.271,-6.2502,-6.245,-6.2487,-6.3305,-6.3728,-6.401,-6.4828,-6.5422,-6.5794,-6.5608,-6.5534,-6.5422,-6.401,-6.2985,-6.2339,-5.9924,-5.8401,-5.7769,-5.6023,-5.45,-5.3274,-5.2828,-5.372,-5.5986,-5.6209,-5.7063,-5.8624,-5.8677,-5.8677,-5.8677,-5.8677,-5.8624,-5.8438,-5.8438,-5.8326,-5.8141,-5.8141,-5.812,-5.8141,-5.8141,0.0,0.0,0.0,0.0,0.0,0.0,0.0,0.0,0.0,-5.806,-5.8283,0.0,-6.0479,0.0,-6.1483,-6.2049,-6.2707,-6.2782,0.0,0.0,-6.3721,-6.3798,-6.4045,-6.4103,-6.4217,-6.4521,-6.4558,-6.4634,-6.4799,-6.4817,-6.4871,-6.5048,-6.4906,-6.4888,-6.5044,-6.5133,-6.5149,-6.522,-6.5721,-6.6281,-6.6666,-6.7822,-6.8876,-6.9418,-7.0088,-7.0721,-7.1139,-7.1236,-7.1345,-7.1559,-7.2337,-7.3204,-7.3892,-7.484,-7.5666,-7.6213,-7.5911,-7.5462,-7.5564,-7.6513,-7.7494,-7.5527,-7.4375,-7.3621,-7.2023,-6.9955,-6.9249,-6.8468,-6.7725,-6.7701,-6.7293,-6.6574,-6.5756,-6.5162,-6.4716,-6.4716,-6.4716,-6.4753,-6.5199,-6.5571,-6.5919,-6.6425,-6.6834,-6.7168,-6.7168,-6.6982,-6.6611,-6.5311,-6.4345,-6.3527,-6.141,-5.9961,-5.9218,-5.7992,-5.6729,-5.5466,-5.4648,-5.5094,-5.6803,-5.7175,-5.7806,-5.864,-5.8677,-5.8677,-5.8677,-5.8677,-5.8884,-5.9197,-5.9234,-5.9441,-5.9775,-5.9812,-5.9812,-5.9812,-5.9812,-5.9627,0.0,0.0,0.0,0.0,0.0,0.0,0.0,0.0,0.0,0.0,0.0,-6.1796,-6.2291,-6.2688,-6.3083,-6.3571,-6.3646,-6.3816,-6.4269,-6.4364,-6.4403,-6.4501,-6.4463,-6.4539,-6.4615,-6.4708,-6.4781,-6.4924,-6.5031,-6.5078,-6.5258,-6.5194,-6.5144,-6.521,-6.5296,-6.529,-6.5337,-6.5742,-6.646,-6.7266,-6.8925,-7.0099,-7.0272,-7.0709,-7.1106,-7.1269,-7.1366,-7.1465,-7.1684,-7.2723,-7.3775,-7.4382,-7.5503,-7.6558,-7.6844,-7.6773,-7.6468,-7.6475,-7.7223,-7.7928,-7.7486,-7.5925,-7.5081,-7.4264,-7.3473,-7.1886,-7.071,-6.9855,-6.9744,-6.8853,-6.7428,-6.6722,-6.6425,-6.6425,-6.6425,-6.6425,-6.6425,-6.6425,-6.6797,-6.7465,-6.7465,-6.7837,-6.8481,-6.8518,-6.8134,-6.7428,-6.6648,-6.5459,-6.3913,-6.3007,-6.1781,-6.0258,-5.9404,-5.8624,-5.7806,-5.71,-5.7026,-5.7509,-5.8289,-5.8677,-5.8677,-5.8677,-5.8735,-5.8846,-5.8846,-5.9255,-6.0014,-6.0072,-6.0407,-6.115,-6.1187,-6.1187,-6.1187,-6.1187,-6.1187,0.0,-6.1187,0.0,0.0,0.0,0.0,0.0,0.0,0.0,0.0,-6.1871,-6.2366,-6.3195,-6.3871,-6.4284,-6.4284,-6.4304,-6.4344,-6.4385,-6.4405,-6.4463,-6.4596,-6.4634,-6.4671,-6.4743,-6.4871,-6.4958,-6.504,-6.5144,-6.5274,-6.5413,-6.5444,-6.5429,-6.5383,-6.5413,-6.5435,-6.5509,-6.5771,-6.679,-6.8308,-6.9886,-7.0927,-7.1055,-7.1127,-7.1247,-7.1313,-7.1407,-7.1534,-7.1816,-7.3004,-7.4138,-7.4303,-7.5638,-7.6724,-7.686,-7.6868,-7.695,-7.7107,-7.7343,-7.7617,-7.8313,-7.679,-7.5936,-7.5081,-7.4301,-7.3335,-7.2072,-7.0598,-6.9967,-6.915,-6.8258,-6.8134,-6.8036,-6.806,-6.8036,-6.8036,-6.806,-6.8036,-6.811,-6.8283,-6.8283,-6.8357,-6.8481,-6.8518,-6.8407,-6.8246,-6.7465,-6.6574,-6.5608,-6.4122,-6.2896,-6.193,-6.115,-6.0295,-5.9478,0.0,0.0,0.0,-5.8289,-5.8677,-5.8677,-5.8677,-5.9032,-5.9643,-5.968,0.0,-6.089,-6.0964,-6.1038,-6.1187,-6.1187,0.0,0.0,0.0,0.0,0.0,0.0,0.0,0.0,0.0,0.0,0.0,-6.3572,-6.331,-6.2715,-6.3341,-6.3889,-6.4059,-6.4229,-6.4284,-6.4284,-6.4364,-6.4385,-6.4385,-6.452,-6.4577,-6.467,-6.4781,-6.4871,-6.492,-6.5061,-6.5177,-6.5305,-6.5368,-6.5429,-6.5537,-6.5552,-6.5608,-6.5703,-6.5622,-6.5566,-6.5656,-6.674,-6.818,-6.9424,-7.0413,-7.1081,-7.1178,-7.1236,-7.1313,-7.1406,-7.1511,-7.1614,-7.169,-7.2612,-7.3383,-7.3449,-7.433,-7.5374,-7.6004,-7.613,-7.6367,-7.707,-7.7734,-7.8281,-7.8759,0.0,-7.6344,-7.5564,0.0,-7.3919,-7.2927,-7.2072,-7.0821,-6.9633,-6.8518,-6.8518,-6.8518,-6.8518,-6.8518,-6.8518,-6.8518,-6.8518,-6.8518,-6.8518,-6.8518,-6.8518,-6.8518,-6.8518,-6.8518,-6.8444,-6.7664,-6.7094,-6.6611,-6.5013,-6.3788,-6.297,-6.219,-6.1373,-6.0593,-6.0555,-5.9738,-5.8103,-5.8512,-5.8884,-5.9271,-5.9292,-5.9701,-6.0518,0.0,0.0,0.0,0.0,0.0,0.0,0.0,0.0,0.0,0.0,0.0,-6.2376,-6.2413,-6.2606,-6.3146,-6.3248,-6.3483,-6.4063,-6.4145,-6.4016,-6.3603,-6.4039,-6.4284,-6.4304,-6.4344,-6.4364,-6.4364,-6.4424,-6.4501,-6.4558,-6.4596,-6.4689,-6.4833,-6.4886,-6.4993,-6.5095,-6.521,-6.5321,-6.5398,-6.545,-6.5552,-6.569,-6.5665,-6.5718,-6.5832,-6.5795,-6.5691,-6.5833,-6.7333,-6.8653,-6.9278,-7.0382,-7.1178,-7.1247,-7.1302,-7.1366,-7.1475,-7.1577,-7.163,-7.1743,-7.2468,-7.3115,-7.3263,-7.3945,-7.4715,-7.5107,-7.5271,-7.5351,-7.5898,-7.6953,-7.7851,-7.8945,-7.7942,-7.6419,-7.5713,-7.5453,-7.4004,-7.325,-7.2852,0.0,0.0,0.0,-6.8518,-6.8518,-6.8518,-6.8518,-6.8518,-6.8518,-6.8518,-6.8518,-6.8518,-6.8518,-6.8518,-6.8518,-6.8518,-6.8518,-6.8468,-6.7813,-6.7428,-6.7256,-6.5905,-6.4842,-6.4048,-6.3267,-6.2376,-6.1484,-6.1261,-6.0518,-5.9218,-5.9144,-5.942,-6.011,-6.0147,-6.0555,-6.141,-6.141,-6.1781,-6.2562,-6.2636,-6.2911,-6.3565,-6.3602,-6.3602,-6.3602,-6.3602,-6.3602,-6.3602,-6.3602,-6.3669,-6.3802,-6.3851,-6.3958,-6.4142,-6.4244,-6.4284,-6.4284,-6.4304,-6.4324,-6.4324,-6.4403,-6.4424,-6.4424,-6.4521,-6.4671,-6.4725,-6.4761,-6.4833,-6.5027,-6.5023,-6.5073,-6.521,-6.5352,-6.5405,-6.5488,-6.5566,-6.569,-6.5808,-6.5846,-6.5895,-6.5978,-6.5919,-6.5895,-6.6106,-6.7286,-6.8401,-6.8883,-6.9949,-7.0976,-7.1242,-7.1345,-7.1445,-7.1494,-7.1586,-7.1638,-7.1704,-7.2384,-7.2798,-7.2986,-7.3515,-7.4167,-7.4363,-7.4375,-7.4414,-7.4687,-7.5703,-7.6719,-7.8611,-7.7162,-7.6196,-7.5378,-7.4699,-7.3807,-7.2592,-7.1229,-7.1007,-6.9967,-6.8518,-6.8518,-6.8518,-6.8518,-6.8518,-6.8518,-6.8518,-6.8518,-6.8518,0.0,-6.8518,-6.8518,-6.8518,-6.8518,-6.8518,-6.8481,-6.8394,-6.7986,-6.733,-6.7057,-6.6537,-6.5719,-6.4902,-6.3691,-6.2301,-6.1558,-6.1076,-6.0853,-6.0853,-6.0927,-6.1038,-6.1001,-6.141,-6.219,-6.2227,-6.2636,-6.3416,-6.3416,-6.349,-6.3602,-6.3602,-6.3602,-6.3602,-6.3602,-6.3602,-6.3602,-6.3602,-6.3691,-6.3851,-6.3894,-6.4037,-6.4244,-6.4284,-6.4284,-6.4304,-6.4364,-6.4366,-6.4385,-6.452,-6.4577,-6.4577,-6.4633,-6.4725,-6.4853,-6.4941,-6.5006,-6.5144,-6.521,-6.5274,-6.5368,-6.5459,-6.5537,-6.5688,-6.5768,-6.582,-6.5933,-6.5993,-6.6013,-6.6058,-6.6024,-6.6013,-6.6185,-6.6902,-6.7851,-6.8668,-6.954,-7.0468,-7.1214,-7.1415,-7.1475,-7.1485,-7.1603,-7.1699,-7.1672,-7.1956,-7.2092,-7.2162,-7.2185,-7.2758,-7.3309,-7.3474,-7.3672,-7.4258,-7.4765,-7.5234,-7.8165,-7.704,-7.6186,-7.5341,-7.4524,-7.377,-7.2444,-7.0932,-7.0895,-7.0004,-6.8556,-6.8518,-6.8518,-6.8518,-6.8518,-6.8518,-6.8518,-6.8518,-6.8518,-6.8518,-6.8518,-6.8518,-6.8518,-6.8518,-6.8518,-6.8518,-6.8518,-6.832,-6.7948,-6.7516,-6.7131,-6.6722,-6.5942,-6.4902,-6.3728,-6.3342,-6.297,-6.2487,-6.167,-6.141,-6.1819,-6.1856,-6.2227,-6.3044,-6.3022,-6.323,-6.3602,-6.3602,-6.3602,-6.3602,-6.3602,-6.3602,-6.3602,-6.3602,-6.3602,-6.3602,-6.3602,-6.3691,-6.3894,-6.4021,-6.4183,-6.4284,-6.4284,-6.4304,-6.4364,-6.4366,-6.4424,-6.4482,-6.4615,-6.4633,-6.4652,-6.4779,-6.4886,-6.492,-6.5044,-6.5144,-6.5226,-6.5305,-6.5398,-6.5435,-6.5552,-6.5701,-6.5795,-6.5871,-6.5958,-6.604,-6.6108,-6.6112,-6.6144,-6.6123,-6.6112,-6.6221,-6.6917,-6.7778,-6.865,-6.9473,-7.0296,-7.1175,-7.1425,-7.1485,-7.1504,-7.1594,-7.1645,-7.1711,-7.1788,-7.1848,-7.1885,-7.1951,-7.2209,-7.2411,-7.2614,-7.2812,-7.3125,-7.3555,-7.418,-7.7682,-7.678,-7.6084,-7.523,-7.4264,-7.3696,-7.2518,-7.1255,-7.097,-7.0078,-6.8853,-6.8593,-6.8518,-6.8518,-6.8518,-6.8518,-6.8518,-6.8518,-6.8518,-6.8518,-6.8518,-6.8518,-6.8518,-6.8518,-6.8518,-6.8518,-6.8518,-6.8518,-6.8431,-6.7874,-6.7465,-6.728,-6.6685,-6.5979,-6.5125,-6.5102,-6.4716,-6.3862,-6.2636,-6.2227,-6.2673,-6.2673,-6.297,-6.3565,-6.3602,-6.3602,-6.3602,-6.3602,-6.3602,-6.3602,-6.3602,-6.3602,-6.3602,-6.3602,-6.3602,-6.3602,-6.3602,-6.3691,-6.3894,-6.4125,-6.4284,-6.4284,-6.4324,-6.4364,-6.4424,-6.4444,-6.4501,-6.4634,-6.4689,-6.4761,-6.4797,-6.4903,-6.5006,-6.504,-6.5144,-6.5242,-6.5337,-6.5398,-6.5488,-6.5576,-6.5688,-6.5781,-6.5871,-6.5946,-6.6029,-6.6102,-6.6165,-6.6185,-6.6185,-6.6185,-6.6185,-6.6301,-6.6804,-6.7462,-6.839,-6.9164,-6.9976,-7.0866,-7.1309,-7.1436,-7.1513,-7.1577,-7.163,-7.1704,-7.1737,-7.1838,-7.1889,-7.1951,-7.2016,-7.2098,-7.2106,-7.207,-7.2148,-7.2578,-7.3398,-7.7385,-7.601,-7.5824,-7.4896,-7.3584,-7.3435,-7.2852,-7.2023,-7.1255,-7.0412,-6.9521,-6.8816,-6.8518,-6.8518,-6.8518,-6.8518,-6.8518,-6.8518,-6.8518,-6.8518,-6.8518,-6.8518,-6.8518,-6.8518,-6.8518,-6.8518,-6.8518,-6.8518,-6.8481,-6.8407,-6.8023,-6.7367,-6.7219,-6.6797,-6.6091,-6.5979,-6.5571,-6.4693,-6.4508,-6.4136,-6.3527,-6.349,-6.3527,-6.3602,-6.3602,-6.3602,-6.3602,-6.3602,-6.3602,-6.3602,-6.3602,-6.3602,-6.3602,-6.3602,-6.3602,-6.3602,-6.3602,-6.3691,-6.3894,-6.4162,-6.4284,-6.4304,-6.4326,-6.4462,-6.4577,-6.4633,-6.4689,-6.4725,-6.4779,-6.4906,-6.4993,-6.4989,-6.5111,-6.5226,-6.5274,-6.5337,-6.5474,-6.5479,-6.5576,-6.5753,-6.5832,-6.5846,-6.5972,-6.6005,-6.6047,-6.6155,-6.6175,-6.6185,-6.6185,-6.6185,-6.6185,-6.6185,-6.634,-6.6727,-6.7578,-6.8352,-6.928,-7.0064,-7.0922,-7.1407,-7.1513,-7.1538,-7.163,-7.1665,-7.1776,-7.1833,-7.1893,-7.1948,-7.1978,-7.1982,-7.1992,-7.1992,-7.1992,-7.2109,-7.2773,-7.7338,-7.5824,-7.5787,-7.4858,-7.3484,-7.3372,-7.2952,-7.2209,-7.1812,-7.0958,-6.9744,-6.9335,-6.8989,-6.8518,-6.8518,-6.8518,-6.8518,-6.8518,-6.8518,-6.8518,-6.8518,-6.8518,-6.8518,-6.8518,-6.8518,-6.8518,-6.8518,-6.8518,-6.8518,-6.8518,-6.8296,-6.8036,-6.7999,-6.759,-6.6908,-6.6797,-6.6425,-6.5608,-6.5571,-6.5162,-6.4382,-6.3839,-6.3602,-6.3602,-6.3602,-6.3602,-6.3602,-6.3602,-6.3602,-6.3602,-6.3602,-6.3602,-6.3602,-6.3602,-6.3602,-6.3602,-6.3669,-6.378,-6.3894,-6.41,-6.4224,-6.4284,-6.4346,-6.4444,-6.4596,-6.4652,-6.4761,-6.4868,-6.492,-6.501,-6.5095,-6.5161,-6.521,-6.529,-6.5368,-6.5474,-6.5494,-6.604,-6.6277,-6.5947,-6.6282,-6.6448,-6.6121,-6.6058,-6.6134,-6.6175,-6.6224,-6.6301,-6.6224,-6.6185,-6.6185,-6.6185,-6.6185,-6.6572,-6.7346,-6.8236,-6.9048,-6.992,-7.0844,-7.1494,-7.1504,-7.1538,-7.163,-7.1665,-7.1737,-7.1833,-7.1885,-7.1948,-7.198,-7.1984,-7.1992,-7.1992,-7.1992,-7.1992,-7.2422,-7.731,-7.5861,-7.5341,-7.4487,-7.3435,-7.3372,-7.3064,-7.2544,-7.2321,-7.1478,-7.0437,-7.0115,-6.9707,-6.915,-6.8729,-6.8518,-6.8518,-6.8518,-6.8518,-6.8518,-6.8518,-6.8518,-6.8518,-6.8518,-6.8518,-6.8518,-6.8518,-6.8518,-6.8518,-6.8518,-6.8518,-6.8518,-6.8518,-6.8208,-6.7688,-6.7651,-6.7243,-6.6537,-6.6425,-6.6054,-6.5199,-6.4322,-6.3802,-6.3639,-6.3602,-6.3602,-6.3602,-6.3602,-6.3602,-6.3602,-6.3602,-6.3602,-6.3602,-6.3602,-6.3602,-6.3602,-6.3736,-6.383,-6.3894,-6.4079,-6.4224,-6.4324,-6.4385,-6.452,-6.4596,-6.4725,-6.4868,-6.5044,-6.504,-6.5144,-6.5232,-6.5274,-6.5436,-6.5658,-6.5794,-6.5959,-6.6294,-6.6981,-6.7151,-6.6705,-6.7205,-6.7369,-6.6912,-6.6896,-6.7036,-6.7036,-6.6998,-6.692,-6.692,-6.6959,-6.6959,-6.692,-6.692,-6.6959,-6.723,-6.8119,-6.897,-6.9688,-7.0573,-7.1494,-7.1504,-7.1538,-7.163,-7.1665,-7.1737,-7.1799,-7.1889,-7.1948,-7.1982,-7.1987,-7.1992,-7.1992,-7.1992,-7.1992,-7.1992,-7.731,-7.5676,-7.4179,-7.3521,-7.3372,-7.3372,-7.3372,-7.3212,-7.2581,-7.2135,-7.1875,-7.1218,-7.0821,-7.0598,-6.9249,-6.8543,-6.8518,-6.8556,-6.8556,-6.8518,-6.8518,-6.8518,-6.8518,-6.8518,-6.8518,-6.8518,-6.8518,-6.8518,-6.8518,-6.8518,-6.8518,-6.8518,-6.8518,-6.8506,-6.837,-6.837,-6.7999,-6.7354,-6.7256,-6.6871,-6.6054,-6.5176,-6.4433,-6.375,-6.3602,-6.3602,-6.3602,-6.3602,-6.3602,-6.3602,-6.3602,-6.3602,-6.3602,-6.3602,-6.3602,-6.3624,-6.3802,-6.3894,-6.3915,-6.4142,-6.4324,-6.4385,-6.452,-6.4634,-6.4707,-6.485,-6.5006,-6.5161,-6.5302,-6.5388,-6.5404,-6.552,-6.5826,-6.6536,-6.6778,-6.7208,-6.7969,-6.8098,-6.8294,-6.8232,-6.8243,-6.8304,-6.8447,-6.8629,-6.8496,-6.8468,-6.8584,-6.8545,-6.8429,-6.8506,-6.8506,-6.8468,-6.839,-6.8119,-6.6882,-6.7926,-6.8816,-6.9417,-7.0524,-7.1494,-7.1532,-7.1538,-7.1622,-7.1665,-7.1737,-7.1799,-7.1893,-7.1945,-7.1981,-7.1992,-7.1992,-7.1992,-7.1992,-7.1992,-7.1992,-7.731,-7.5713,-7.4625,-7.3855,-7.3435,-7.3372,-7.3372,-7.3372,-7.3101,-7.2655,-7.2209,-7.1849,-7.1441,-7.0858,-7.0301,-6.9744,-6.9261,-6.9261,-6.9001,-6.8556,-6.8518,-6.8518,-6.8518,-6.8518,-6.8518,-6.8518,-6.8518,-6.8518,-6.8518,-6.8518,-6.8518,-6.8518,-6.8518,-6.8518,-6.8518,-6.8518,-6.8357,-6.8073,-6.8036,-6.7688,-6.6945,-6.6574,-6.5794,-6.4433,-6.3862,-6.3602,-6.3602,-6.3602,-6.3602,-6.3602,-6.3602,-6.3602,-6.3602,-6.3602,-6.3602,-6.3602,-6.3736,-6.3867,-6.3894,-6.41,-6.4227,-6.4385,-6.4539,-6.4671,-6.4817,-6.492,-6.5057,-6.5302,-6.5893,-6.62,-6.6246,-6.6277,-6.6436,-6.6869,-6.7438,-6.7931,-6.8304,-6.8833,-6.9066,-6.8667,-6.8574,-6.8668,-6.8839,-6.8805,-6.8777,-6.8777,-6.8816,-6.8854,-6.8816,-6.8816,-6.8893,-6.8816,-6.8766,-6.8622,-6.8119,-6.8777,-6.9639,-6.992,-7.0581,-7.1223,-7.1494,-7.155,-7.1628,-7.1697,-7.1737,-7.1809,-7.1901,-7.1951,-7.1992,-7.1992,-7.1992,-7.1992,-7.1992,-7.1992,-7.1992,-7.7087,-7.575,-7.4933,-7.4115,-7.341,-7.3372,-7.3372,-7.3372,-7.3372,-7.3101,-7.2655,-7.2618,-7.2221,-7.1775,-7.1701,-7.1255,-7.0512,-7.0252,-6.967,-6.8927,-6.889,-6.8741,-6.8518,-6.8518,-6.8518,-6.8518,-6.8518,-6.8518,-6.8518,-6.8518,-6.8518,-6.8518,-6.8518,-6.8518,-6.8518,-6.8518,-6.8518,-6.8518,-6.8518,-6.8184,-6.7701,-6.7428,-6.6797,-6.5645,-6.4568,-6.3862,-6.3639,-6.3602,-6.3602,-6.3602,-6.3602,-6.3602,-6.3602,-6.3602,-6.3602,-6.3669,-6.3758,-6.3888,-6.3958,-6.4104,-6.4267,-6.4444,-6.4615,-6.4763,-6.4924,-6.5272,-6.552,-6.5878,-6.6598,-6.7187,-6.7314,-6.752,-6.7702,-6.7836,-6.8381,-6.891,-6.9179,-6.981,-6.9887,-6.9628,-6.9594,-6.9623,-6.9579,-6.9628,-6.9667,-6.9589,-6.9589,-6.9589,-6.9589,-6.9589,-6.9628,-6.9628,-6.9705,-6.9744,-6.9589,-7.0092,-7.0054,-7.023,-7.0676,-7.1231,-7.1485,-7.1571,-7.1611,-7.169,-7.1743,-7.1853,-7.1916,-7.1961,-7.1992,-7.1992,-7.1992,-7.1992,-7.1992,-7.1992,-7.1992,-7.6642,-7.5787,-7.4933,-7.4227,-7.3584,-7.3435,-7.3372,-7.3372,-7.3372,-7.3335,-7.325,-7.3298,-7.3187,-7.3261,-7.3075,-7.2878,-7.2035,-7.1366,-7.0561,-6.9744,-6.9633,-6.9224,-6.863,-6.8518,-6.8518,-6.8518,-6.8518,-6.8518,-6.8518,-6.8518,-6.8518,-6.8518,-6.8518,-6.8518,-6.8518,-6.8518,-6.8518,-6.8518,-6.8518,-6.8468,-6.8407,-6.7763,-6.7317,-6.702,-6.5696,-6.4531,-6.3713,-6.3639,-6.3602,-6.3602,-6.3602,-6.3602,-6.3602,-6.3602,-6.3647,-6.3758,-6.3867,-6.3958,-6.4121,-6.4342,-6.4575,-6.4766,-6.4895,-6.5209,-6.5462,-6.6031,-6.6542,-6.6789,-6.7531,-6.8172,-6.8363,-6.8943,-6.9365,-6.9533,-6.9604,-7.0054,-7.0619,-7.0979,-7.1091,-7.0996,-7.0988,-7.1214,-7.1214,-7.1021,-7.0943,-7.0943,-7.0982,-7.0943,-7.0905,-7.0866,-7.1137,-7.1137,-7.0866,-7.0672,-7.0943,-7.1214,-7.0711,-7.0412,-7.0909,-7.1415,-7.1475,-7.1523,-7.1611,-7.1683,-7.18,-7.1872,-7.1943,-7.1975,-7.1985,-7.1992,-7.1992,-7.1992,-7.1992,-7.1992,-7.1992,-7.7422,-7.6604,-7.5787,-7.497,-7.4216,-7.3632,-7.3372,-7.3372,-7.3372,-7.3372,-7.3372,-7.3372,-7.3372,-7.3372,-7.3372,-7.3287,-7.3001,-7.2666,-7.1886,-7.066,-6.9967,-6.962,-6.9261,-6.8766,-6.8518,-6.8518,-6.8518,-6.8518,-6.8518,-6.8518,-6.8518,-6.8518,-6.8518,-6.8518,-6.8518,-6.8518,-6.8518,-6.8518,-6.8518,-6.8518,-6.8481,-6.8258,-6.7874,-6.7293,-6.676,-6.5905,-6.4508,-6.3899,-6.3639,-6.3602,-6.3602,-6.3602,-6.3602,-6.3669,-6.3736,-6.3802,-6.3953,-6.4083,-6.4319,-6.4948,-6.5388,-6.5709,-6.6235,-6.6681,-6.6907,-6.7229,-6.7515,-6.7722,-6.8531,-6.9131,-6.925,-6.9962,-7.0271,-6.9823,-7.0247,-7.0684,-7.1004,-7.113,-7.1201,-7.1258,-7.128,-7.1291,-7.1291,-7.1291,-7.1291,-7.1291,-7.1291,-7.1291,-7.1291,-7.1291,-7.1291,-7.1291,-7.1291,-7.1291,-7.1291,-7.1291,-7.1021,-7.075,-7.1092,-7.1415,-7.1475,-7.1513,-7.1573,-7.1697,-7.1806,-7.1889,-7.1956,-7.198,-7.1987,-7.1991,-7.1992,-7.1992,-7.1992,-7.1992,-7.1992,-7.783,-7.7078,-7.6493,-7.5601,-7.4598,-7.4004,-7.3658,-7.341,-7.3372,-7.3372,-7.3372,-7.3372,-7.3372,-7.3372,-7.3372,-7.3372,-7.3372,-7.3372,-7.2815,-7.1812,-7.0995,-7.0363,-6.9732,-6.889,-6.8518,-6.8518,-6.8518,-6.8518,-6.8518,-6.8518,-6.8518,-6.8518,-6.8518,-6.8518,-6.8518,-6.8518,-6.8518,-6.8518,-6.8518,-6.8518,-6.8518,-6.8518,-6.8283,-6.7776,-6.7465,-6.6797,-6.5733,-6.4679,-6.3899,-6.3676,-6.3602,-6.3602,-6.3669,-6.3773,-6.3823,-6.3969,-6.4341,-6.4694,-6.4928,-6.5821,-6.639,-6.6652,-6.7195,-6.7601,-6.7861,-6.8088,-6.8487,-6.8761,-6.9501,-7.0032,-7.0151,-7.0541,-7.0735,-7.0388,-7.0721,-7.1067,-7.1166,-7.1213,-7.1247,-7.128,-7.1291,-7.1291,-7.1291,-7.1291,-7.1291,-7.1291,-7.1291,-7.1291,-7.1291,-7.1291,-7.1291,-7.1291,-7.1291,-7.1291,-7.1291,-7.1291,-7.1291,-7.1214,-7.1225,-7.1405,-7.1475,-7.1494,-7.1559,-7.1711,-7.1827,-7.1893,-7.1993,-7.1973,-7.1984,-7.199,-7.1992,-7.1992,-7.1992,-7.1992,-7.1992,-7.783,-7.7162,-7.7115,-7.6196,-7.4896,-7.4736,-7.4253,-7.3584,-7.3521,-7.3484,-7.3435,-7.3372,-7.3372,-7.3372,-7.3372,-7.3372,-7.3372,-7.3372,-7.3335,-7.3038,-7.2406,-7.1366,-6.9806,-6.9001,-6.8667,-6.8518,-6.8518,-6.8518,-6.8518,-6.8518,-6.8518,-6.8518,-6.8518,-6.8518,-6.8518,-6.8518,-6.8518,-6.8518,-6.8518,-6.8518,-6.8518,-6.8518,-6.8481,-6.8431,-6.78,-6.7354,-6.6884,-6.5659,-6.4493,-6.375,-6.3602,-6.3669,-6.3758,-6.3839,-6.4097,-6.4325,-6.5069,-6.5587,-6.597,-6.6787,-6.7466,-6.7538,-6.7901,-6.797,-6.8356,-6.8985,-6.9436,-6.963,-7.0287,-7.0752,-7.0821,-7.094,-7.1005,-7.1106,-7.1127,-7.1224,-7.128,-7.1291,-7.1291,-7.1291,-7.1291,-7.1291,-7.1291,-7.1291,-7.1291,-7.1291,-7.1291,-7.1291,-7.1291,-7.1291,-7.1291,-7.1291,-7.1291,-7.1291,-7.1291,-7.1291,-7.1291,-7.1291,-7.1302,-7.1394,-7.1494,-7.1523,-7.1538,-7.1718,-7.1877,-7.194,-7.1979,-7.1965,-7.1981,-7.1989,-7.1992,-7.1992,-7.1992,-7.1992,-7.1992,-7.8192,-7.7905,-7.7375,-7.6855,-7.6371,-7.5787,-7.5007,-7.4338,-7.4264,-7.3892,-7.3547,-7.3372,-7.3372,-7.3372,-7.3372,-7.3372,-7.3372,-7.3372,-7.3372,-7.3398,-7.3224,-7.1775,-7.0041,-6.9484,-6.9063,-6.8593,-6.8518,-6.8518,-6.8518,-6.8518,-6.8518,-6.8518,-6.8518,-6.8518,-6.8518,-6.8518,-6.8518,-6.8518,-6.8518,-6.8518,-6.8518,-6.8518,-6.8518,-6.8481,-6.8283,-6.7874,-6.7317,-6.6314,-6.5051,-6.375,-6.3691,-6.3736,-6.3951,-6.455,-6.4999,-6.5257,-6.5981,-6.665,-6.7052,-6.7808,-6.8353,-6.868,-6.9196,-6.9769,-6.9887,-7.0194,-7.0436,-7.0532,-7.0766,-7.0898,-7.0965,-7.103,-7.1118,-7.1224,-7.1258,-7.1269,-7.1291,-7.1291,-7.1291,-7.1291,-7.1291,-7.1291,-7.1291,-7.1291,-7.1291,-7.1291,-7.1291,-7.1291,-7.1291,-7.1291,-7.1291,-7.1291,-7.1291,-7.1291,-7.1291,-7.1291,-7.1291,-7.1291,-7.1313,-7.1345,-7.1504,-7.1603,-7.163,-7.1699,-7.1833,-7.1936,-7.1933,-7.1961,-7.1977,-7.1988,-7.1992,-7.1992,-7.1992,-7.1992,-7.1992,-7.8304,-7.8239,-7.7821,-7.7412,-7.7078,-7.6557,-7.5861,-7.5118,-7.471,-7.4338,-7.3892,-7.3547,-7.3372,-7.3372,-7.3372,-7.3372,-7.3372,-7.3372,-7.3372,-7.3372,-7.3372,-7.2369,-7.0958,-7.0177,-6.9447,-6.9026,-6.863,-6.8518,-6.8518,-6.8518,-6.8518,-6.8518,-6.8518,-6.8518,-6.8518,-6.8518,-6.8518,-6.8518,-6.8518,-6.8518,-6.8518,-6.8518,-6.8518,-6.8518,-6.8481,-6.8134,-6.7354,-6.6834,-6.5966,-6.5008,-6.4778,-6.4867,-6.5036,-6.556,-6.6028,-6.6131,-6.7027,-6.7713,-6.8016,-6.8789,-6.9368,-6.9671,-7.0228,-7.0493,-7.0624,-7.0782,-7.0801,-7.0843,-7.0871,-7.0925,-7.1005,-7.1081,-7.119,-7.1269,-7.1291,-7.1291,-7.1291,-7.1291,-7.1291,-7.1291,-7.1291,-7.1291,-7.1291,-7.1291,-7.1291,-7.1291,-7.1291,-7.1291,-7.1291,-7.1291,-7.1291,-7.1291,-7.1291,-7.1291,-7.1291,-7.1291,-7.1291,-7.1291,-7.1324,-7.1405,-7.1504,-7.1589,-7.1668,-7.1732,-7.1827,-7.1889,-7.1924,-7.1953,-7.1977,-7.1987,-7.1991,-7.1992,-7.1992,-7.1992,-7.1992,-7.8304,-7.8304,-7.8304,-7.7868,-7.7338,-7.7199,-7.6716,-7.5899,-7.5331,-7.4896,-7.4588,-7.3919,-7.3658,-7.3521,-7.3484,-7.3372,-7.3372,-7.3372,-7.3372,-7.3372,-7.3361,-7.2878,-7.2135,-7.0623,-6.9855,-6.9484,-6.8853,-6.8556,-6.8518,-6.8518,-6.8518,-6.8518,-6.8518,-6.8518,-6.8518,-6.8518,-6.8518,-6.8518,-6.8518,-6.8518,-6.8518,-6.8518,-6.8518,-6.8518,-6.8518,-6.8208,-6.7725,-6.7391,-6.7104,-6.6499,-6.6336,-6.6187,-6.6459,-6.6699,-6.6958,-6.7251,-6.8053,-6.8754,-6.8923,-6.967,-7.0281,-7.0342,-7.0477,-7.0662,-7.0743,-7.0801,-7.0829,-7.0885,-7.0898,-7.0965,-7.1043,-7.1154,-7.1224,-7.128,-7.1291,-7.1291,-7.1291,-7.1291,-7.1291,-7.1291,-7.1291,-7.1291,-7.1291,-7.1291,-7.1291,-7.1291,-7.1291,-7.1291,-7.1291,-7.1291,-7.1291,-7.1291,-7.1291,-7.1291,-7.1291,-7.1291,-7.1291,-7.1291,-7.1384,-7.1425,-7.1494,-7.1603,-7.1645,-7.1732,-7.1817,-7.1867,-7.1897,-7.194,-7.1973,-7.1985,-7.199,-7.1992,-7.1992,-7.1992,-7.1992,-7.8304,-7.8304,-7.8304,-7.8202,-7.8053,-7.8016,-7.757,-7.6817,-7.6604,-7.6074,-7.5453,-7.4673,-7.4375,-7.4327,-7.3807,-7.3372,-7.3521,-7.3484,-7.3372,-7.3372,-7.3372,-7.3361,-7.2778,-7.1403,-7.0338,-6.9707,-6.889,-6.8518,-6.8518,-6.8518,-6.8518,-6.8518,-6.8518,-6.8518,-6.8518,-6.8518,-6.8518,-6.8518,-6.8518,-6.8518,-6.8518,-6.8518,-6.8518,-6.8518,-6.8518,-6.8444,-6.8296,-6.8221,-6.8267,-6.7985,-6.7195,-6.6627,-6.6877,-6.7518,-6.7967,-6.8297,-6.902,-6.97,-6.9936,-7.015,-7.0419,-7.0554,-7.0639,-7.0758,-7.0787,-7.0843,-7.0871,-7.0912,-7.0952,-7.103,-7.1142,-7.1224,-7.1269,-7.1291,-7.1291,-7.1291,-7.1291,-7.1291,-7.1291,-7.1291,-7.1291,-7.1291,-7.1291,-7.1291,-7.1291,-7.1291,-7.1291,-7.1291,-7.1291,-7.1291,-7.1291,-7.1291,-7.1291,-7.1291,-7.1291,-7.1291,-7.1291,-7.1291,-7.1373,-7.1435,-7.1494,-7.1559,-7.1614,-7.1711,-7.1844,-7.1848,-7.1885,-7.1945,-7.1981,-7.1986,-7.1992,-7.1992,-7.1992,-7.1992,-7.1992,-7.8304,-7.8304,-7.8304,-7.8304,-7.8304,-7.8304,-7.8053,-7.7608,-7.7236,-7.6855,-7.6307,-7.5527,-7.5156,-7.5118,-7.4747,-7.4561,-7.4439,-7.4078,-7.3733,-7.351,-7.3372,-7.3372,-7.3212,-7.2146,-7.1069,-7.0289,-6.9447,-6.8927,-6.8593,-6.8518,-6.8518,-6.8518,-6.8518,-6.8518,-6.8518,-6.8518,-6.8518,-6.8518,-6.8518,-6.8518,-6.8518,-6.8518,-6.8518,-6.8518,-6.8518,-6.8518,-6.8481,-6.8481,-6.8626,-6.8605,-6.8062,-6.765,-6.7905,-6.847,-6.888,-6.9228,-6.9625,-7.0093,-7.0302,-7.0419,-7.0569,-7.0693,-7.0743,-7.0801,-7.0829,-7.0885,-7.0912,-7.0939,-7.0992,-7.1056,-7.119,-7.1258,-7.1291,-7.1291,-7.1291,-7.1291,-7.1291,-7.1291,-7.1291,-7.1291,-7.1291,-7.1291,-7.1291,-7.1291,-7.1291,-7.1291,-7.1291,-7.1291,-7.1291,-7.1291,-7.1291,-7.1291,-7.1291,-7.1291,-7.1291,-7.1291,-7.1291,-7.1291,-7.1313,-7.1415,-7.1485,-7.1511,-7.1573,-7.1651,-7.1755,-7.1848,-7.1893,-7.1953,-7.1902,-7.1984,-7.1953,-7.1992,-7.1992,-7.1992,-7.1992,-7.8304,-7.8304,-7.8304,-7.8304,-7.8304,-7.8304,-7.8304,-7.8192,-7.7598,-7.7375,-7.7087,-7.6344,-7.601,-7.5936,-7.575,-7.575,-7.5527,-7.4922,-7.4179,-7.377,-7.3473,-7.341,-7.3212,-7.2655,-7.1923,-7.1106,-7.0264,-6.9546,-6.8951,-6.8691,-6.8704,-6.8556,-6.8518,-6.8518,-6.8518,-6.8518,-6.8518,-6.8518,-6.8518,-6.8518,-6.8518,-6.8518,-6.8518,-6.8518,-6.8518,-6.8518,-6.8543,-6.8567,-6.8626,-6.8898,-6.8921,-6.9109,-6.9369,-6.9556,-6.9697,-6.9873,-7.0076,-7.0268,-7.0419,-7.0569,-7.0693,-7.0787,-7.0801,-7.0843,-7.0885,-7.0898,-7.0939,-7.0979,-7.103,-7.1106,-7.1213,-7.1269,-7.1291,-7.1291,-7.1291,-7.1291,-7.1291,-7.1291,-7.1291,-7.1291,-7.1291,-7.1291,-7.1291,-7.1291,-7.1291,-7.1291,-7.1291,-7.1291,-7.1291,-7.1291,-7.1291,-7.1291,-7.1291,-7.1291,-7.1291,-7.1291,-7.1291,-7.1291,-7.1302,-7.1405,-7.1465,-7.1513,-7.1556,-7.1566,-7.1659,-7.1638,-7.1429,-7.1173,-7.1272,-7.1669,-7.1758,-7.1601,-7.1719,-7.1953,-7.1992,-7.8304,-7.8304,-7.8304,-7.8304,-7.8304,-7.8304,-7.8304,-7.8276,-7.8128,-7.8118,-7.7942,-7.7263,-7.6865,-7.6716,-7.6084,-7.5861,-7.575,-7.5145,-7.4588,-7.419,-7.3744,-7.3372,-7.3324,-7.3175,-7.2666,-7.1961,-7.118,-7.04,-6.967,-6.9484,-6.9224,-6.8704,-6.863,-6.863,-6.8704,-6.8518,-6.863,-6.863,-6.8556,-6.8518,-6.8518,-6.8518,-6.8518,-6.8518,-6.8518,-6.8518,-6.853,-6.8602,-6.8721,-6.8898,-6.8975,-6.9219,-6.9495,-6.9657,-6.9796,-6.9984,-7.0217,-7.0386,-7.0554,-7.0693,-7.0782,-7.0801,-7.0843,-7.0871,-7.0898,-7.0898,-7.0939,-7.1018,-7.1106,-7.1201,-7.1269,-7.1291,-7.1291,-7.1291,-7.1291,-7.1291,-7.1291,-7.1291,-7.1291,-7.1291,-7.1291,-7.1291,-7.1291,-7.1291,-7.1291,-7.1291,-7.1291,-7.1291,-7.1291,-7.1291,-7.1291,-7.1291,-7.1291,-7.1291,-7.1291,-7.1291,-7.1291,-7.1291,-7.1302,-7.1394,-7.1445,-7.1485,-7.1538,-7.1403,-7.1147,-7.0892,-7.0649,-7.0392,-7.0489,-7.077,-7.0976,-7.1172,-7.1484,-7.1758,-7.1992,-7.7905,-7.8304,-7.8304,-7.8304,-7.8304,-7.8304,-7.8304,-7.8304,-7.8304,-7.8304,-7.8202,-7.7905,-7.7719,-7.757,-7.731,-7.6902,-7.6334,-7.5601,-7.5007,-7.4524,-7.3781,-7.3372,-7.3372,-7.3372,-7.3212,-7.2804,-7.2332,-7.1478,-7.045,-7.0301,-7.0041,-6.9893,-6.9744,-6.9744,-6.9595,-6.9335,-6.915,-6.9076,-6.8778,-6.8518,-6.8518,-6.8518,-6.8518,-6.8518,-6.8518,-6.8518,-6.8506,-6.8626,-6.8744,-6.8884,-6.9005,-6.9268,-6.9519,-6.9758,-6.9929,-7.0093,-7.0302,-7.0483,-7.0632,-7.0767,-7.0839,-7.0843,-7.0885,-7.0898,-7.0898,-7.0912,-7.0952,-7.1056,-7.1178,-7.1258,-7.1291,-7.1291,-7.1291,-7.1291,-7.1291,-7.1291,-7.1291,-7.1291,-7.1291,-7.1291,-7.1291,-7.1291,-7.1291,-7.1291,-7.1291,-7.1291,-7.1291,-7.1291,-7.1291,-7.1291,-7.1291,-7.1291,-7.1291,-7.1291,-7.1291,-7.1291,-7.1291,-7.1291,-7.1302,-7.1394,-7.1368,-7.1407,-7.1206,-7.099,-7.0674,-7.0136,-6.9978,-6.972,-6.982,-6.9951,-7.043,-7.082,-7.125,-7.1562,-7.1836,-7.7598,-7.8304,-7.8304,-7.8304,-7.8304,-7.8304,-7.8304,-7.8304,-7.8304,-7.8304,-7.8304,-7.8304,-7.8239,-7.8304,-7.8192,-7.7821,-7.7078,-7.6159,-7.5341,-7.4561,-7.3781,-7.3372,-7.3372,-7.3372,-7.3361,-7.3287,-7.3187,-7.2629,-7.1441,-7.118,-7.1044,-7.0747,-7.0821,-7.0895,-7.0635,-7.0152,-6.9967,-6.9744,-6.9373,-6.8964,-6.8741,-6.8593,-6.8518,-6.8518,-6.8518,-6.8506,-6.8554,-6.8711,-6.8791,-6.8952,-6.9116,-6.9353,-6.9617,-6.9854,-7.0058,-7.0199,-7.0369,-7.0531,-7.0654,-7.0772,-7.0843,-7.0885,-7.0898,-7.0898,-7.0912,-7.0939,-7.1005,-7.1118,-7.1224,-7.1291,-7.1291,-7.1291,-7.1291,-7.1291,-7.1291,-7.1291,-7.1291,-7.1291,-7.1291,-7.1291,-7.1291,-7.1291,-7.1291,-7.1291,-7.1291,-7.1291,-7.1291,-7.1291,-7.1291,-7.1291,-7.1291,-7.1291,-7.1291,-7.1291,-7.1291,-7.1291,-7.1291,-7.1291,-7.1302,-7.1373,-7.1319,-7.1262,-7.0921,-7.0399,-6.9779,-6.929,-6.9185,-6.897,-6.8841,-6.9053,-6.9881,-7.0508,-7.0937,-7.1484,-7.1914,-7.7598,-7.8304,-7.8304,-7.8304,-7.8304,-7.8304,-7.8304,-7.8304,-7.8304,-7.8304,-7.8304,-7.8304,-7.8304,-7.8304,-7.8304,-7.7858,-7.7078,-7.6196,-7.5341,-7.4561,-7.3781,-7.3372,-7.3372,-7.3372,-7.3372,-7.3372,-7.3372,-7.2915,-7.2221,-7.2035,-7.1663,-7.1229,-7.1155,-7.097,-7.1229,-7.0932,-7.0784,-7.0747,-7.0598,-7.019,-6.9484,-6.8914,-6.8654,-6.8543,-6.853,-6.8554,-6.8674,-6.8791,-6.8907,-6.9005,-6.9225,-6.9457,-6.9679,-6.9891,-7.0129,-7.0353,-7.0531,-7.0693,-7.0699,-7.0801,-7.0871,-7.0898,-7.0898,-7.0898,-7.0925,-7.1005,-7.1093,-7.119,-7.1258,-7.1291,-7.1291,-7.1291,-7.1291,-7.1291,-7.1291,-7.1291,-7.1291,-7.1291,-7.1291,-7.1291,-7.1291,-7.1291,-7.1291,-7.1291,-7.1291,-7.1291,-7.1291,-7.1291,-7.1291,-7.1291,-7.1291,-7.1291,-7.1291,-7.1291,-7.1291,-7.1291,-7.1291,-7.1291,-7.1302,-7.1334,-7.128,-7.1048,-7.0205,-6.967,-6.9013,-6.8505,-6.8284,-6.803,-6.7787,-6.8272,-6.9178,-6.9961,-7.0625,-7.125,-7.1953,-7.6827,-7.7672,-7.809,-7.8304,-7.8304,-7.8304,-7.8304,-7.8304,-7.8304,-7.8304,-7.8304,-7.8304,-7.8304,-7.8304,-7.8304,-7.7858,-7.7013,-7.6121,-7.5341,-7.4561,-7.3781,-7.341,-7.3372,-7.3372,-7.3372,-7.3372,-7.3372,-7.3324,-7.2889,-7.2841,-7.2592,-7.2332,-7.2258,-7.2406,-7.2109,-7.1812,-7.1701,-7.1515,-7.1143,-7.0487,-6.9843,-6.9409,-6.9049,-6.8639,-6.8711,-6.8744,-6.8814,-6.8907,-6.9005,-6.9138,-6.9353,-6.9617,-6.9815,-7.0022,-7.0199,-7.0386,-7.0578,-7.0684,-7.0743,-7.0843,-7.0885,-7.0898,-7.0898,-7.0912,-7.0965,-7.1043,-7.113,-7.1201,-7.1258,-7.1291,-7.1291,-7.1291,-7.1291,-7.1291,-7.1291,-7.1291,-7.1291,-7.1291,-7.1291,-7.1291,-7.1291,-7.1291,-7.1291,-7.1291,-7.1291,-7.1291,-7.1291,-7.1291,-7.1291,-7.1291,-7.1291,-7.1291,-7.1291,-7.1291,-7.1291,-7.1291,-7.1291,-7.1291,-7.1291,-7.1296,-7.1261,-7.0834,-6.9942,-6.9196,-6.8631,-6.8088,-6.7551,-6.7361,-6.7314,-6.7879,-6.8553,-6.9453,-7.039,-7.1406,-7.2226,-7.601,-7.6827,-7.7868,-7.8304,-7.8304,-7.8304,-7.8304,-7.8304,-7.8304,-7.8304,-7.8304,-7.8304,-7.8304,-7.823,-7.8044,-7.7459,-7.6716,-7.5861,-7.5044,-7.4301,-7.3744,-7.3447,-7.3372,-7.3372,-7.3372,-7.3372,-7.3372,-7.3335,-7.3372,-7.3361,-7.3324,-7.3372,-7.3112,-7.3287,-7.3212,-7.2841,-7.2506,-7.2432,-7.1751,-7.1082,-7.0549,-7.0089,-6.9615,-6.9215,-6.8964,-6.8907,-6.8975,-6.9005,-6.9138,-6.931,-6.9519,-6.9756,-6.9929,-7.0149,-7.0319,-7.0483,-7.0654,-7.0743,-7.0801,-7.0871,-7.0885,-7.0898,-7.0912,-7.0939,-7.1018,-7.1081,-7.1142,-7.1224,-7.1269,-7.1291,-7.1291,-7.1291,-7.1291,-7.1291,-7.1291,-7.1291,-7.133,-7.1446,-7.1407,-7.1291,-7.1291,-7.1291,-7.1291,-7.1291,-7.1291,-7.1291,-7.1291,-7.1291,-7.1291,-7.1291,-7.1291,-7.1291,-7.1291,-7.1291,-7.1291,-7.1291,-7.1291,-7.1291,-7.1291,-7.1296,-7.13,-7.0592,-6.9606,-6.894,-6.8358,-6.7665,-6.7079,-6.6964,-6.6956,-6.7798,-6.8629,-6.9335,-7.0195,-7.1328,-7.2538,-7.5156,-7.601,-7.7608,-7.8304,-7.8304,-7.8304,-7.8304,-7.8304,-7.8304,-7.8304,-7.8304,-7.8304,-7.8276,-7.8118,-7.7523,-7.6817,-7.5861,-7.5044,-7.4338,-7.3781,-7.3435,-7.3398,-7.3372,-7.3372,-7.3372,-7.3372,-7.3372,-7.3372,-7.3372,-7.3372,-7.3372,-7.3372,-7.3372,-7.3372,-7.3361,-7.3212,-7.3138,-7.3052,-7.2571,-7.2212,-7.1628,-7.0992,-7.0154,-6.9855,-6.9355,-6.8975,-6.9181,-6.9225,-6.9332,-6.9556,-6.9756,-6.9929,-7.0058,-7.0234,-7.0435,-7.0609,-7.0906,-7.1031,-7.1088,-7.0962,-7.0898,-7.0898,-7.0912,-7.0952,-7.1068,-7.1132,-7.1205,-7.1452,-7.1667,-7.164,-7.1523,-7.133,-7.1717,-7.1833,-7.1988,-7.1949,-7.1949,-7.1794,-7.1717,-7.1407,-7.1369,-7.1485,-7.1291,-7.1291,-7.1291,-7.1291,-7.1291,-7.1291,-7.1291,-7.1291,-7.1291,-7.1291,-7.1291,-7.1291,-7.1291,-7.1291,-7.1291,-7.1291,-7.1291,-7.1355,-7.1436,-7.0475,-6.927,-6.8761,-6.8183,-6.7403,-6.6871,-6.7067,-6.7375,-6.8029,-6.8745,-6.953,-7.0508,-7.1679,-7.2927,-7.4784,-7.523,-7.6827,-7.783,-7.8304,-7.8304,-7.8304,-7.8304,-7.8304,-7.8304,-7.8304,-7.8304,-7.8016,-7.757,-7.7236,-7.6334,-7.5156,-7.4784,-7.4104,-7.3658,-7.3398,-7.3372,-7.3372,-7.3372,-7.3372,-7.3372,-7.3372,-7.3372,-7.3372,-7.3372,-7.3372,-7.3372,-7.3372,-7.3372,-7.3372,-7.3398,-7.3424,-7.3464,-7.3254,-7.2969,-7.2459,-7.2107,-7.1266,-7.0271,-7.021,-6.9697,-6.9529,-6.9498,-6.96,-6.9776,-6.9929,-7.0096,-7.0293,-7.0446,-7.0646,-7.0944,-7.1324,-7.1598,-7.1538,-7.1283,-7.0898,-7.0898,-7.0912,-7.1029,-7.1351,-7.1569,-7.1912,-7.2175,-7.2529,-7.2645,-7.2839,-7.2916,-7.3032,-7.2916,-7.28,-7.2723,-7.2645,-7.2529,-7.2375,-7.222,-7.2026,-7.1949,-7.164,-7.1291,-7.1291,-7.1291,-7.1291,-7.1291,-7.1291,-7.1291,-7.1291,-7.1291,-7.1291,-7.1291,-7.1291,-7.1291,-7.1291,-7.1291,-7.1291,-7.1366,-7.131,-7.0011,-6.8942,-6.8482,-6.8034,-6.7314,-6.7053,-6.7364,-6.7799,-6.8302,-6.9056,-6.9881,-7.0937,-7.2069,-7.316,-7.4375,-7.471,-7.5861,-7.6939,-7.7905,-7.8202,-7.8304,-7.8304,-7.8304,-7.8304,-7.8304,-7.8053,-7.7672,-7.7115,-7.6409,-7.5851,-7.4747,-7.4301,-7.3919,-7.3584,-7.3372,-7.3372,-7.3372,-7.3372,-7.3372,-7.3372,-7.3372,-7.3372,-7.3372,-7.3372,-7.3372,-7.3372,-7.3372,-7.3372,-7.3435,-7.3461,-7.3501,-7.3589,-7.3641,-7.3541,-7.3065,-7.2796,-7.2477,-7.1238,-7.0896,-7.0479,-7.0111,-6.9964,-6.9834,-6.9985,-7.0114,-7.0387,-7.0637,-7.0882,-7.1122,-7.1588,-7.2045,-7.2549,-7.2385,-7.2129,-7.1668,-7.1898,-7.186,-7.1903,-7.2032,-7.2456,-7.2826,-7.301,-7.3535,-7.3922,-7.396,-7.369,-7.3612,-7.3458,-7.3496,-7.3419,-7.3458,-7.338,-7.3226,-7.3071,-7.2877,-7.2684,-7.1988,-7.164,-7.1446,-7.1369,-7.1291,-7.1291,-7.1291,-7.1291,-7.1291,-7.1291,-7.1291,-7.1291,-7.1291,-7.1291,-7.1291,-7.1291,-7.1302,-7.1355,-7.098,-6.9808,-6.9058,-6.88,-6.8222,-6.7342,-6.7316,-6.7712,-6.8114,-6.8499,-6.9526,-7.0741,-7.1289,-7.2381,-7.3237,-7.3892,-7.4561,-7.4673,-7.5665,-7.705,-7.7905,-7.8165,-7.8016,-7.8081,-7.8053,-7.7942,-7.7385,-7.7013,-7.6632,-7.5517,-7.4848,-7.4439,-7.3818,-7.3473,-7.3435,-7.3372,-7.3372,-7.3372,-7.3372,-7.3372,-7.3372,-7.3372,-7.3372,-7.3372,-7.3372,-7.3372,-7.3398,-7.3398,-7.3424,-7.3435,-7.3501,-7.3578,-7.3665,-7.3851,-7.3872,-7.378,-7.3417,-7.3056,-7.2526,-7.1782,-7.1285,-7.1047,-7.065,-7.0573,-7.07,-7.0781,-7.1128,-7.1631,-7.1881,-7.2293,-7.2937,-7.3241,-7.3462,-7.35,-7.3462,-7.336,-7.3091,-7.286,-7.3045,-7.3382,-7.3626,-7.3702,-7.386,-7.4154,-7.4154,-7.4038,-7.4038,-7.4193,-7.427,-7.4347,-7.4386,-7.4463,-7.4463,-7.4347,-7.3999,-7.3806,-7.3535,-7.2684,-7.2026,-7.1717,-7.1523,-7.133,-7.1291,-7.133,-7.1291,-7.1291,-7.1291,-7.1291,-7.1291,-7.1291,-7.1291,-7.1291,-7.1291,-7.1313,-7.1355,-7.1164,-7.0428,-6.9783,-6.9267,-6.8676,-6.7987,-6.7969,-6.8102,-6.8861,-6.9714,-7.0779,-7.1758,-7.2187,-7.2654,-7.343,-7.3558,-7.3818,-7.4375,-7.4896,-7.5554,-7.6307,-7.6642,-7.6604,-7.6642,-7.6642,-7.6567,-7.627,-7.5861,-7.5341,-7.4933,-7.4327,-7.3807,-7.3696,-7.3372,-7.3372,-7.3372,-7.3372,-7.3372,-7.3372,-7.3372,-7.3372,-7.3372,-7.3372,-7.3372,-7.3372,-7.3372,-7.3398,-7.345,-7.3539,-7.3564,-7.3578,-7.3653,-7.3864,-7.4056,-7.4136,-7.4229,-7.4048,-7.3803,-7.3477,-7.282,-7.2431,-7.2168,-7.1729,-7.1685,-7.1807,-7.192,-7.2247,-7.2655,-7.2899,-7.3082,-7.3572,-7.3885,-7.4577,-7.4938,-7.5053,-7.4553,-7.4014,-7.3668,-7.3724,-7.3704,-7.4231,-7.4461,-7.4777,-7.5121,-7.5276,-7.5585,-7.5585,-7.5662,-7.5662,-7.574,-7.5701,-7.574,-7.5701,-7.5546,-7.4966,-7.4657,-7.4231,-7.3574,-7.2955,-7.2568,-7.2258,-7.2142,-7.1601,-7.1485,-7.133,-7.1291,-7.1291,-7.1291,-7.1291,-7.1291,-7.1291,-7.1291,-7.1291,-7.1302,-7.1324,-7.1028,-7.0738,-7.0347,-6.9811,-6.9264,-6.8786,-6.8914,-6.9256,-7.016,-7.1084,-7.1717,-7.1992,-7.2108,-7.2691,-7.3543,-7.3372,-7.3473,-7.3967,-7.419,-7.4365,-7.5341,-7.5787,-7.5787,-7.5787,-7.5787,-7.575,-7.5527,-7.5156,-7.4635,-7.4264,-7.403,-7.3435,-7.3372,-7.3372,-7.3372,-7.3372,-7.3372,-7.3372,-7.3372,-7.3372,-7.3372,-7.3372,-7.3372,-7.3372,-7.3372,-7.3372,-7.3424,-7.3527,-7.3615,-7.3665,-7.3728,-7.3864,-7.4056,-7.4197,-7.4358,-7.4454,-7.4471,-7.4468,-7.4136,-7.3781,-7.3517,-7.3209,-7.3066,-7.2945,-7.3101,-7.3198,-7.3407,-7.3599,-7.3774,-7.3957,-7.4423,-7.4822,-7.5438,-7.5745,-7.5861,-7.5245,-7.4668,-7.4399,-7.4431,-7.4578,-7.5118,-7.5349,-7.5693,-7.6127,-7.6243,-7.632,-7.6397,-7.6359,-7.6359,-7.6359,-7.632,-7.6281,-7.6204,-7.6127,-7.5624,-7.5392,-7.4966,-7.4463,-7.3999,-7.3535,-7.3226,-7.2955,-7.2375,-7.1794,-7.1562,-7.1407,-7.1407,-7.133,-7.1291,-7.1291,-7.1291,-7.1291,-7.1291,-7.1302,-7.1313,-7.1288,-7.1078,-7.0678,-7.036,-6.995,-6.9694,-6.9956,-7.0447,-7.1069,-7.1476,-7.1834,-7.1992,-7.203,-7.2767,-7.3697,-7.3298,-7.3324,-7.3361,-7.3361,-7.3621,-7.4896,-7.5601,-7.5676,-7.5639,-7.5601,-7.5601,-7.4784,-7.4487,-7.4375,-7.377,-7.3473,-7.3435,-7.3398,-7.3372,-7.3372,-7.3372,-7.3372,-7.3372,-7.3372,-7.3372,-7.3372,-7.3372,-7.3372,-7.3398,-7.3372,-7.3372,-7.3524,-7.3738,-7.3939,-7.4039,-7.4335,-7.4342,-7.4371,-7.4358,-7.4513,-7.4686,-7.4774,-7.4841,-7.4676,-7.4448,-7.4254,-7.4035,-7.3815,-7.3554,-7.3514,-7.3545,-7.3998,-7.4388,-7.4663,-7.5269,-7.5668,-7.5861,-7.5938,-7.5976,-7.5976,-7.5976,-7.5553,-7.5707,-7.5985,-7.5991,-7.589,-7.5967,-7.6079,-7.632,-7.6359,-7.6397,-7.6397,-7.6397,-7.6397,-7.6397,-7.6359,-7.6359,-7.6359,-7.6359,-7.6204,-7.6165,-7.5817,-7.5276,-7.4811,-7.4502,-7.4386,-7.4077,-7.3612,-7.2916,-7.1872,-7.1756,-7.1601,-7.1485,-7.133,-7.1291,-7.1291,-7.1291,-7.1291,-7.1291,-7.1313,-7.1327,-7.1339,-7.1087,-7.0809,-7.065,-7.0602,-7.078,-7.1156,-7.1702,-7.2025,-7.2146,-7.2343,-7.2496,-7.3117,-7.3931,-7.1626,-7.1701,-7.2295,-7.2544,-7.2692,-7.3658,-7.4104,-7.4104,-7.4078,-7.4104,-7.4104,-7.3881,-7.3818,-7.3733,-7.3484,-7.341,-7.3372,-7.3372,-7.3372,-7.3372,-7.3372,-7.3372,-7.3372,-7.3372,-7.3372,-7.3372,-7.3372,-7.3398,-7.3435,-7.3435,-7.3524,-7.3564,-7.4287,-7.4599,-7.5033,-7.5563,-7.5131,-7.4794,-7.4762,-7.4859,-7.4967,-7.5051,-7.519,-7.513,-7.5089,-7.5,-7.4949,-7.4922,-7.4811,-7.5004,-7.5073,-7.5411,-7.5485,-7.5615,-7.5861,-7.5899,-7.5976,-7.5976,-7.5976,-7.6015,-7.6092,-7.6207,-7.613,-7.6101,-7.6145,-7.6289,-7.634,-7.635,-7.6397,-7.6397,-7.6397,-7.6397,-7.6397,-7.6397,-7.6397,-7.6397,-7.6397,-7.6397,-7.6397,-7.6397,-7.6397,-7.6281,-7.5779,-7.574,-7.5508,-7.543,-7.5198,-7.4734,-7.3999,-7.2955,-7.2336,-7.2181,-7.1756,-7.1601,-7.1407,-7.1369,-7.133,-7.1291,-7.1291,-7.1302,-7.1334,-7.1348,-7.132,-7.1236,-7.1138,-7.1282,-7.1525,-7.1861,-7.2017,-7.2297,-7.2458,-7.2734,-7.3081,-7.378,-7.4398,-7.0895,-7.097,-7.1441,-7.1663,-7.1775,-7.2184,-7.2406,-7.2518,-7.3075,-7.3372,-7.3372,-7.341,-7.3372,-7.3435,-7.341,-7.3372,-7.3372,-7.3372,-7.3372,-7.3372,-7.3372,-7.3372,-7.3372,-7.3372,-7.3372,-7.3372,-7.3372,-7.3372,-7.351,-7.3807,-7.3971,-7.4211,-7.5009,-7.5483,-7.5866,-7.6305,-7.6361,-7.5982,-7.5733,-7.5632,-7.5585,-7.557,-7.5681,-7.5594,-7.5625,-7.5742,-7.5839,-7.5855,-7.5902,-7.5925,-7.594,-7.5955,-7.5976,-7.5976,-7.6284,-7.6399,-7.6592,-7.6823,-7.7053,-7.7092,-7.7015,-7.6976,-7.6899,-7.7141,-7.6864,-7.6777,-7.6559,-7.6374,-7.6386,-7.6397,-7.6397,-7.6397,-7.6397,-7.6397,-7.6397,-7.6397,-7.6397,-7.6397,-7.6397,-7.6397,-7.6397,-7.6397,-7.632,-7.6397,-7.6359,-7.6088,-7.5933,-7.5701,-7.4966,-7.396,-7.338,-7.3109,-7.2452,-7.1949,-7.1717,-7.1523,-7.1369,-7.133,-7.1291,-7.1302,-7.1313,-7.1386,-7.1436,-7.1528,-7.1647,-7.1739,-7.1807,-7.1909,-7.2098,-7.2453,-7.3006,-7.3515,-7.4057,-7.4755,-7.5293,-7.0672,-7.0635,-7.0784,-7.0858,-7.0895,-7.1007,-7.1007,-7.1044,-7.2444,-7.325,-7.3187,-7.3287,-7.3287,-7.3361,-7.3372,-7.3372,-7.3372,-7.3372,-7.3372,-7.3372,-7.3372,-7.3372,-7.3372,-7.3372,-7.3372,-7.3372,-7.3435,-7.351,-7.3744,-7.4104,-7.4528,-7.4919,-7.583,-7.6406,-7.6775,-7.7287,-7.7492,-7.7614,-7.7455,-7.7372,-7.6751,-7.6615,-7.6509,-7.6076,-7.6043,-7.6124,-7.6187,-7.6179,-7.6133,-7.6178,-7.6245,-7.6361,-7.6399,-7.6476,-7.6861,-7.7092,-7.7361,-7.763,-7.7938,-7.8054,-7.8169,-7.8246,-7.8492,-7.8296,-7.7841,-7.742,-7.7164,-7.7174,-7.7287,-7.7326,-7.7326,-7.7326,-7.7326,-7.7326,-7.7326,-7.7094,-7.6862,-7.6707,-7.6397,-7.6397,-7.6397,-7.6397,-7.6397,-7.6397,-7.6397,-7.6359,-7.632,-7.6243,-7.5817,-7.4889,-7.4425,-7.3999,-7.3264,-7.2607,-7.222,-7.1949,-7.1523,-7.1407,-7.133,-7.1291,-7.1302,-7.1406,-7.1559,-7.1645,-7.1751,-7.1822,-7.1889,-7.2149,-7.2526,-7.2999,-7.3591,-7.4335,-7.5033,-7.5654,-7.6033,-6.9076,-6.9137,-6.9707,-7.0301,-7.0858,-7.0895,-7.0858,-7.0932,-7.1267,-7.1849,-7.2395,-7.2544,-7.2841,-7.3287,-7.3398,-7.3372,-7.3372,-7.3372,-7.3372,-7.3372,-7.3372,-7.3372,-7.3372,-7.3372,-7.3372,-7.3372,-7.3473,-7.377,-7.4216,-7.4614,-7.5139,-7.5867,-7.6754,-7.738,-7.7758,-7.8284,-7.8768,-7.8955,-7.9084,-7.8674,-7.7911,-7.7717,-7.7594,-7.7555,-7.7646,-7.76,-7.7647,-7.7754,-7.7846,-7.79,-7.79,-7.79,-7.7938,-7.7861,-7.7992,-7.8184,-7.8246,-7.8438,-7.8669,-7.8823,-7.8838,-7.8669,-7.8661,-7.8657,-7.8497,-7.8216,-7.8129,-7.827,-7.8254,-7.8254,-7.8254,-7.8216,-7.8216,-7.8216,-7.8216,-7.7829,-7.7442,-7.7016,-7.6552,-7.6514,-7.6514,-7.6436,-7.6475,-7.6397,-7.6397,-7.6397,-7.6397,-7.6359,-7.632,-7.574,-7.5314,-7.485,-7.4115,-7.3458,-7.2993,-7.2375,-7.1949,-7.1523,-7.1407,-7.133,-7.1302,-7.1396,-7.155,-7.1668,-7.177,-7.1989,-7.2327,-7.2734,-7.3109,-7.3662,-7.4296,-7.5115,-7.5656,-7.6235,-7.6575,-6.8518,-6.8556,-6.8964,-6.941,-6.9781,-6.9818,-6.9818,-6.9818,-6.9818,-7.0326,-7.118,-7.1812,-7.2469,-7.299,-7.3212,-7.3398,-7.3398,-7.3372,-7.3372,-7.3372,-7.3372,-7.3372,-7.3372,-7.3372,-7.3372,-7.341,-7.3844,-7.4253,-7.4736,-7.5633,-7.6334,-7.6852,-7.7602,-7.8279,-7.8681,-7.932,-7.9728,-7.9933,-8.0215,-7.982,-7.9009,-7.8909,-7.8501,-7.8551,-7.8477,-7.8508,-7.85,-7.8492,-7.8492,-7.8477,-7.8361,-7.8361,-7.8361,-7.8338,-7.8631,-7.8938,-7.9131,-7.9246,-7.9477,-7.9554,-7.9515,-7.9477,-7.9592,-7.9899,-8.001,-7.9745,-7.9198,-7.9211,-7.8784,-7.868,-7.868,-7.868,-7.868,-7.868,-7.868,-7.8486,-7.8293,-7.8099,-7.7867,-7.7867,-7.7597,-7.7132,-7.6978,-7.6514,-7.6514,-7.6397,-7.6397,-7.6397,-7.6397,-7.6397,-7.6049,-7.5662,-7.4889,-7.4463,-7.4115,-7.3264,-7.2375,-7.1949,-7.1562,-7.1412,-7.1405,-7.1455,-7.155,-7.1824,-7.2127,-7.2456,-7.2838,-7.3362,-7.4084,-7.4754,-7.5312,-7.5895,-7.6357,-7.67,-7.6844,-6.8518,-6.8518,-6.8518,-6.8518,-6.8518,-6.8518,-6.8556,-6.8556,-6.8556,-6.8927,-6.9769,-7.1143,-7.1875,-7.2432,-7.2878,-7.3175,-7.3398,-7.3398,-7.3372,-7.3372,-7.3372,-7.3372,-7.3372,-7.3372,-7.3484,-7.3781,-7.4216,-7.4736,-7.5256,-7.6255,-7.7132,-7.77,-7.8365,-7.9116,-7.943,-7.9638,-7.9838,-8.0134,-8.0354,-8.0542,-8.0322,-8.0119,-7.9517,-7.9022,-7.8792,-7.8823,-7.8823,-7.8861,-7.8861,-7.8938,-7.9092,-7.9169,-7.9169,-7.9246,-7.9477,-7.9823,-7.9977,-8.0285,-8.0669,-8.0746,-8.0823,-8.0939,-8.1093,-8.1085,-8.1099,-8.0839,-8.0279,-7.9958,-7.9545,-7.9376,-7.9415,-7.9415,-7.9415,-7.9337,-7.9337,-7.9221,-7.9144,-7.9028,-7.895,-7.8912,-7.8486,-7.7906,-7.7558,-7.7055,-7.6823,-7.6668,-7.6552,-7.6475,-7.6436,-7.6397,-7.6243,-7.6049,-7.5624,-7.5276,-7.4966,-7.4231,-7.3187,-7.2375,-7.1999,-7.1714,-7.1533,-7.1795,-7.1995,-7.2142,-7.2477,-7.3119,-7.3657,-7.4179,-7.4937,-7.5613,-7.6094,-7.6439,-7.6629,-7.6933,-7.7,-6.8518,-6.8518,-6.8518,-6.8518,-6.8518,-6.8518,-6.8518,-6.8518,-6.8518,-6.863,-6.8964,-6.9769,-7.0809,-7.2209,-7.2321,-7.2729,-7.3398,-7.3372,-7.3372,-7.3372,-7.3372,-7.3372,-7.3372,-7.341,-7.3781,-7.419,-7.4699,-7.5341,-7.6027,-7.6952,-7.7729,-7.8409,-7.8602,-7.9116,-7.9453,-7.966,-7.9881,-8.0175,-8.0431,-8.0596,-8.0775,-8.0668,-8.0712,-8.0546,-8.0592,-8.0592,-8.0631,-8.0592,-8.0592,-8.0592,-8.0477,-8.04,-8.0323,-8.0246,-8.0439,-8.0477,-8.0669,-8.0785,-8.1054,-8.1093,-8.1093,-8.1093,-8.1093,-8.1124,-8.1176,-8.121,-8.087,-8.0989,-8.0718,-8.0756,-8.0769,-8.0769,-8.0769,-8.0575,-8.0459,-8.0188,-7.9995,-7.9608,-7.9299,-7.9221,-7.9028,-7.8757,-7.868,-7.8254,-7.7945,-7.7751,-7.7442,-7.7326,-7.69,-7.6668,-7.6475,-7.6359,-7.6243,-7.5701,-7.5237,-7.4993,-7.4154,-7.3226,-7.2502,-7.2373,-7.2298,-7.2337,-7.2517,-7.2779,-7.3412,-7.4099,-7.4597,-7.4999,-7.5447,-7.6086,-7.6601,-7.6982,-7.7096,-7.7126,-7.719]},{"header":{"parameterUnit":"m.s-1","parameterCategory":1,"la1":31.0,"la2":29.5877,"lo1":-88.7671,"lo2":-86.6584,"dy":0.0162,"dx":0.0185,"nx":115,"ny":88,"refTime":"2024-02-24T06:00:00:Z","depth":0,"parameterNumber":3,"parameterNumberName":"V-component_of_WINDS"},"data":[0.0,0.0,0.0,0.0,0.0,0.0,0.0,0.0,0.0,0.0,0.0,0.0,0.0,0.0,0.0,0.0,0.0,0.0,0.0,0.0,0.0,0.0,0.0,0.0,0.0,0.0,0.0,0.0,0.0,0.0,0.0,0.0,0.0,0.0,0.0,0.0,0.0,0.0,0.0,0.0,0.0,0.0,0.0,0.0,0.0,0.0,0.0,0.0,0.0,0.0,0.0,0.0,0.0,0.0,0.0,0.0,0.0,0.0,0.0,0.0,0.0,0.0,0.0,0.0,0.0,0.0,0.0,0.0,0.0,0.0,0.0,0.0,0.0,0.0,0.0,0.0,0.0,0.0,0.0,0.0,0.0,0.0,0.0,0.0,0.0,0.0,0.0,0.0,0.0,0.0,0.0,0.0,0.0,0.0,0.0,0.0,0.0,0.0,0.0,0.0,0.0,0.0,0.0,0.0,0.0,0.0,0.0,0.0,0.0,0.0,0.0,0.0,0.0,0.0,0.0,0.0,0.0,0.0,0.0,0.0,0.0,0.0,0.0,0.0,0.0,0.0,0.0,0.0,0.0,0.0,0.0,0.0,0.0,0.0,0.0,0.0,0.0,0.0,0.0,0.0,0.0,0.0,0.0,0.0,0.0,0.0,0.0,0.0,0.0,0.0,0.0,0.0,0.0,0.0,0.0,0.0,0.0,0.0,0.0,0.0,0.0,0.0,0.0,0.0,0.0,0.0,0.0,0.0,0.0,0.0,0.0,0.0,0.0,0.0,0.0,0.0,0.0,0.0,0.0,0.0,0.0,0.0,0.0,0.0,0.0,0.0,0.0,0.0,0.0,0.0,0.0,0.0,0.0,0.0,0.0,0.0,0.0,0.0,0.0,0.0,0.0,0.0,0.0,0.0,0.0,0.0,0.0,0.0,0.0,0.0,0.0,0.0,0.0,0.0,0.0,0.0,0.0,0.0,0.0,0.0,0.0,0.0,0.0,0.0,0.0,0.0,0.0,0.0,0.0,0.0,0.0,0.0,0.0,0.0,0.0,0.0,0.0,0.0,0.0,0.0,0.0,0.0,0.0,0.0,0.0,0.0,0.0,0.0,0.0,0.0,0.0,0.0,0.0,0.0,0.0,0.0,0.0,0.0,0.0,0.0,0.0,0.0,0.0,0.0,0.0,0.0,0.0,0.0,0.0,0.0,0.0,0.0,0.0,0.0,0.0,0.0,0.0,0.0,0.0,0.0,0.0,0.0,0.0,0.0,0.0,0.0,0.0,0.0,0.0,0.0,0.0,0.0,0.0,0.0,0.0,0.0,0.0,0.0,0.0,0.0,0.0,0.0,0.0,0.0,0.0,0.0,0.0,0.0,0.0,0.0,0.0,0.0,0.0,0.0,0.0,0.0,0.0,0.0,0.0,0.0,0.0,0.0,0.0,0.0,0.0,0.0,0.0,0.0,0.0,0.0,0.0,0.0,0.0,0.0,0.0,0.0,0.0,0.0,0.0,0.0,0.0,0.0,0.0,0.0,0.0,0.0,0.0,0.0,0.0,0.0,0.0,0.0,0.0,0.0,0.0,0.0,0.0,0.0,0.0,0.0,0.0,0.0,0.0,0.0,0.0,0.0,0.0,0.0,0.0,0.0,0.0,0.0,0.0,0.0,0.0,0.0,0.0,0.0,0.0,0.0,0.0,0.0,0.0,0.0,0.0,0.0,0.0,0.0,0.0,0.0,0.0,0.0,0.0,0.0,0.0,0.0,0.0,0.0,0.0,0.0,0.0,0.0,0.0,0.0,0.0,0.0,0.0,0.0,0.0,0.0,0.0,0.0,0.0,0.0,0.0,0.0,0.0,0.0,0.0,0.0,0.0,0.0,0.0,0.0,0.0,0.0,0.0,0.0,0.0,0.0,0.0,0.0,0.0,0.0,0.0,0.0,0.0,0.0,0.0,0.0,0.0,0.0,0.0,0.0,0.0,0.0,0.0,0.0,0.0,0.0,0.0,0.0,0.0,0.0,0.0,0.0,0.0,0.0,0.0,0.0,0.0,0.0,0.0,0.0,0.0,0.0,0.0,0.0,0.0,0.0,0.0,0.0,0.0,0.0,0.0,0.0,0.0,0.0,0.0,0.0,0.0,0.0,0.0,0.0,0.0,0.0,0.0,0.0,0.0,0.0,0.0,0.0,0.0,0.0,0.0,0.0,0.0,0.0,0.0,0.0,0.0,0.0,0.0,0.0,0.0,0.0,0.0,0.0,0.0,0.0,0.0,0.0,0.0,0.0,0.0,0.0,0.0,0.0,0.0,0.0,0.0,0.0,0.0,0.0,0.0,0.0,0.0,0.0,0.0,0.0,0.0,0.0,0.0,0.0,0.0,0.0,0.0,0.0,0.0,0.0,0.0,0.0,0.0,0.0,0.0,0.0,0.0,0.0,0.0,0.0,0.0,0.0,0.0,0.0,0.0,0.0,0.0,0.0,0.0,0.0,0.0,0.0,0.0,0.0,0.0,0.0,0.0,0.0,0.0,0.0,0.0,0.0,0.0,0.0,0.0,0.0,0.0,0.0,0.0,0.0,0.0,0.0,0.0,0.0,0.0,0.0,0.0,0.0,0.0,0.0,0.0,0.0,0.0,0.0,0.0,0.0,0.0,0.0,0.0,0.0,0.0,0.0,0.0,0.0,0.0,0.0,0.0,0.0,0.0,0.0,0.0,0.0,0.0,0.0,0.0,0.0,0.0,0.0,0.0,0.0,0.0,0.0,0.0,0.0,0.0,0.0,0.0,0.0,0.0,0.0,0.0,0.0,0.0,0.0,0.0,0.0,0.0,0.0,0.0,0.0,0.0,0.0,0.0,0.0,0.0,0.0,0.0,0.0,0.0,0.0,0.0,0.0,0.0,0.0,0.0,0.0,0.0,0.0,0.0,0.0,0.0,0.0,0.0,0.0,0.0,0.0,0.0,0.0,0.0,0.0,0.0,0.0,0.0,0.0,0.0,0.0,0.0,0.0,0.0,0.0,0.0,0.0,0.0,0.0,0.0,0.0,0.0,0.0,0.0,0.0,0.0,0.0,0.0,0.0,0.0,0.0,0.0,0.0,0.0,0.0,0.0,0.0,0.0,0.0,0.0,0.0,0.0,0.0,0.0,0.0,0.0,0.0,0.0,0.0,0.0,0.0,0.0,0.0,0.0,0.0,0.0,0.0,0.0,0.0,0.0,0.0,0.0,0.0,0.0,0.0,0.0,0.0,0.0,0.0,0.0,0.0,0.0,0.0,0.0,0.0,0.0,0.0,0.0,0.0,0.0,0.0,0.0,0.0,0.0,0.0,0.0,0.0,0.0,0.0,0.0,0.0,0.0,0.0,0.0,0.0,0.0,0.0,0.0,0.0,0.0,0.0,0.0,0.0,0.0,0.0,0.0,0.0,0.0,0.0,0.0,0.0,0.0,0.0,0.0,0.0,0.0,0.0,0.0,0.0,0.0,0.0,0.0,0.0,0.0,0.0,0.0,0.0,0.0,0.0,0.0,0.0,0.0,0.0,0.0,0.0,0.0,0.0,0.0,0.0,0.0,0.0,0.0,0.0,0.0,0.0,0.0,0.0,0.0,0.0,0.0,0.0,0.0,0.0,0.0,0.0,0.0,0.0,0.0,0.0,0.0,0.0,0.0,0.0,0.0,0.0,0.0,0.0,0.0,0.0,0.0,0.0,0.0,0.0,0.0,0.0,0.0,0.0,0.0,0.0,0.0,0.0,0.0,0.0,0.0,0.0,0.0,0.0,0.0,0.0,0.0,0.0,0.0,0.0,0.0,0.0,0.0,0.0,0.0,0.0,0.0,0.0,0.0,0.0,0.0,0.0,0.0,0.0,0.0,0.0,0.0,0.0,0.0,0.0,0.0,0.0,0.0,0.0,0.0,0.0,0.0,0.0,0.0,0.0,0.0,0.0,0.0,0.0,0.0,0.0,0.0,0.0,0.0,0.0,0.0,0.0,0.0,0.0,0.0,0.0,0.0,0.0,0.0,0.0,0.0,0.0,0.0,0.0,0.0,0.0,0.0,0.0,0.0,0.0,0.0,0.0,0.0,0.0,0.0,0.0,0.0,0.0,0.0,0.0,0.0,0.0,0.0,0.0,0.0,0.0,0.0,0.0,0.0,0.0,0.0,0.0,0.0,0.0,0.0,0.0,0.0,0.0,0.0,0.0,0.0,0.0,0.0,0.0,0.0,0.0,0.0,0.0,0.0,0.0,0.0,0.0,0.0,0.0,0.0,0.0,0.0,0.0,-1.2041,0.0,0.0,0.0,0.0,0.0,0.0,0.0,0.0,0.0,0.0,0.0,0.0,0.0,0.0,0.0,0.0,0.0,0.0,0.0,0.0,0.0,0.0,0.0,0.0,0.0,0.0,0.0,0.0,0.0,0.0,0.0,0.0,0.0,0.0,0.0,0.0,0.0,0.0,0.0,0.0,0.0,0.0,0.0,0.0,0.0,0.0,0.0,0.0,0.0,0.0,0.0,0.0,0.0,0.0,0.0,0.0,0.0,0.0,0.0,0.0,0.0,0.0,0.0,0.0,0.0,0.0,0.0,0.0,0.0,0.0,0.0,0.0,0.0,0.0,0.0,0.0,0.0,0.0,0.0,0.0,0.0,0.0,0.0,0.0,0.0,0.0,0.0,0.0,0.0,0.0,0.0,0.0,0.0,0.0,0.0,0.0,0.0,0.0,0.0,0.0,0.0,0.0,0.0,0.0,0.0,0.0,0.0,0.0,0.0,0.0,-1.3465,-1.3339,-1.2863,-1.2363,-1.1848,0.0,0.0,0.0,0.0,0.0,0.0,0.0,0.0,0.0,0.0,0.0,0.0,0.0,0.0,0.0,0.0,0.0,0.0,0.0,0.0,0.0,0.0,0.0,0.0,0.0,0.0,0.0,0.0,0.0,0.0,0.0,0.0,0.0,0.0,0.0,0.0,0.0,0.0,0.0,0.0,0.0,0.0,0.0,0.0,0.0,0.0,0.0,0.0,0.0,0.0,0.0,0.0,0.0,0.0,0.0,0.0,0.0,0.0,0.0,0.0,0.0,0.0,0.0,0.0,0.0,0.0,0.0,0.0,0.0,0.0,0.0,0.0,0.0,0.0,0.0,0.0,0.0,0.0,0.0,0.0,0.0,0.0,0.0,0.0,0.0,0.0,0.0,0.0,0.0,0.0,0.0,0.0,0.0,0.0,0.0,0.0,0.0,0.0,0.0,0.0,0.0,0.0,0.0,0.0,0.0,0.0,0.0,0.0,0.0,0.0,0.0,0.0,-1.2678,-1.2174,-1.1654,0.0,0.0,0.0,0.0,0.0,0.0,0.0,0.0,0.0,0.0,0.0,0.0,0.0,0.0,0.0,0.0,0.0,0.0,0.0,0.0,0.0,0.0,0.0,0.0,0.0,0.0,0.0,0.0,0.0,0.0,0.0,0.0,0.0,0.0,0.0,0.0,0.0,0.0,0.0,0.0,0.0,0.0,0.0,0.0,0.0,0.0,0.0,0.0,0.0,0.0,0.0,0.0,0.0,0.0,0.0,0.0,0.0,0.0,0.0,0.0,0.0,0.0,0.0,0.0,0.0,0.0,0.0,0.0,0.0,0.0,0.0,0.0,0.0,0.0,0.0,0.0,0.0,0.0,0.0,0.0,0.0,0.0,0.0,0.0,0.0,0.0,0.0,0.0,0.0,0.0,0.0,0.0,0.0,0.0,0.0,0.0,0.0,0.0,0.0,0.0,0.0,0.0,0.0,0.0,0.0,0.0,0.0,0.0,0.0,0.0,-1.3403,-1.3192,-1.2697,0.0,-1.1468,0.0,0.0,0.0,0.0,0.0,0.0,0.0,0.0,0.0,0.0,0.0,0.0,0.0,0.0,0.0,0.0,0.0,0.0,0.0,0.0,0.0,0.0,0.0,0.0,0.0,0.0,0.0,0.0,0.0,0.0,0.0,0.0,0.0,0.0,0.0,0.0,0.0,0.0,0.0,0.0,0.0,0.0,0.0,0.0,0.0,0.0,0.0,0.0,0.0,0.0,0.0,0.0,0.0,0.0,0.0,0.0,0.0,0.0,0.0,0.0,0.0,0.0,0.0,0.0,0.0,0.0,0.0,0.0,0.0,0.0,0.0,0.0,0.0,0.0,0.0,0.0,0.0,0.0,0.0,0.0,0.0,0.0,0.0,0.0,0.0,0.0,0.0,0.0,0.0,0.0,0.0,0.0,0.0,0.0,0.0,0.0,0.0,0.0,0.0,0.0,0.0,0.0,0.0,0.0,0.0,0.0,0.0,0.0,0.0,0.0,-1.3089,-1.2711,-1.207,-1.1541,0.0,0.0,0.0,0.0,0.0,0.0,0.0,0.0,0.0,0.0,0.0,0.0,0.0,0.0,0.0,0.0,0.0,0.0,0.0,0.0,0.0,0.0,0.0,0.0,0.0,0.0,0.0,0.0,0.0,0.0,0.0,0.0,0.0,0.0,0.0,0.0,0.0,0.0,0.0,0.0,0.0,0.0,0.0,0.0,0.0,0.0,0.0,0.0,0.0,0.0,0.0,0.0,0.0,0.0,0.0,0.0,0.0,0.0,0.0,0.0,0.0,0.0,0.0,0.0,0.0,0.0,0.0,0.0,0.0,0.0,0.0,0.0,0.0,0.0,0.0,0.0,0.0,0.0,0.0,0.0,0.0,0.0,0.0,0.0,0.0,0.0,0.0,0.0,0.0,0.0,0.0,0.0,0.0,0.0,0.0,0.0,0.0,0.0,0.0,0.0,0.0,0.0,0.0,0.0,0.0,0.0,0.0,0.0,0.0,0.0,-1.3362,-1.2831,-1.2323,-1.1739,-1.1316,-1.1089,0.0,0.0,0.0,0.0,0.0,0.0,0.0,0.0,0.0,0.0,0.0,0.0,0.0,0.0,0.0,0.0,0.0,0.0,0.0,0.0,0.0,0.0,0.0,0.0,0.0,0.0,0.0,0.0,0.0,0.0,0.0,0.0,0.0,0.0,0.0,0.0,0.0,0.0,0.0,0.0,0.0,0.0,0.0,0.0,0.0,0.0,0.0,0.0,0.0,0.0,0.0,0.0,0.0,0.0,0.0,0.0,0.0,0.0,0.0,0.0,0.0,0.0,0.0,0.0,0.0,0.0,0.0,0.0,0.0,0.0,0.0,0.0,0.0,0.0,0.0,0.0,0.0,0.0,0.0,0.0,0.0,0.0,0.0,0.0,0.0,0.0,0.0,0.0,0.0,0.0,0.0,0.0,0.0,0.0,0.0,0.0,0.0,0.0,0.0,0.0,0.0,0.0,0.0,0.0,0.0,0.0,0.0,0.0,-1.3532,-1.3233,-1.275,-1.2072,-1.1834,-1.1575,0.0,0.0,0.0,0.0,0.0,0.0,0.0,0.0,0.0,0.0,0.0,0.0,0.0,0.0,0.0,0.0,0.0,0.0,0.0,0.0,0.0,0.0,0.0,0.0,0.0,0.0,0.0,0.0,0.0,0.0,0.0,0.0,0.0,0.0,0.0,0.0,0.0,0.0,0.0,0.0,0.0,0.0,0.0,0.0,0.0,0.0,0.0,0.0,0.0,0.0,0.0,0.0,0.0,0.0,0.0,0.0,0.0,0.0,0.0,0.0,0.0,0.0,0.0,0.0,0.0,0.0,0.0,0.0,0.0,0.0,0.0,0.0,0.0,0.0,0.0,0.0,0.0,0.0,0.0,0.0,0.0,0.0,0.0,0.0,0.0,0.0,0.0,0.0,0.0,0.0,0.0,0.0,0.0,0.0,0.0,0.0,0.0,0.0,0.0,0.0,0.0,0.0,0.0,0.0,0.0,0.0,0.0,0.0,0.0,-1.3209,-1.2857,-1.2506,-1.2295,-1.1909,-1.1661,0.0,0.0,0.0,0.0,0.0,0.0,0.0,0.0,0.0,0.0,0.0,0.0,0.0,0.0,0.0,0.0,0.0,0.0,0.0,0.0,0.0,0.0,0.0,0.0,0.0,0.0,0.0,0.0,0.0,0.0,0.0,0.0,0.0,0.0,0.0,0.0,0.0,0.0,0.0,0.0,0.0,0.0,0.0,0.0,0.0,0.0,0.0,0.0,0.0,0.0,0.0,0.0,0.0,0.0,0.0,0.0,0.0,0.0,0.0,0.0,0.0,0.0,0.0,0.0,0.0,0.0,0.0,0.0,0.0,0.0,0.0,0.0,0.0,0.0,0.0,0.0,0.0,0.0,0.0,0.0,0.0,0.0,0.0,0.0,0.0,0.0,0.0,0.0,0.0,0.0,0.0,0.0,0.0,0.0,0.0,0.0,0.0,0.0,0.0,0.0,0.0,0.0,0.0,0.0,0.0,0.0,0.0,0.0,0.0,-1.3077,0.0,-1.2711,-1.2541,-1.2163,-1.1869,0.0,0.0,0.0,0.0,0.0,0.0,0.0,0.0,0.0,0.0,0.0,0.0,0.0,0.0,0.0,0.0,0.0,0.0,0.0,0.0,0.0,0.0,0.0,0.0,0.0,0.0,0.0,0.0,0.0,0.0,0.0,0.0,0.0,0.0,0.0,0.0,0.0,0.0,0.0,0.0,0.0,0.0,0.0,0.0,0.0,0.0,0.0,0.0,0.0,0.0,0.0,0.0,0.0,0.0,0.0,0.0,0.0,0.0,0.0,0.0,0.0,0.0,0.0,0.0,0.0,0.0,0.0,0.0,0.0,0.0,0.0,0.0,0.0,0.0,0.0,0.0,0.0,0.0,0.0,0.0,0.0,0.0,0.0,0.0,0.0,0.0,0.0,0.0,0.0,0.0,0.0,0.0,0.0,0.0,0.0,0.0,0.0,0.0,0.0,0.0,0.0,0.0,0.0,0.0,0.0,0.0,0.0,0.0,-1.2868,-1.3077,-1.333,-1.3228,-1.2836,-1.2547,-1.2168,0.0,0.0,0.0,0.0,0.0,0.0,0.0,0.0,0.0,0.0,0.0,0.0,0.0,0.0,0.0,0.0,0.0,0.0,0.0,0.0,0.0,0.0,0.0,0.0,0.0,0.0,0.0,0.0,0.0,0.0,0.0,0.0,0.0,0.0,0.0,0.0,0.0,0.0,0.0,0.0,0.0,0.0,0.0,0.0,0.0,0.0,0.0,0.0,0.0,0.0,0.0,0.0,0.0,0.0,0.0,0.0,0.0,0.0,0.0,0.0,0.0,0.0,0.0,0.0,0.0,0.0,0.0,0.0,0.0,0.0,0.0,0.0,0.0,0.0,0.0,0.0,0.0,0.0,0.0,0.0,0.0,0.0,0.0,0.0,0.0,0.0,0.0,0.0,0.0,0.0,0.0,0.0,0.0,0.0,0.0,0.0,0.0,0.0,0.0,0.0,0.0,0.0,0.0,0.0,0.0,0.0,0.0,0.0,0.0,-1.3354,-1.3471,-1.3426,-1.3264,-1.3072,-1.2742,0.0,0.0,0.0,0.0,0.0,0.0,0.0,0.0,0.0,0.0,0.0,0.0,0.0,0.0,0.0,0.0,0.0,0.0,0.0,0.0,0.0,0.0,0.0,0.0,0.0,0.0,0.0,0.0,0.0,0.0,0.0,0.0,0.0,0.0,0.0,0.0,0.0,0.0,0.0,0.0,0.0,0.0,0.0,0.0,0.0,0.0,0.0,0.0,0.0,0.0,0.0,0.0,0.0,0.0,0.0,0.0,0.0,0.0,0.0,0.0,0.0,0.0,0.0,0.0,0.0,0.0,0.0,0.0,0.0,0.0,0.0,0.0,0.0,0.0,0.0,0.0,0.0,0.0,0.0,0.0,0.0,0.0,0.0,0.0,0.0,0.0,0.0,0.0,0.0,0.0,0.0,0.0,0.0,0.0,0.0,0.0,0.0,0.0,0.0,0.0,0.0,0.0,0.0,0.0,0.0,0.0,0.0,0.0,0.0,-1.4111,-1.4111,-1.4063,-1.3966,-1.3671,-1.3227,-1.2563,0.0,0.0,0.0,0.0,0.0,0.0,0.0,0.0,0.0,0.0,0.0,0.0,0.0,0.0,0.0,0.0,0.0,0.0,0.0,0.0,0.0,0.0,0.0,0.0,0.0,0.0,0.0,0.0,0.0,0.0,0.0,0.0,0.0,0.0,0.0,0.0,0.0,0.0,0.0,0.0,0.0,0.0,0.0,0.0,0.0,0.0,0.0,0.0,0.0,0.0,0.0,0.0,0.0,0.0,0.0,0.0,0.0,0.0,0.0,0.0,0.0,0.0,0.0,0.0,0.0,0.0,0.0,0.0,0.0,0.0,0.0,0.0,0.0,0.0,0.0,0.0,0.0,0.0,0.0,0.0,0.0,0.0,0.0,0.0,0.0,0.0,0.0,0.0,0.0,0.0,0.0,0.0,0.0,0.0,0.0,0.0,0.0,0.0,0.0,0.0,0.0,0.0,0.0,0.0,0.0,0.0,0.0,0.0,-1.5149,-1.5185,-1.5052,-1.4763,-1.4314,-1.3731,0.0,0.0,0.0,0.0,0.0,0.0,0.0,0.0,0.0,0.0,0.0,0.0,0.0,0.0,0.0,0.0,0.0,0.0,0.0,0.0,0.0,0.0,0.0,0.0,0.0,0.0,0.0,0.0,0.0,0.0,0.0,0.0,0.0,0.0,0.0,0.0,0.0,0.0,0.0,0.0,0.0,0.0,0.0,0.0,0.0,0.0,0.0,0.0,0.0,0.0,0.0,0.0,0.0,0.0,0.0,0.0,0.0,0.0,0.0,0.0,0.0,0.0,0.0,0.0,0.0,0.0,0.0,0.0,0.0,0.0,0.0,0.0,0.0,0.0,0.0,0.0,0.0,0.0,0.0,0.0,0.0,0.0,0.0,0.0,0.0,0.0,0.0,0.0,0.0,0.0,0.0,0.0,0.0,0.0,0.0,0.0,0.0,0.0,0.0,0.0,0.0,0.0,0.0,0.0,0.0,0.0,0.0,0.0,0.0,-1.5668,-1.6079,-1.597,-1.5318,-1.517,-1.4648,0.0,0.0,0.0,0.0,0.0,0.0,0.0,0.0,0.0,0.0,0.0,0.0,0.0,0.0,0.0,0.0,0.0,0.0,0.0,0.0,0.0,0.0,0.0,0.0,0.0,0.0,0.0,0.0,0.0,0.0,0.0,0.0,0.0,0.0,0.0,0.0,0.0,0.0,0.0,0.0,0.0,0.0,0.0,0.0,0.0,0.0,0.0,0.0,0.0,0.0,0.0,0.0,0.0,0.0,0.0,0.0,0.0,0.0,0.0,0.0,0.0,0.0,0.0,0.0,0.0,0.0,0.0,0.0,0.0,0.0,0.0,0.0,0.0,0.0,0.0,0.0,0.0,0.0,0.0,0.0,0.0,0.0,0.0,0.0,0.0,0.0,0.0,0.0,0.0,0.0,0.0,0.0,0.0,0.0,0.0,0.0,0.0,0.0,0.0,0.0,0.0,0.0,0.0,0.0,0.0,0.0,0.0,0.0,-1.5584,-1.6223,-1.6754,-1.6803,-1.6344,-1.5897,-1.5239,0.0,0.0,0.0,0.0,0.0,0.0,0.0,0.0,0.0,0.0,0.0,0.0,0.0,0.0,0.0,0.0,0.0,0.0,0.0,0.0,0.0,0.0,0.0,0.0,0.0,0.0,0.0,0.0,0.0,0.0,0.0,0.0,0.0,0.0,0.0,0.0,0.0,0.0,0.0,0.0,0.0,0.0,0.0,0.0,0.0,0.0,0.0,0.0,0.0,0.0,0.0,0.0,0.0,0.0,0.0,0.0,0.0,0.0,0.0,0.0,0.0,0.0,0.0,0.0,0.0,0.0,0.0,0.0,0.0,0.0,0.0,0.0,0.0,0.0,0.0,0.0,0.0,0.0,0.0,0.0,0.0,0.0,0.0,0.0,0.0,0.0,0.0,0.0,0.0,0.0,0.0,0.0,0.0,0.0,0.0,0.0,0.0,0.0,0.0,0.0,0.0,0.0,0.0,0.0,0.0,0.0,0.0,0.0,-1.5994,-1.6767,-1.7298,-1.7551,-1.7491,-1.6537,-1.5635,0.0,0.0,0.0,0.0,0.0,0.0,0.0,0.0,0.0,0.0,0.0,0.0,0.0,0.0,0.0,0.0,0.0,0.0,0.0,0.0,0.0,0.0,0.0,0.0,0.0,0.0,0.0,0.0,0.0,0.0,0.0,0.0,0.0,0.0,0.0,0.0,0.0,0.0,0.0,0.0,0.0,0.0,0.0,0.0,0.0,0.0,0.0,0.0,0.0,0.0,0.0,0.0,0.0,0.0,0.0,0.0,0.0,0.0,0.0,0.0,0.0,0.0,0.0,0.0,0.0,0.0,0.0,0.0,0.0,0.0,0.0,0.0,0.0,0.0,0.0,0.0,0.0,0.0,0.0,0.0,0.0,0.0,0.0,0.0,0.0,0.0,0.0,0.0,0.0,0.0,0.0,0.0,0.0,0.0,0.0,0.0,0.0,0.0,0.0,0.0,0.0,0.0,0.0,0.0,0.0,0.0,0.0,0.0,-1.6718,-1.7298,-1.7841,-1.801,-1.7793,-1.7165,-1.6392,0.0,0.0,0.0,0.0,0.0,0.0,0.0,0.0,0.0,0.0,0.0,0.0,0.0,0.0,0.0,0.0,0.0,0.0,0.0,0.0,0.0,0.0,0.0,0.0,0.0,0.0,0.0,0.0,0.0,0.0,0.0,0.0,0.0,0.0,0.0,0.0,0.0,0.0,0.0,0.0,0.0,0.0,0.0,0.0,0.0,0.0,0.0,0.0,-0.5895,0.0,0.0,0.0,0.0,0.0,0.0,0.0,0.0,0.0,0.0,0.0,0.0,0.0,0.0,0.0,0.0,0.0,0.0,0.0,0.0,0.0,0.0,0.0,0.0,0.0,0.0,0.0,0.0,0.0,0.0,0.0,0.0,0.0,0.0,0.0,0.0,0.0,0.0,0.0,0.0,0.0,0.0,0.0,0.0,0.0,0.0,0.0,0.0,0.0,0.0,0.0,0.0,0.0,0.0,0.0,0.0,0.0,0.0,0.0,-1.702,-1.766,-1.8191,-1.8408,-1.8239,-1.7744,-1.6899,0.0,0.0,0.0,0.0,0.0,0.0,0.0,0.0,0.0,0.0,0.0,0.0,0.0,0.0,0.0,0.0,0.0,0.0,0.0,0.0,0.0,0.0,0.0,0.0,0.0,0.0,0.0,0.0,0.0,0.0,0.0,0.0,0.0,0.0,0.0,0.0,0.0,0.0,0.0,0.0,0.0,0.0,0.0,0.0,0.0,0.0,0.0,0.0,0.0,0.0,0.0,0.0,0.0,0.0,0.0,0.0,0.0,0.0,0.0,0.0,0.0,0.0,0.0,0.0,0.0,0.0,0.0,0.0,0.0,0.0,0.0,0.0,0.0,0.0,0.0,0.0,0.0,0.0,0.0,0.0,0.0,0.0,0.0,0.0,0.0,0.0,0.0,0.0,0.0,0.0,0.0,0.0,0.0,0.0,0.0,0.0,0.0,0.0,0.0,0.0,0.0,0.0,0.0,0.0,0.0,0.0,0.0,-1.626,-1.7177,-1.7973,-1.8469,-1.871,-1.8613,-1.8143,-1.7274,-1.5994,0.0,0.0,0.0,0.0,0.0,0.0,0.0,0.0,0.0,0.0,0.0,0.0,0.0,0.0,0.0,0.0,0.0,0.0,0.0,0.0,0.0,0.0,0.0,0.0,0.0,0.0,0.0,0.0,0.0,0.0,0.0,0.0,0.0,0.0,0.0,0.0,0.0,0.0,-0.6783,-0.7021,0.0,0.0,0.0,0.0,0.0,0.0,0.0,0.0,-0.6138,0.0,0.0,0.0,0.0,0.0,0.0,0.0,0.0,0.0,0.0,0.0,0.0,0.0,0.0,0.0,0.0,0.0,0.0,0.0,0.0,0.0,0.0,0.0,0.0,0.0,0.0,0.0,0.0,0.0,0.0,0.0,0.0,0.0,0.0,0.0,0.0,0.0,0.0,0.0,0.0,0.0,0.0,0.0,0.0,0.0,0.0,0.0,0.0,0.0,0.0,0.0,0.0,0.0,0.0,0.0,0.0,-1.5427,-1.6694,-1.7636,-1.8215,-1.8746,-1.8807,-1.8372,-1.8046,-1.7416,-1.626,0.0,0.0,0.0,0.0,0.0,0.0,0.0,0.0,0.0,0.0,0.0,0.0,0.0,0.0,0.0,0.0,0.0,0.0,0.0,0.0,0.0,0.0,0.0,0.0,0.0,0.0,0.0,0.0,0.0,0.0,0.0,0.0,0.0,0.0,0.0,0.0,0.0,0.0,0.0,-0.7305,-0.7387,0.0,0.0,0.0,0.0,0.0,0.0,0.0,0.0,-0.6398,0.0,0.0,0.0,0.0,0.0,0.0,0.0,0.0,0.0,0.0,0.0,0.0,0.0,0.0,0.0,0.0,0.0,0.0,0.0,0.0,0.0,0.0,0.0,0.0,0.0,0.0,0.0,0.0,0.0,0.0,0.0,0.0,0.0,0.0,0.0,0.0,0.0,0.0,0.0,0.0,0.0,0.0,0.0,0.0,0.0,0.0,0.0,0.0,0.0,0.0,0.0,0.0,0.0,0.0,0.0,-1.5704,-1.6875,-1.7744,-1.8287,-1.8807,-1.8891,-1.8505,-1.8239,-1.7587,0.0,0.0,0.0,0.0,0.0,0.0,0.0,0.0,0.0,0.0,0.0,0.0,0.0,0.0,0.0,0.0,0.0,0.0,0.0,0.0,0.0,0.0,0.0,0.0,0.0,0.0,0.0,0.0,0.0,0.0,0.0,0.0,0.0,0.0,0.0,0.0,0.0,0.0,0.0,0.0,-0.7489,-0.757,-0.7794,0.0,0.0,0.0,0.0,0.0,0.0,-0.709,-0.7136,0.0,0.0,0.0,0.0,0.0,0.0,0.0,0.0,0.0,0.0,0.0,0.0,0.0,0.0,0.0,0.0,0.0,0.0,0.0,0.0,0.0,0.0,0.0,0.0,0.0,0.0,0.0,0.0,0.0,0.0,0.0,0.0,0.0,0.0,0.0,0.0,0.0,0.0,0.0,0.0,0.0,0.0,0.0,0.0,0.0,0.0,0.0,0.0,0.0,0.0,0.0,0.0,0.0,0.0,0.0,-1.5885,-1.6936,-1.7744,-1.8287,-1.8807,-1.8927,-1.8613,-1.8396,-1.7793,0.0,0.0,0.0,0.0,0.0,0.0,0.0,0.0,0.0,0.0,0.0,0.0,0.0,0.0,0.0,0.0,0.0,0.0,0.0,0.0,0.0,0.0,0.0,0.0,0.0,0.0,0.0,0.0,0.0,0.0,0.0,0.0,0.0,0.0,0.0,0.0,0.0,0.0,0.0,0.0,0.0,-0.7938,-0.8235,-0.8032,0.0,0.0,0.0,0.0,-0.782,-0.7826,0.0,0.0,0.0,0.0,0.0,0.0,0.0,0.0,0.0,0.0,0.0,0.0,0.0,0.0,0.0,0.0,0.0,0.0,0.0,0.0,0.0,0.0,0.0,0.0,0.0,0.0,0.0,0.0,0.0,0.0,0.0,0.0,0.0,0.0,0.0,0.0,0.0,0.0,0.0,0.0,0.0,0.0,0.0,0.0,0.0,0.0,0.0,0.0,0.0,0.0,0.0,0.0,0.0,0.0,0.0,0.0,-1.5885,-1.6936,-1.7744,-1.8287,-1.8807,-1.8843,-1.836,-1.8312,-1.7793,0.0,0.0,0.0,0.0,0.0,0.0,0.0,0.0,0.0,0.0,0.0,0.0,0.0,0.0,0.0,0.0,0.0,0.0,0.0,0.0,0.0,0.0,0.0,0.0,0.0,0.0,0.0,0.0,0.0,0.0,0.0,0.0,0.0,0.0,0.0,0.0,0.0,0.0,0.0,0.0,0.0,-0.8892,-0.9176,-0.8953,-0.8755,0.0,0.0,-0.824,-0.8258,-0.8239,0.0,0.0,0.0,0.0,0.0,0.0,0.0,0.0,0.0,0.0,0.0,0.0,0.0,0.0,0.0,0.0,0.0,0.0,0.0,0.0,0.0,0.0,0.0,0.0,0.0,0.0,0.0,0.0,0.0,0.0,0.0,0.0,0.0,0.0,0.0,0.0,0.0,0.0,0.0,0.0,0.0,0.0,0.0,0.0,0.0,0.0,0.0,0.0,0.0,0.0,0.0,0.0,0.0,0.0,0.0,-1.4823,-1.5873,-1.6948,-1.7744,-1.8287,-1.8807,-1.8831,-1.83,-1.83,-1.7793,0.0,0.0,0.0,0.0,0.0,0.0,0.0,0.0,0.0,0.0,0.0,0.0,0.0,0.0,0.0,0.0,0.0,0.0,0.0,0.0,0.0,0.0,0.0,0.0,0.0,0.0,0.0,0.0,0.0,0.0,0.0,0.0,0.0,0.0,0.0,0.0,0.0,0.0,0.0,0.0,0.0,0.0,-0.9631,-0.962,0.0,0.0,0.0,-0.9419,-0.9438,0.0,0.0,0.0,0.0,0.0,0.0,0.0,0.0,0.0,0.0,0.0,0.0,0.0,0.0,0.0,0.0,0.0,0.0,0.0,0.0,0.0,0.0,0.0,0.0,0.0,0.0,0.0,0.0,0.0,0.0,0.0,0.0,0.0,0.0,0.0,0.0,0.0,0.0,0.0,0.0,0.0,0.0,0.0,0.0,0.0,0.0,0.0,0.0,0.0,0.0,0.0,0.0,0.0,0.0,0.0,0.0,0.0,-1.5885,-1.6936,-1.7744,-1.8287,-1.8807,-1.8819,-1.8312,-1.83,0.0,0.0,0.0,0.0,0.0,0.0,0.0,0.0,0.0,0.0,0.0,0.0,0.0,0.0,0.0,0.0,0.0,0.0,0.0,0.0,0.0,0.0,0.0,0.0,0.0,0.0,0.0,-1.1085,0.0,0.0,0.0,0.0,0.0,0.0,0.0,0.0,0.0,0.0,0.0,0.0,0.0,0.0,-1.0241,-1.0413,-1.0529,-1.0635,0.0,0.0,-1.0789,-1.0835,-1.0842,-1.0842,0.0,0.0,0.0,0.0,0.0,0.0,0.0,0.0,0.0,0.0,0.0,0.0,0.0,0.0,0.0,0.0,0.0,0.0,0.0,0.0,0.0,0.0,0.0,0.0,0.0,0.0,0.0,0.0,0.0,0.0,0.0,0.0,0.0,0.0,0.0,0.0,0.0,0.0,0.0,0.0,0.0,0.0,0.0,0.0,0.0,0.0,0.0,0.0,0.0,0.0,0.0,0.0,0.0,0.0,0.0,-1.5885,-1.6948,-1.7744,-1.8287,-1.8807,-1.8831,-1.8312,-1.83,-1.7901,0.0,0.0,0.0,0.0,0.0,0.0,0.0,0.0,0.0,0.0,0.0,0.0,0.0,0.0,0.0,0.0,0.0,0.0,0.0,0.0,0.0,0.0,0.0,0.0,0.0,0.0,0.0,0.0,0.0,0.0,0.0,0.0,0.0,0.0,0.0,0.0,0.0,0.0,0.0,0.0,0.0,-1.1842,-1.2025,-1.1977,-1.1989,0.0,0.0,-1.2143,-1.2253,-1.2277,-1.2277,-1.2277,0.0,0.0,0.0,0.0,0.0,0.0,0.0,0.0,0.0,0.0,0.0,0.0,0.0,0.0,0.0,0.0,0.0,0.0,0.0,0.0,0.0,0.0,0.0,0.0,0.0,0.0,0.0,0.0,0.0,0.0,0.0,0.0,0.0,0.0,0.0,0.0,0.0,0.0,0.0,0.0,0.0,0.0,0.0,0.0,0.0,0.0,0.0,0.0,0.0,0.0,0.0,0.0,0.0,-1.4823,-1.5885,-1.6948,-1.7744,-1.8287,-1.8807,-1.8903,-1.8541,-1.8384,-1.7986,0.0,0.0,0.0,0.0,0.0,0.0,0.0,0.0,0.0,0.0,0.0,0.0,0.0,0.0,0.0,0.0,0.0,0.0,0.0,0.0,0.0,0.0,0.0,0.0,0.0,0.0,0.0,0.0,-1.2771,-1.283,-1.2996,0.0,0.0,0.0,0.0,0.0,0.0,0.0,0.0,0.0,0.0,-1.2528,-1.2722,-1.2847,0.0,0.0,-1.295,-1.2966,-1.2981,-1.2989,-1.2989,-1.2989,-1.3106,0.0,0.0,0.0,0.0,0.0,0.0,0.0,0.0,0.0,0.0,0.0,0.0,0.0,0.0,0.0,0.0,0.0,0.0,0.0,0.0,0.0,0.0,0.0,0.0,0.0,0.0,0.0,0.0,0.0,0.0,0.0,0.0,0.0,0.0,0.0,0.0,0.0,0.0,0.0,0.0,0.0,0.0,0.0,0.0,0.0,0.0,0.0,0.0,0.0,0.0,0.0,0.0,-1.5028,-1.6006,-1.7056,-1.7817,-1.8287,-1.8807,-1.8951,-1.8686,-1.8432,-1.8082,0.0,0.0,0.0,0.0,0.0,0.0,0.0,0.0,0.0,0.0,0.0,0.0,0.0,0.0,0.0,0.0,0.0,0.0,0.0,0.0,0.0,0.0,0.0,0.0,0.0,0.0,0.0,0.0,-1.3619,-1.3662,-1.3979,0.0,0.0,0.0,0.0,0.0,0.0,0.0,0.0,0.0,0.0,-1.3624,-1.3763,-1.3832,-1.3897,-1.3897,-1.3934,-1.3943,-1.3943,-1.3997,-1.4042,-1.3969,0.0,0.0,0.0,0.0,0.0,0.0,0.0,0.0,0.0,0.0,0.0,0.0,0.0,0.0,0.0,0.0,0.0,0.0,0.0,0.0,0.0,0.0,0.0,0.0,0.0,0.0,0.0,0.0,0.0,0.0,-1.4232,0.0,0.0,0.0,0.0,0.0,0.0,0.0,0.0,0.0,0.0,0.0,0.0,0.0,0.0,0.0,0.0,0.0,0.0,0.0,0.0,0.0,0.0,-1.5475,-1.6272,-1.731,-1.7998,-1.83,-1.8807,-1.8951,-1.8698,-1.8432,-1.8155,-1.7865,0.0,0.0,0.0,0.0,0.0,0.0,0.0,0.0,0.0,0.0,0.0,0.0,0.0,0.0,0.0,0.0,0.0,0.0,0.0,0.0,0.0,0.0,0.0,0.0,0.0,0.0,-1.448,-1.466,-1.4761,0.0,0.0,0.0,0.0,0.0,0.0,0.0,0.0,0.0,0.0,-1.5155,-1.5359,-1.5317,-1.5173,-1.5067,-1.5067,-1.5146,-1.5139,-1.5139,-1.5385,-1.5536,0.0,0.0,0.0,0.0,0.0,0.0,0.0,0.0,0.0,0.0,0.0,0.0,0.0,0.0,0.0,0.0,0.0,0.0,0.0,0.0,0.0,0.0,0.0,0.0,0.0,0.0,0.0,-1.5523,-1.5354,0.0,0.0,0.0,0.0,0.0,0.0,0.0,0.0,0.0,0.0,0.0,-1.5885,-1.5897,0.0,0.0,0.0,0.0,0.0,0.0,0.0,0.0,0.0,0.0,0.0,0.0,-1.5499,-1.6338,-1.7334,-1.801,-1.83,-1.8807,-1.9036,-1.8939,-1.8686,-1.8251,-1.7636,0.0,0.0,0.0,0.0,0.0,0.0,0.0,0.0,0.0,0.0,0.0,0.0,0.0,0.0,0.0,0.0,0.0,0.0,0.0,0.0,0.0,0.0,0.0,0.0,0.0,-1.5128,0.0,0.0,0.0,0.0,0.0,0.0,0.0,0.0,0.0,0.0,0.0,-1.5318,-1.5471,-1.5552,-1.5704,-1.5934,-1.5979,-1.5873,0.0,0.0,0.0,0.0,0.0,0.0,0.0,0.0,0.0,0.0,0.0,0.0,0.0,0.0,-1.2962,-1.3175,-1.2621,-1.197,-1.1478,0.0,0.0,0.0,0.0,0.0,0.0,0.0,0.0,0.0,0.0,0.0,0.0,0.0,0.0,-1.6356,0.0,-1.5994,0.0,0.0,0.0,0.0,0.0,0.0,0.0,0.0,-1.6453,-1.6803,-1.6972,-1.6984,-1.6984,0.0,-1.6791,-1.6066,0.0,0.0,0.0,0.0,0.0,0.0,0.0,0.0,-1.5861,-1.6561,-1.7527,-1.8155,-1.8432,-1.8843,-1.9136,-1.9136,-1.8819,-1.8348,-1.7648,-1.737,-1.7105,0.0,0.0,0.0,0.0,0.0,0.0,0.0,0.0,0.0,0.0,0.0,0.0,0.0,0.0,0.0,0.0,0.0,0.0,0.0,0.0,0.0,0.0,0.0,-1.5741,0.0,0.0,0.0,0.0,0.0,0.0,0.0,0.0,0.0,-1.6252,-1.6221,-1.6273,-1.6364,-1.6385,-1.6433,-1.6599,0.0,0.0,0.0,0.0,0.0,0.0,0.0,-1.5772,-1.5634,-1.563,-1.5556,-1.5061,-1.4578,-1.4127,-1.3808,0.0,0.0,-1.3044,-1.2304,-1.1402,-1.0889,-1.0042,-0.9193,-0.8469,-0.767,-0.6918,0.0,0.0,0.0,0.0,0.0,0.0,0.0,0.0,-1.7527,-1.7515,0.0,-1.6984,0.0,0.0,0.0,0.0,0.0,-1.6501,0.0,0.0,-1.731,-1.7817,-1.8263,-1.7805,-1.7829,-1.8275,-1.7781,-1.7261,-1.6694,-1.5692,0.0,0.0,0.0,0.0,0.0,0.0,-1.6549,-1.7092,-1.7877,-1.842,-1.8674,-1.8939,-1.9136,-1.9136,-1.8819,-1.8432,-1.7925,-1.766,-1.7394,-1.7141,-1.6899,0.0,0.0,0.0,0.0,0.0,0.0,0.0,0.0,0.0,0.0,0.0,0.0,0.0,0.0,0.0,0.0,0.0,0.0,0.0,0.0,-1.6389,0.0,0.0,0.0,0.0,0.0,0.0,0.0,0.0,0.0,0.0,-1.7655,-1.7634,-1.7712,-1.7634,0.0,0.0,0.0,0.0,-1.6516,-1.6138,-1.6019,-1.5936,-1.5867,-1.6046,-1.6028,-1.5683,0.0,0.0,-1.5064,-1.4276,-1.3593,-1.3163,-1.2108,-1.156,-1.2472,-1.1397,-1.0393,-1.0053,-0.9105,-0.8079,-0.7176,-0.6416,-0.5525,-2.0002,0.0,0.0,0.0,0.0,-1.8613,-1.8625,-1.8688,-1.8613,-1.8517,-1.8312,-1.7986,0.0,0.0,0.0,0.0,0.0,0.0,-1.7841,-1.7877,-1.8577,-1.8988,-1.9132,-1.9181,-1.9169,-1.912,-1.8782,-1.8348,-1.7817,-1.7141,-1.6247,-1.5173,0.0,0.0,0.0,0.0,-1.6646,-1.7358,-1.7974,-1.842,-1.8686,-1.8939,-1.9136,-1.9136,-1.8819,-1.8613,-1.8456,-1.8203,-1.8022,-1.795,-1.7877,0.0,0.0,0.0,0.0,0.0,0.0,0.0,0.0,0.0,0.0,0.0,0.0,0.0,0.0,0.0,0.0,0.0,0.0,0.0,-1.6858,-1.6828,-1.6937,0.0,0.0,0.0,0.0,0.0,0.0,0.0,0.0,0.0,-1.785,-1.7791,-1.7588,0.0,0.0,-1.7256,-1.708,-1.6953,-1.6807,-1.6539,-1.6467,0.0,0.0,-1.5707,-1.5657,-1.5435,-1.504,-1.4588,-1.3823,-1.3319,-1.2611,-1.1812,-1.0842,-1.0123,-1.002,-0.9693,-0.911,-0.8525,-0.7448,-0.643,-0.5593,-0.4893,-0.4088,-2.1631,-2.0735,-1.9989,-1.9712,-1.9712,-1.97,-1.9712,-1.9712,-1.97,-1.9567,-1.9301,-1.9036,-1.877,-1.8555,-1.8288,0.0,0.0,0.0,-1.8819,-1.8951,-1.9519,-1.9893,-2.0098,-2.0158,-2.0178,-1.9941,-1.9676,-1.9229,-1.8601,-1.8275,-1.7539,-1.6465,0.0,0.0,-1.6211,-1.6465,-1.6948,-1.7683,-1.807,-1.8469,-1.8831,-1.9,-1.9136,-1.9072,-1.8927,-1.8794,-1.8686,-1.8529,-1.8396,-1.83,-1.83,-1.8215,0.0,0.0,0.0,0.0,0.0,0.0,0.0,0.0,0.0,0.0,0.0,-1.7274,-1.7551,0.0,0.0,0.0,-1.7628,-1.7571,-1.7325,-1.7292,0.0,0.0,0.0,0.0,0.0,0.0,0.0,-1.7989,-1.801,-1.7924,-1.77,-1.7621,-1.7454,-1.7258,-1.7258,-1.7172,-1.6947,0.0,-1.6597,-1.6291,-1.6098,-1.5923,-1.5569,-1.5364,-1.5165,-1.4849,-1.4242,-1.3589,-1.3047,-1.2306,-1.1504,-1.0508,-0.9557,-0.8622,-0.7952,-0.7624,-0.7386,-0.6999,-0.5945,-0.4876,-0.4093,-0.3425,-0.2739,-2.306,-2.2709,-2.1414,-2.0847,-2.0762,-2.0762,-2.075,-2.0738,-2.0726,-2.0593,-2.0352,-2.0086,-1.982,-1.9608,-1.9301,0.0,-1.9217,-1.947,-1.9736,-1.9989,-2.0255,-2.0629,-2.1147,-2.0847,-2.0807,-2.0726,-2.0448,-1.9929,-1.9229,-1.9172,-1.8698,-1.7962,-1.7201,-1.6803,-1.6779,-1.6984,-1.7358,-1.7901,-1.8167,-1.8541,-1.906,-1.9136,-1.9136,-1.9136,-1.9136,-1.8963,-1.8734,-1.871,-1.8601,-1.8372,-1.836,-1.836,-1.836,0.0,0.0,0.0,0.0,0.0,0.0,0.0,0.0,0.0,0.0,0.0,0.0,0.0,0.0,0.0,-1.8271,0.0,-1.7744,-1.7755,0.0,0.0,0.0,-1.7863,-1.8031,-1.8121,-1.7989,-1.784,0.0,0.0,-1.7238,-1.7238,-1.7168,-1.7097,-1.7168,-1.7026,-1.6664,-1.631,-1.5966,-1.5603,-1.5203,-1.506,-1.5136,-1.4843,-1.4392,-1.3935,-1.3347,-1.2796,-1.23,-1.1399,-1.0325,-0.9392,-0.8308,-0.7266,-0.6394,-0.5644,-0.5129,-0.5448,-0.4552,-0.3496,-0.2682,-0.2202,-0.164,-2.3804,-2.3514,-2.3007,-2.2319,-2.1595,-2.1583,-2.1462,-2.1293,-2.1293,-2.1257,-2.1172,-2.0965,-2.0698,-2.0376,-2.0384,-2.0291,-2.0303,-2.0569,-2.0783,-2.0798,-2.1064,-2.1257,-2.1378,-2.1317,-2.1293,-2.1257,-2.0798,-2.0541,-2.0255,-1.947,-1.8976,-1.877,-1.8203,-1.7708,-1.731,-1.7165,-1.7455,-1.8191,-1.8263,-1.8541,-1.9048,-1.9136,-1.9136,-1.9136,-1.9136,-1.9048,-1.8988,-1.8988,-1.8951,-1.8891,-1.8891,-1.8954,-1.8891,-1.8891,0.0,0.0,0.0,0.0,0.0,0.0,0.0,0.0,0.0,-1.8376,-1.8447,0.0,-1.849,0.0,-1.7994,-1.7866,-1.7981,-1.8003,0.0,0.0,-1.8272,-1.8143,-1.7987,-1.7928,-1.7809,-1.7439,-1.7449,-1.7168,-1.6532,-1.6461,-1.6249,-1.5692,-1.6108,-1.6178,-1.5541,-1.5337,-1.5266,-1.5132,-1.4871,-1.4694,-1.4398,-1.403,-1.3544,-1.2788,-1.2595,-1.2152,-1.0791,-1.0408,-0.963,-0.8232,-0.7204,-0.6324,-0.5572,-0.425,-0.3386,-0.3411,-0.3148,-0.2635,-0.1814,-0.1252,-0.093,-2.454,-2.4166,-2.3832,-2.3315,-2.273,-2.25,-2.2247,-2.2005,-2.2079,-2.1946,-2.1631,-2.1366,-2.1172,-2.1028,-2.1028,-2.1028,-2.104,-2.1185,-2.1305,-2.1498,-2.1583,-2.1716,-2.1824,-2.1824,-2.1764,-2.1643,-2.1221,-2.0907,-2.0641,-1.9953,-1.9483,-1.9241,-1.8843,-1.8432,-1.8022,-1.7756,-1.7901,-1.8456,-1.8577,-1.8782,-1.9124,-1.9136,-1.9136,-1.9136,-1.9136,-1.9132,-1.9306,-1.9318,-1.9314,-1.9422,-1.9434,-1.9434,-1.9434,-1.9434,-1.9374,0.0,0.0,0.0,0.0,0.0,0.0,0.0,0.0,0.0,0.0,0.0,-1.8452,-1.8156,-1.8049,-1.8089,-1.8229,-1.825,-1.8224,-1.8201,-1.8153,-1.8012,-1.7661,-1.765,-1.752,-1.7087,-1.6885,-1.6603,-1.6037,-1.5763,-1.5399,-1.4617,-1.4901,-1.5115,-1.483,-1.4625,-1.4474,-1.4261,-1.4049,-1.3672,-1.3228,-1.3086,-1.2755,-1.1996,-1.1753,-1.1262,-1.0175,-0.9475,-0.8696,-0.7455,-0.6442,-0.5563,-0.4712,-0.3544,-0.259,-0.218,-0.1927,-0.1585,-0.1168,-0.0674,-0.0425,-2.5083,-2.4578,-2.4395,-2.413,-2.3784,-2.3357,-2.306,-2.2782,-2.2745,-2.2455,-2.1909,-2.1679,-2.1583,-2.1583,-2.1583,-2.1583,-2.1583,-2.1583,-2.1704,-2.1921,-2.1921,-2.2042,-2.2334,-2.2346,-2.2138,-2.1909,-2.1655,-2.1269,-2.0844,-2.0472,-2.0074,-1.9579,-1.9301,-1.9048,-1.8782,-1.8553,-1.8529,-1.8686,-1.8939,-1.9136,-1.9136,-1.9136,-1.9084,-1.912,-1.912,-1.9253,-1.9572,-1.9519,-1.9627,-1.9869,-1.9881,-1.9881,-1.9881,-1.9881,-1.9881,0.0,-1.9881,0.0,0.0,0.0,0.0,0.0,0.0,0.0,0.0,-1.8474,-1.8178,-1.8121,-1.8315,-1.8433,-1.8433,-1.8363,-1.8223,-1.7931,-1.7861,-1.765,-1.7308,-1.7168,-1.7026,-1.6593,-1.6249,-1.5895,-1.539,-1.5115,-1.4546,-1.3904,-1.3761,-1.3833,-1.4047,-1.3904,-1.3611,-1.3253,-1.2934,-1.2605,-1.2121,-1.2166,-1.2108,-1.1333,-1.0868,-1.033,-0.9864,-0.8847,-0.7755,-0.6915,-0.5906,-0.4859,-0.4057,-0.3137,-0.226,-0.1509,-0.1006,-0.0672,-0.0589,-0.0337,0.0,-2.5446,-2.4951,-2.4673,-2.4395,-2.4142,-2.3828,-2.3418,-2.3024,-2.2818,-2.2552,-2.2261,-2.2138,-2.2188,-2.2114,-2.2188,-2.2188,-2.2114,-2.2188,-2.2212,-2.2186,-2.2186,-2.2211,-2.2334,-2.2346,-2.2309,-2.2174,-2.1921,-2.1631,-2.1317,-2.0834,-2.0436,-2.0122,-1.9869,-1.9591,-1.9326,0.0,0.0,0.0,-1.8939,-1.9136,-1.9136,-1.9136,-1.9181,-1.9451,-1.9463,0.0,-1.9784,-1.9808,-1.9833,-1.9881,-1.9881,0.0,0.0,0.0,0.0,0.0,0.0,0.0,0.0,0.0,0.0,0.0,-1.9057,-1.8979,-1.8651,-1.8462,-1.8395,-1.8369,-1.8342,-1.8433,-1.8433,-1.8153,-1.7931,-1.7931,-1.759,-1.7228,-1.6875,-1.6603,-1.6249,-1.5886,-1.547,-1.4972,-1.4403,-1.4118,-1.3833,-1.3111,-1.3039,-1.2753,-1.2252,-1.2681,-1.2968,-1.2911,-1.2445,-1.1945,-1.1384,-1.1389,-1.1417,-1.0796,-1.0408,-0.9864,-0.9163,-0.8306,-0.7369,-0.6587,-0.5396,-0.4408,-0.393,-0.2596,-0.1562,-0.1327,-0.0664,-0.0167,-0.0084,0.0,0.0,-2.559,0.0,-2.4806,-2.4552,0.0,-2.3928,-2.3695,-2.3418,-2.3097,-2.2709,-2.2346,-2.2346,-2.2346,-2.2346,-2.2346,-2.2346,-2.2346,-2.2346,-2.2346,-2.2346,-2.2346,-2.2346,-2.2346,-2.2346,-2.2346,-2.2321,-2.2067,-2.18,-2.1643,-2.1124,-2.0726,-2.046,-2.0207,-1.9941,-1.9688,-1.9676,-1.941,-1.8879,-1.9012,-1.9132,-1.933,-1.9265,-1.9398,-1.9664,0.0,0.0,0.0,0.0,0.0,0.0,0.0,0.0,0.0,0.0,0.0,-2.0267,-2.0279,-2.0191,-1.991,-1.9715,-1.9485,-1.9052,-1.8773,-1.8659,-1.8539,-1.8438,-1.8433,-1.8363,-1.8223,-1.8153,-1.8153,-1.7791,-1.751,-1.7298,-1.7157,-1.6805,-1.624,-1.6028,-1.5753,-1.5328,-1.483,-1.4332,-1.3975,-1.3539,-1.3039,-1.2323,-1.2244,-1.1958,-1.1312,-1.1749,-1.2101,-1.1756,-1.157,-1.1258,-1.0818,-1.0833,-1.0796,-1.033,-0.9942,-0.9475,-0.8934,-0.8076,-0.7213,-0.6434,-0.5226,-0.4312,-0.3759,-0.2421,-0.1304,-0.1229,-0.0575,0.0,0.0,0.0,0.0,-2.5651,-2.5325,-2.483,-2.4601,-2.4516,-2.4045,-2.3712,-2.3671,0.0,0.0,0.0,-2.2346,-2.2346,-2.2346,-2.2346,-2.2346,-2.2346,-2.2346,-2.2346,-2.2346,-2.2346,-2.2346,-2.2346,-2.2346,-2.2346,-2.2247,-2.2116,-2.1909,-2.1934,-2.1414,-2.1147,-2.081,-2.0557,-2.0267,-1.9977,-1.9905,-1.9664,-1.9241,-1.9217,-1.9378,-1.9531,-1.9543,-1.9676,-1.9953,-1.9953,-2.0074,-2.0327,-2.0352,-2.0517,-2.0653,-2.0665,-2.0665,-2.0665,-2.0665,-2.0665,-2.0665,-2.0665,-2.0457,-2.004,-1.975,-1.9401,-1.8924,-1.8573,-1.8433,-1.8433,-1.8363,-1.8293,-1.8293,-1.8012,-1.7791,-1.7791,-1.7439,-1.7026,-1.6664,-1.6523,-1.624,-1.5612,-1.5461,-1.5248,-1.483,-1.4189,-1.3753,-1.3547,-1.2968,-1.2323,-1.1678,-1.1462,-1.1175,-1.0671,-1.1031,-1.1175,-1.0618,-1.0657,-1.0604,-1.0295,-1.0298,-1.0291,-1.0092,-0.963,-0.9168,-0.8778,-0.7998,-0.7135,-0.6431,-0.53,-0.4373,-0.3825,-0.2407,-0.1376,-0.1298,0.0,0.0,0.0,0.0,0.0,-2.5542,-2.5071,-2.4758,-2.4492,-2.4181,-2.3892,-2.3587,-2.323,-2.3157,-2.2818,-2.2346,-2.2346,-2.2346,-2.2346,-2.2346,-2.2346,-2.2346,-2.2346,-2.2346,0.0,-2.2346,-2.2346,-2.2346,-2.2346,-2.2346,-2.2334,-2.2223,-2.209,-2.1958,-2.1788,-2.1619,-2.1354,-2.1088,-2.0771,-2.0243,-2.0002,-1.9845,-1.9772,-1.9772,-1.9796,-1.9833,-1.982,-1.9953,-2.0207,-2.0219,-2.0352,-2.0605,-2.0605,-2.0629,-2.0665,-2.0665,-2.0665,-2.0665,-2.0665,-2.0665,-2.0665,-2.0665,-2.0388,-1.975,-1.9611,-1.9273,-1.8573,-1.8433,-1.8433,-1.8363,-1.8153,-1.8002,-1.7931,-1.759,-1.7379,-1.7379,-1.7017,-1.6664,-1.632,-1.5966,-1.5532,-1.5115,-1.483,-1.4546,-1.4118,-1.369,-1.3111,-1.2545,-1.2115,-1.1606,-1.1181,-1.0822,-1.0455,-1.0167,-1.0383,-1.0455,-1.0113,-1.0073,-1.0065,-0.988,-0.9851,-0.9982,-1.0008,-0.9402,-0.8934,-0.8856,-0.7842,-0.6904,-0.6349,-0.5268,-0.4409,-0.3861,-0.2442,-0.1508,-0.128,-0.0561,0.0,0.0,0.0,0.0,-2.5397,-2.4939,-2.4662,-2.448,-2.4214,-2.388,-2.3538,-2.3133,-2.3121,-2.283,-2.2358,-2.2346,-2.2346,-2.2346,-2.2346,-2.2346,-2.2346,-2.2346,-2.2346,-2.2346,-2.2346,-2.2346,-2.2346,-2.2346,-2.2346,-2.2346,-2.2346,-2.2198,-2.2078,-2.2019,-2.1812,-2.1679,-2.1426,-2.1088,-2.0783,-2.0581,-2.046,-2.0303,-2.0038,-1.9953,-2.0086,-2.0098,-2.0219,-2.0484,-2.0553,-2.0545,-2.0665,-2.0665,-2.0665,-2.0665,-2.0665,-2.0665,-2.0665,-2.0665,-2.0665,-2.0665,-2.0665,-2.0388,-1.9611,-1.9192,-1.8784,-1.8433,-1.8433,-1.8363,-1.8153,-1.8002,-1.7791,-1.758,-1.7238,-1.7017,-1.6946,-1.6452,-1.6028,-1.5886,-1.5541,-1.5115,-1.4759,-1.4403,-1.3975,-1.3611,-1.3039,-1.2474,-1.1972,-1.1541,-1.1038,-1.0534,-1.0101,-0.9807,-0.959,-0.9735,-0.9807,-0.9602,-0.9703,-0.9752,-0.9725,-0.9764,-0.9801,-1.0003,-0.9324,-0.8856,-0.87,-0.792,-0.7056,-0.6353,-0.5414,-0.4552,-0.3925,-0.2434,-0.1576,-0.1264,-0.0634,0.0,0.0,0.0,0.0,-2.524,-2.4855,-2.4721,-2.4444,-2.413,-2.3856,-2.3562,-2.3152,-2.3145,-2.2854,-2.2455,-2.237,-2.2346,-2.2346,-2.2346,-2.2346,-2.2346,-2.2346,-2.2346,-2.2346,-2.2346,-2.2346,-2.2346,-2.2346,-2.2346,-2.2346,-2.2346,-2.2346,-2.2235,-2.2054,-2.1921,-2.186,-2.1667,-2.1438,-2.116,-2.1231,-2.1028,-2.075,-2.0352,-2.0219,-2.0364,-2.0364,-2.046,-2.0653,-2.0665,-2.0665,-2.0665,-2.0665,-2.0665,-2.0665,-2.0665,-2.0665,-2.0665,-2.0665,-2.0665,-2.0665,-2.0665,-2.0388,-1.9611,-1.8843,-1.8433,-1.8433,-1.8293,-1.8153,-1.7791,-1.7721,-1.751,-1.7168,-1.6805,-1.6523,-1.6381,-1.5957,-1.5532,-1.539,-1.5115,-1.4688,-1.4261,-1.3975,-1.3547,-1.3118,-1.2545,-1.2043,-1.1541,-1.1109,-1.0606,-0.9879,-0.9446,-0.9302,-0.9302,-0.9302,-0.9302,-0.9318,-0.9389,-0.9481,-0.9612,-0.972,-0.9835,-0.996,-0.9309,-0.8929,-0.8622,-0.8076,-0.7213,-0.6431,-0.5567,-0.4709,-0.3846,-0.2434,-0.1493,-0.1258,-0.0629,0.0,0.0,0.0,0.0,-2.5144,-2.4697,-2.4637,-2.4335,-2.382,-2.3772,-2.3671,-2.3315,-2.3152,-2.2963,-2.2673,-2.2443,-2.2346,-2.2346,-2.2346,-2.2346,-2.2346,-2.2346,-2.2346,-2.2346,-2.2346,-2.2346,-2.2346,-2.2346,-2.2346,-2.2346,-2.2346,-2.2346,-2.2334,-2.2309,-2.2102,-2.197,-2.1922,-2.1704,-2.1474,-2.1438,-2.1305,-2.1098,-2.1038,-2.0917,-2.0641,-2.0629,-2.0641,-2.0665,-2.0665,-2.0665,-2.0665,-2.0665,-2.0665,-2.0665,-2.0665,-2.0665,-2.0665,-2.0665,-2.0665,-2.0665,-2.0665,-2.0388,-1.9611,-1.8854,-1.8433,-1.8363,-1.8142,-1.7801,-1.7379,-1.7017,-1.6805,-1.6664,-1.6452,-1.6108,-1.5753,-1.5603,-1.5257,-1.4759,-1.4546,-1.4261,-1.3619,-1.3396,-1.3118,-1.2409,-1.2201,-1.1907,-1.1188,-1.075,-1.0239,-0.9518,-0.9374,-0.9302,-0.9302,-0.9302,-0.9302,-0.9302,-0.9323,-0.9378,-0.9497,-0.9606,-0.9737,-0.9769,-0.9258,-0.8847,-0.8622,-0.8072,-0.7213,-0.6427,-0.557,-0.4787,-0.3768,-0.2512,-0.1413,-0.1178,0.0,0.0,0.0,0.0,0.0,-2.5035,-2.4637,-2.4625,-2.4323,-2.3876,-2.384,-2.3616,-2.3375,-2.3333,-2.3056,-2.2745,-2.2612,-2.2416,-2.2346,-2.2346,-2.2346,-2.2346,-2.2346,-2.2346,-2.2346,-2.2346,-2.2346,-2.2346,-2.2346,-2.2346,-2.2346,-2.2346,-2.2346,-2.2346,-2.2346,-2.2273,-2.2188,-2.2176,-2.2043,-2.174,-2.1704,-2.1583,-2.1317,-2.1305,-2.1172,-2.0919,-2.082,-2.0665,-2.0665,-2.0665,-2.0665,-2.0665,-2.0665,-2.0665,-2.0665,-2.0665,-2.0665,-2.0665,-2.0665,-2.0665,-2.0665,-2.0457,-2.011,-1.9611,-1.9063,-1.8643,-1.8433,-1.8072,-1.7721,-1.7308,-1.6946,-1.6523,-1.6098,-1.5886,-1.5683,-1.5328,-1.5044,-1.483,-1.4474,-1.4118,-1.3619,-1.3325,-1.2986,-1.2583,-1.2223,-1.1911,-1.1418,-1.0768,-1.0167,-0.9663,-0.9374,-0.9307,-0.9318,-0.9307,-0.9302,-0.9302,-0.9302,-0.9302,-0.9356,-0.9465,-0.959,-0.9704,-0.9671,-0.9248,-0.8778,-0.87,-0.8072,-0.7213,-0.6427,-0.5567,-0.4787,-0.3925,-0.2512,-0.1335,-0.1099,0.0,0.0,0.0,0.0,0.0,-2.512,-2.4649,-2.448,-2.4202,-2.3772,-2.384,-2.3652,-2.3483,-2.3411,-2.3225,-2.2887,-2.2866,-2.2733,-2.2552,-2.2331,-2.2346,-2.2346,-2.2346,-2.2346,-2.2346,-2.2346,-2.2346,-2.2346,-2.2346,-2.2346,-2.2346,-2.2346,-2.2346,-2.2346,-2.2346,-2.2346,-2.2346,-2.2346,-2.2162,-2.1993,-2.1981,-2.1848,-2.1619,-2.1583,-2.1462,-2.1185,-2.0977,-2.0807,-2.0678,-2.0665,-2.0665,-2.0665,-2.0665,-2.0665,-2.0665,-2.0665,-2.0665,-2.0665,-2.0665,-2.0665,-2.0665,-2.0249,-1.982,-1.9611,-1.9133,-1.8643,-1.8293,-1.7931,-1.759,-1.7157,-1.6664,-1.6098,-1.5541,-1.539,-1.5115,-1.491,-1.4546,-1.4357,-1.4256,-1.361,-1.3195,-1.3111,-1.2641,-1.237,-1.1987,-1.1623,-1.1123,-1.0523,-0.9849,-0.9421,-0.9421,-0.9416,-0.9405,-0.9405,-0.941,-0.941,-0.9405,-0.9405,-0.941,-0.9449,-0.9574,-0.9693,-0.9639,-0.9213,-0.8778,-0.87,-0.8072,-0.7213,-0.6427,-0.5567,-0.4706,-0.3846,-0.2512,-0.1178,-0.0864,0.0,0.0,0.0,0.0,0.0,-2.512,-2.4589,-2.4013,-2.3888,-2.384,-2.384,-2.384,-2.37,-2.3495,-2.3351,-2.3267,-2.314,-2.3097,-2.3024,-2.25,-2.2271,-2.2346,-2.2358,-2.2358,-2.2346,-2.2346,-2.2346,-2.2346,-2.2346,-2.2346,-2.2346,-2.2346,-2.2346,-2.2346,-2.2346,-2.2346,-2.2346,-2.2346,-2.2259,-2.2297,-2.2297,-2.2176,-2.1885,-2.1934,-2.1728,-2.1462,-2.1256,-2.1013,-2.0714,-2.0665,-2.0665,-2.0665,-2.0665,-2.0665,-2.0665,-2.0665,-2.0665,-2.0665,-2.0665,-2.0665,-2.0596,-2.004,-1.9611,-1.9541,-1.8924,-1.8293,-1.7931,-1.759,-1.7168,-1.6734,-1.6169,-1.5532,-1.5044,-1.4776,-1.4571,-1.45,-1.4151,-1.3842,-1.3688,-1.3283,-1.2912,-1.2674,-1.2621,-1.2196,-1.1648,-1.1343,-1.0971,-1.0306,-0.9874,-0.9703,-0.9622,-0.9639,-0.9633,-0.9617,-0.9628,-0.9628,-0.9622,-0.9612,-0.9574,-0.94,-0.9546,-0.9671,-0.9602,-0.9285,-0.8778,-0.8466,-0.8072,-0.7291,-0.6427,-0.5567,-0.4706,-0.3768,-0.2591,-0.1256,0.0,0.0,0.0,0.0,0.0,0.0,-2.512,-2.4601,-2.4157,-2.3997,-2.3772,-2.384,-2.384,-2.384,-2.3664,-2.3519,-2.3375,-2.3345,-2.3212,-2.3109,-2.2927,-2.2745,-2.2588,-2.2588,-2.2503,-2.2358,-2.2346,-2.2346,-2.2346,-2.2346,-2.2346,-2.2346,-2.2346,-2.2346,-2.2346,-2.2346,-2.2346,-2.2346,-2.2346,-2.2346,-2.2346,-2.2346,-2.2211,-2.22,-2.2188,-2.1993,-2.1752,-2.1631,-2.1378,-2.1013,-2.075,-2.0665,-2.0665,-2.0665,-2.0665,-2.0665,-2.0665,-2.0665,-2.0665,-2.0665,-2.0665,-2.0665,-2.0249,-1.9831,-1.9611,-1.9063,-1.8493,-1.7931,-1.752,-1.7026,-1.6461,-1.5886,-1.5319,-1.4776,-1.4457,-1.4147,-1.393,-1.3786,-1.3592,-1.3225,-1.2956,-1.2667,-1.2582,-1.2292,-1.1868,-1.1414,-1.1014,-1.0416,-1.0058,-0.9746,-0.9666,-0.9666,-0.9671,-0.9677,-0.9671,-0.9671,-0.9682,-0.9671,-0.9741,-0.9644,-0.9574,-0.9666,-0.971,-0.9671,-0.9449,-0.9061,-0.8778,-0.831,-0.7607,-0.6509,-0.5567,-0.4549,-0.3611,-0.2434,0.0,0.0,0.0,0.0,0.0,0.0,0.0,-2.5047,-2.4613,-2.4347,-2.4082,-2.3852,-2.384,-2.384,-2.384,-2.384,-2.3664,-2.3519,-2.3507,-2.3466,-2.3321,-2.3297,-2.3152,-2.2911,-2.2826,-2.2721,-2.2479,-2.2467,-2.2418,-2.2346,-2.2346,-2.2346,-2.2346,-2.2346,-2.2346,-2.2346,-2.2346,-2.2346,-2.2346,-2.2346,-2.2346,-2.2346,-2.2346,-2.2346,-2.2346,-2.2346,-2.2237,-2.2079,-2.1909,-2.1704,-2.1329,-2.0979,-2.075,-2.0678,-2.0665,-2.0665,-2.0665,-2.0665,-2.0665,-2.0665,-2.0665,-2.0665,-2.0457,-2.0179,-1.9761,-1.9401,-1.8912,-1.8352,-1.7721,-1.7238,-1.6673,-1.6037,-1.5595,-1.5051,-1.4529,-1.4156,-1.3822,-1.339,-1.3354,-1.3237,-1.2956,-1.2596,-1.2306,-1.2354,-1.1917,-1.146,-1.1106,-1.0556,-1.0095,-0.9856,-0.9786,-0.9791,-0.978,-0.978,-0.978,-0.978,-0.978,-0.9786,-0.9786,-0.9796,-0.9802,-0.978,-0.9851,-0.9845,-0.9714,-0.9619,-0.9299,-0.8856,-0.8471,-0.7764,-0.6587,-0.5489,-0.4473,-0.3297,-0.212,0.0,0.0,0.0,0.0,0.0,0.0,0.0,-2.4902,-2.4625,-2.4347,-2.4118,-2.382,-2.3772,-2.384,-2.384,-2.384,-2.3828,-2.3712,-2.3816,-2.378,-2.3804,-2.3744,-2.3592,-2.3406,-2.3188,-2.3012,-2.2745,-2.2709,-2.2576,-2.2382,-2.2346,-2.2346,-2.2346,-2.2346,-2.2346,-2.2346,-2.2346,-2.2346,-2.2346,-2.2346,-2.2346,-2.2346,-2.2346,-2.2346,-2.2346,-2.2346,-2.2247,-2.2309,-2.2017,-2.1873,-2.1776,-2.1425,-2.0967,-2.0702,-2.0678,-2.0665,-2.0665,-2.0665,-2.0665,-2.0665,-2.0665,-2.0527,-2.0179,-1.9831,-1.9401,-1.8993,-1.8374,-1.7832,-1.7278,-1.6632,-1.6183,-1.5641,-1.5093,-1.46,-1.4196,-1.3893,-1.3483,-1.2902,-1.2778,-1.2856,-1.2809,-1.2195,-1.188,-1.1818,-1.156,-1.1101,-1.069,-1.0214,-1.0008,-1.0008,-0.9981,-0.997,-0.997,-0.9976,-0.997,-0.9965,-0.996,-0.9998,-0.9998,-0.996,-0.9932,-0.997,-1.0008,-0.9938,-0.9818,-0.965,-0.9402,-0.8934,-0.8544,-0.7764,-0.6666,-0.5257,-0.416,-0.2669,-0.157,-0.1021,0.0,0.0,0.0,0.0,0.0,0.0,-2.5156,-2.489,-2.4625,-2.4359,-2.4025,-2.3925,-2.384,-2.384,-2.384,-2.384,-2.384,-2.384,-2.384,-2.384,-2.384,-2.3724,-2.3719,-2.3611,-2.3357,-2.2959,-2.2818,-2.2621,-2.2588,-2.2343,-2.2346,-2.2346,-2.2346,-2.2346,-2.2346,-2.2346,-2.2346,-2.2346,-2.2346,-2.2346,-2.2346,-2.2346,-2.2346,-2.2346,-2.2346,-2.2346,-2.2334,-2.2261,-2.2054,-2.1946,-2.1691,-2.1414,-2.1038,-2.0762,-2.0678,-2.0665,-2.0665,-2.0665,-2.0665,-2.0457,-2.0249,-2.004,-1.9552,-1.8982,-1.8595,-1.8241,-1.7674,-1.6917,-1.6591,-1.6086,-1.5293,-1.475,-1.4351,-1.3932,-1.3476,-1.3047,-1.2835,-1.2415,-1.2233,-1.2076,-1.1913,-1.167,-1.1405,-1.1107,-1.0641,-1.0253,-1.0097,-1.0019,-1.0019,-1.0019,-1.0019,-1.0019,-1.0019,-1.0019,-1.0019,-1.0019,-1.0019,-1.0019,-1.0019,-1.0019,-1.0019,-1.0019,-0.9981,-0.9943,-0.9754,-0.9402,-0.8934,-0.8622,-0.7759,-0.6509,-0.5179,-0.3846,-0.2277,-0.1335,-0.0864,-0.0393,0.0,0.0,0.0,0.0,0.0,-2.5289,-2.4951,-2.4854,-2.4564,-2.4238,-2.4045,-2.3844,-2.3852,-2.384,-2.384,-2.384,-2.384,-2.384,-2.384,-2.384,-2.384,-2.384,-2.384,-2.3659,-2.3333,-2.3068,-2.2862,-2.2657,-2.2467,-2.2346,-2.2346,-2.2346,-2.2346,-2.2346,-2.2346,-2.2346,-2.2346,-2.2346,-2.2346,-2.2346,-2.2346,-2.2346,-2.2346,-2.2346,-2.2346,-2.2346,-2.2346,-2.2186,-2.2103,-2.1921,-2.1704,-2.1437,-2.1016,-2.0762,-2.069,-2.0665,-2.0665,-2.0457,-2.0261,-1.997,-1.9634,-1.9212,-1.8704,-1.8312,-1.7868,-1.7402,-1.6695,-1.6287,-1.5762,-1.4967,-1.4473,-1.409,-1.3522,-1.3195,-1.2901,-1.2685,-1.228,-1.1837,-1.1542,-1.1439,-1.1256,-1.0874,-1.0563,-1.033,-1.0097,-1.0019,-1.0019,-1.0019,-1.0019,-1.0019,-1.0019,-1.0019,-1.0019,-1.0019,-1.0019,-1.0019,-1.0019,-1.0019,-1.0019,-1.0019,-1.0019,-1.0019,-1.0008,-0.9931,-0.948,-0.8934,-0.8778,-0.8232,-0.6353,-0.4865,-0.3768,-0.2357,-0.1649,-0.1099,-0.055,0.0,0.0,0.0,0.0,0.0,-2.5289,-2.5071,-2.4963,-2.4758,-2.4335,-2.4193,-2.4037,-2.382,-2.3888,-2.3876,-2.3772,-2.384,-2.384,-2.384,-2.384,-2.384,-2.384,-2.384,-2.3828,-2.3731,-2.3526,-2.3188,-2.2681,-2.2503,-2.2394,-2.2346,-2.2346,-2.2346,-2.2346,-2.2346,-2.2346,-2.2346,-2.2346,-2.2346,-2.2346,-2.2346,-2.2346,-2.2346,-2.2346,-2.2346,-2.2346,-2.2346,-2.2334,-2.2235,-2.2029,-2.1885,-2.1813,-2.1413,-2.0955,-2.0714,-2.0665,-2.0457,-2.0179,-2.0052,-1.9749,-1.913,-1.8812,-1.842,-1.8063,-1.7428,-1.6821,-1.6527,-1.5676,-1.4835,-1.4529,-1.4192,-1.3733,-1.3141,-1.3027,-1.2874,-1.2488,-1.203,-1.1643,-1.1262,-1.0868,-1.0486,-1.0097,-1.0019,-1.0019,-1.0019,-1.0019,-1.0019,-1.0019,-1.0019,-1.0019,-1.0019,-1.0019,-1.0019,-1.0019,-1.0019,-1.0019,-1.0019,-1.0019,-1.0019,-1.0019,-1.0019,-1.0019,-1.0019,-0.9942,-0.9558,-0.8778,-0.8544,-0.8072,-0.6275,-0.4711,-0.3613,-0.2749,-0.1963,-0.1256,-0.0628,0.0,0.0,0.0,0.0,0.0,-2.5312,-2.5313,-2.5047,-2.4879,-2.4723,-2.4625,-2.4371,-2.4154,-2.413,-2.4009,-2.3808,-2.384,-2.384,-2.384,-2.384,-2.384,-2.384,-2.384,-2.384,-2.376,-2.3792,-2.3321,-2.2842,-2.2661,-2.244,-2.237,-2.2346,-2.2346,-2.2346,-2.2346,-2.2346,-2.2346,-2.2346,-2.2346,-2.2346,-2.2346,-2.2346,-2.2346,-2.2346,-2.2346,-2.2346,-2.2346,-2.2346,-2.2334,-2.2186,-2.2054,-2.1873,-2.1547,-2.1136,-2.0714,-2.0388,-2.0249,-2.0087,-1.9735,-1.9331,-1.8866,-1.8608,-1.8093,-1.7341,-1.7064,-1.6647,-1.5777,-1.5261,-1.483,-1.4457,-1.3724,-1.3293,-1.2993,-1.2797,-1.2501,-1.2114,-1.1727,-1.1184,-1.0486,-1.0253,-1.0175,-1.0019,-1.0019,-1.0019,-1.0019,-1.0019,-1.0019,-1.0019,-1.0019,-1.0019,-1.0019,-1.0019,-1.0019,-1.0019,-1.0019,-1.0019,-1.0019,-1.0019,-1.0019,-1.0019,-1.0019,-1.0019,-1.0019,-0.9864,-0.963,-0.87,-0.7842,-0.7213,-0.6037,-0.4787,-0.3691,-0.2905,-0.212,-0.1492,-0.0785,0.0,0.0,0.0,0.0,0.0,-2.5348,-2.5421,-2.5192,-2.5059,-2.4951,-2.4783,-2.4649,-2.4407,-2.4275,-2.4154,-2.4009,-2.3808,-2.384,-2.384,-2.384,-2.384,-2.384,-2.384,-2.384,-2.384,-2.384,-2.3514,-2.3056,-2.2802,-2.2648,-2.2428,-2.2382,-2.2346,-2.2346,-2.2346,-2.2346,-2.2346,-2.2346,-2.2346,-2.2346,-2.2346,-2.2346,-2.2346,-2.2346,-2.2346,-2.2346,-2.2346,-2.2346,-2.2346,-2.2334,-2.2138,-2.1885,-2.1716,-2.1354,-2.0887,-2.058,-2.0297,-1.9884,-1.9498,-1.9011,-1.8651,-1.8195,-1.7591,-1.7037,-1.6674,-1.6095,-1.5286,-1.4927,-1.4422,-1.3968,-1.3358,-1.3042,-1.2811,-1.2656,-1.2347,-1.1882,-1.1417,-1.0719,-1.0175,-1.0019,-1.0019,-1.0019,-1.0019,-1.0019,-1.0019,-1.0019,-1.0019,-1.0019,-1.0019,-1.0019,-1.0019,-1.0019,-1.0019,-1.0019,-1.0019,-1.0019,-1.0019,-1.0019,-1.0019,-1.0019,-1.0019,-1.0019,-1.0019,-0.9786,-0.948,-0.87,-0.7603,-0.6822,-0.6118,-0.4865,-0.3846,-0.314,-0.2356,-0.1492,-0.0864,-0.0393,0.0,0.0,0.0,0.0,-2.5348,-2.5348,-2.5348,-2.5301,-2.5035,-2.5083,-2.4927,-2.4661,-2.4386,-2.4335,-2.4145,-2.3928,-2.3844,-2.3888,-2.3876,-2.384,-2.384,-2.384,-2.384,-2.384,-2.3748,-2.3592,-2.3351,-2.2947,-2.2782,-2.2661,-2.2455,-2.2358,-2.2346,-2.2346,-2.2346,-2.2346,-2.2346,-2.2346,-2.2346,-2.2346,-2.2346,-2.2346,-2.2346,-2.2346,-2.2346,-2.2346,-2.2346,-2.2346,-2.2346,-2.2162,-2.2005,-2.1897,-2.1642,-2.0967,-2.0836,-2.0393,-1.9765,-1.9362,-1.8884,-1.8414,-1.7679,-1.7142,-1.6786,-1.6004,-1.542,-1.4952,-1.4499,-1.3975,-1.3351,-1.3042,-1.2888,-1.2579,-1.2501,-1.2114,-1.165,-1.0952,-1.0486,-1.0097,-1.0019,-1.0019,-1.0019,-1.0019,-1.0019,-1.0019,-1.0019,-1.0019,-1.0019,-1.0019,-1.0019,-1.0019,-1.0019,-1.0019,-1.0019,-1.0019,-1.0019,-1.0019,-1.0019,-1.0019,-1.0019,-1.0019,-1.0019,-1.0019,-0.9636,-0.9324,-0.8778,-0.7842,-0.7056,-0.6118,-0.5022,-0.4238,-0.3689,-0.2748,-0.1649,-0.1021,-0.055,0.0,0.0,0.0,0.0,-2.5348,-2.5348,-2.5348,-2.5409,-2.5361,-2.5349,-2.5204,-2.4867,-2.489,-2.4626,-2.4516,-2.4263,-2.4166,-2.4061,-2.3892,-2.384,-2.3888,-2.3876,-2.384,-2.384,-2.384,-2.3748,-2.3647,-2.32,-2.2939,-2.2733,-2.2467,-2.2346,-2.2346,-2.2346,-2.2346,-2.2346,-2.2346,-2.2346,-2.2346,-2.2346,-2.2346,-2.2346,-2.2346,-2.2346,-2.2346,-2.2346,-2.2346,-2.2346,-2.2346,-2.2321,-2.2273,-2.2249,-2.1853,-2.1191,-2.0704,-2.0291,-1.973,-1.9201,-1.861,-1.7981,-1.7529,-1.6894,-1.6066,-1.5472,-1.4968,-1.4515,-1.3891,-1.3274,-1.312,-1.2811,-1.2656,-1.2424,-1.2192,-1.1727,-1.1029,-1.0486,-1.0175,-1.0019,-1.0019,-1.0019,-1.0019,-1.0019,-1.0019,-1.0019,-1.0019,-1.0019,-1.0019,-1.0019,-1.0019,-1.0019,-1.0019,-1.0019,-1.0019,-1.0019,-1.0019,-1.0019,-1.0019,-1.0019,-1.0019,-1.0019,-1.0019,-1.0019,-0.9713,-0.9246,-0.8778,-0.8232,-0.7369,-0.6353,-0.5181,-0.4552,-0.3925,-0.2591,-0.1256,-0.0942,0.0,0.0,0.0,0.0,0.0,-2.5348,-2.5348,-2.5348,-2.5348,-2.5348,-2.5348,-2.5361,-2.5216,-2.5096,-2.4879,-2.4794,-2.454,-2.442,-2.4407,-2.4287,-2.4226,-2.4097,-2.4069,-2.3868,-2.3796,-2.384,-2.384,-2.37,-2.3442,-2.3092,-2.2838,-2.2648,-2.2479,-2.237,-2.2346,-2.2346,-2.2346,-2.2346,-2.2346,-2.2346,-2.2346,-2.2346,-2.2346,-2.2346,-2.2346,-2.2346,-2.2346,-2.2346,-2.2346,-2.2346,-2.2346,-2.2334,-2.2334,-2.1885,-2.1302,-2.0809,-2.028,-1.9552,-1.8988,-1.8376,-1.7662,-1.7037,-1.6424,-1.5505,-1.4968,-1.4438,-1.3821,-1.3351,-1.3042,-1.2888,-1.2579,-1.2424,-1.2269,-1.196,-1.1572,-1.0719,-1.0253,-1.0019,-1.0019,-1.0019,-1.0019,-1.0019,-1.0019,-1.0019,-1.0019,-1.0019,-1.0019,-1.0019,-1.0019,-1.0019,-1.0019,-1.0019,-1.0019,-1.0019,-1.0019,-1.0019,-1.0019,-1.0019,-1.0019,-1.0019,-1.0019,-1.0019,-1.0019,-0.9864,-0.9402,-0.8856,-0.8306,-0.7759,-0.6584,-0.5332,-0.4552,-0.3768,-0.2356,-0.1334,-0.1099,0.0,0.0,0.0,0.0,0.0,-2.5348,-2.5348,-2.5348,-2.5348,-2.5348,-2.5348,-2.5348,-2.5312,-2.512,-2.5047,-2.5047,-2.4806,-2.4697,-2.4673,-2.4613,-2.4613,-2.454,-2.4253,-2.4013,-2.388,-2.3784,-2.3852,-2.37,-2.3519,-2.3369,-2.3104,-2.2915,-2.2597,-2.2404,-2.2319,-2.2406,-2.2358,-2.2346,-2.2346,-2.2346,-2.2346,-2.2346,-2.2346,-2.2346,-2.2346,-2.2346,-2.2346,-2.2346,-2.2346,-2.2346,-2.2346,-2.2271,-2.2196,-2.1885,-2.1146,-2.1071,-2.0307,-1.9401,-1.8719,-1.8187,-1.734,-1.6501,-1.5659,-1.4968,-1.4438,-1.3821,-1.312,-1.3042,-1.2811,-1.2579,-1.2501,-1.2269,-1.2037,-1.1727,-1.1262,-1.0563,-1.0175,-1.0019,-1.0019,-1.0019,-1.0019,-1.0019,-1.0019,-1.0019,-1.0019,-1.0019,-1.0019,-1.0019,-1.0019,-1.0019,-1.0019,-1.0019,-1.0019,-1.0019,-1.0019,-1.0019,-1.0019,-1.0019,-1.0019,-1.0019,-1.0019,-1.0019,-1.0019,-0.9942,-0.948,-0.9012,-0.8622,-0.7916,-0.6655,-0.5561,-0.4774,-0.3665,-0.233,-0.1555,-0.1251,0.0,0.0,0.0,0.0,0.0,-2.5348,-2.5348,-2.5348,-2.5348,-2.5348,-2.5348,-2.5348,-2.5433,-2.5385,-2.5288,-2.5325,-2.5011,-2.4975,-2.4927,-2.4721,-2.4649,-2.4613,-2.4326,-2.4145,-2.4106,-2.3961,-2.384,-2.3736,-2.3688,-2.3611,-2.3381,-2.3128,-2.2874,-2.2721,-2.2661,-2.2576,-2.2406,-2.2382,-2.2382,-2.2406,-2.2346,-2.2382,-2.2382,-2.2358,-2.2346,-2.2346,-2.2346,-2.2346,-2.2346,-2.2346,-2.2346,-2.2184,-2.196,-2.1585,-2.1146,-2.0759,-1.993,-1.8946,-1.8339,-1.7645,-1.6883,-1.5888,-1.5122,-1.4515,-1.3821,-1.3358,-1.3042,-1.2811,-1.2656,-1.2501,-1.2501,-1.2269,-1.1805,-1.1262,-1.0641,-1.0175,-1.0019,-1.0019,-1.0019,-1.0019,-1.0019,-1.0019,-1.0019,-1.0019,-1.0019,-1.0019,-1.0019,-1.0019,-1.0019,-1.0019,-1.0019,-1.0019,-1.0019,-1.0019,-1.0019,-1.0019,-1.0019,-1.0019,-1.0019,-1.0019,-1.0019,-1.0019,-1.0019,-0.9942,-0.9558,-0.9168,-0.8856,-0.8072,-0.6718,-0.5599,-0.4802,-0.3625,-0.2304,-0.1615,-0.1235,0.0,0.0,0.0,0.0,0.0,-2.5313,-2.5348,-2.5348,-2.5348,-2.5348,-2.5348,-2.5348,-2.5348,-2.5348,-2.5348,-2.5409,-2.5313,-2.5252,-2.5204,-2.512,-2.4987,-2.471,-2.4564,-2.4371,-2.4214,-2.3973,-2.384,-2.384,-2.384,-2.37,-2.3568,-2.3502,-2.3225,-2.2975,-2.2927,-2.2842,-2.2794,-2.2745,-2.2745,-2.2697,-2.2612,-2.2552,-2.2527,-2.243,-2.2346,-2.2346,-2.2346,-2.2346,-2.2346,-2.2346,-2.2346,-2.2259,-2.1885,-2.151,-2.106,-2.0522,-1.9617,-1.8709,-1.7797,-1.7111,-1.6424,-1.5505,-1.4661,-1.413,-1.3436,-1.3049,-1.2811,-1.2579,-1.2501,-1.2501,-1.2424,-1.2192,-1.1572,-1.0796,-1.0253,-1.0019,-1.0019,-1.0019,-1.0019,-1.0019,-1.0019,-1.0019,-1.0019,-1.0019,-1.0019,-1.0019,-1.0019,-1.0019,-1.0019,-1.0019,-1.0019,-1.0019,-1.0019,-1.0019,-1.0019,-1.0019,-1.0019,-1.0019,-1.0019,-1.0019,-1.0019,-1.0019,-1.0019,-0.9942,-0.9558,-0.9158,-0.8847,-0.7877,-0.6523,-0.564,-0.4981,-0.3744,-0.2511,-0.1828,-0.1145,0.0,0.0,0.0,0.0,0.0,-2.512,-2.5348,-2.5348,-2.5348,-2.5348,-2.5348,-2.5348,-2.5348,-2.5348,-2.5348,-2.5348,-2.5348,-2.5421,-2.5348,-2.5312,-2.5192,-2.4951,-2.4745,-2.448,-2.4226,-2.3973,-2.384,-2.384,-2.384,-2.3748,-2.3724,-2.378,-2.3599,-2.3212,-2.3128,-2.3169,-2.3072,-2.3097,-2.3121,-2.3036,-2.2879,-2.2818,-2.2745,-2.2624,-2.2491,-2.2418,-2.237,-2.2346,-2.2346,-2.2346,-2.2259,-2.2109,-2.1747,-2.136,-2.0834,-2.0145,-1.9315,-1.8491,-1.7416,-1.6577,-1.5965,-1.5198,-1.443,-1.3814,-1.3197,-1.2811,-1.2579,-1.2501,-1.2501,-1.2424,-1.2269,-1.1882,-1.1184,-1.0486,-1.0019,-1.0019,-1.0019,-1.0019,-1.0019,-1.0019,-1.0019,-1.0019,-1.0019,-1.0019,-1.0019,-1.0019,-1.0019,-1.0019,-1.0019,-1.0019,-1.0019,-1.0019,-1.0019,-1.0019,-1.0019,-1.0019,-1.0019,-1.0019,-1.0019,-1.0019,-1.0019,-1.0019,-1.0019,-0.9942,-0.9713,-0.9231,-0.875,-0.7611,-0.6546,-0.6028,-0.5301,-0.3929,-0.271,-0.1878,-0.113,-0.0457,0.0,0.0,0.0,0.0,-2.512,-2.5348,-2.5348,-2.5348,-2.5348,-2.5348,-2.5348,-2.5348,-2.5348,-2.5348,-2.5348,-2.5348,-2.5348,-2.5348,-2.5348,-2.5204,-2.4951,-2.4758,-2.448,-2.4226,-2.3973,-2.384,-2.384,-2.384,-2.384,-2.384,-2.384,-2.3604,-2.3466,-2.3406,-2.3285,-2.323,-2.3206,-2.3145,-2.323,-2.3133,-2.3084,-2.3072,-2.3024,-2.2891,-2.2661,-2.2392,-2.2307,-2.2271,-2.2184,-2.2109,-2.1735,-2.136,-2.0985,-2.0522,-1.9768,-1.8936,-1.8101,-1.7264,-1.6271,-1.5275,-1.443,-1.3821,-1.3583,-1.3042,-1.2656,-1.2501,-1.2501,-1.2501,-1.2347,-1.1882,-1.134,-1.0719,-1.0253,-1.0019,-1.0019,-1.0019,-1.0019,-1.0019,-1.0019,-1.0019,-1.0019,-1.0019,-1.0019,-1.0019,-1.0019,-1.0019,-1.0019,-1.0019,-1.0019,-1.0019,-1.0019,-1.0019,-1.0019,-1.0019,-1.0019,-1.0019,-1.0019,-1.0019,-1.0019,-1.0019,-1.0019,-1.0019,-0.9942,-0.9708,-0.9226,-0.8566,-0.7689,-0.6785,-0.6265,-0.5316,-0.3952,-0.2747,-0.1849,-0.1117,-0.0528,0.0,0.0,0.0,0.0,-2.4963,-2.5144,-2.5373,-2.5348,-2.5348,-2.5348,-2.5348,-2.5348,-2.5348,-2.5348,-2.5348,-2.5348,-2.5348,-2.5348,-2.5348,-2.5204,-2.5023,-2.4733,-2.448,-2.4226,-2.3973,-2.3852,-2.384,-2.384,-2.384,-2.384,-2.384,-2.3736,-2.3683,-2.358,-2.3587,-2.3502,-2.3478,-2.3526,-2.343,-2.3333,-2.3297,-2.3237,-2.3116,-2.2988,-2.2693,-2.2385,-2.2103,-2.1972,-2.1747,-2.151,-2.1285,-2.0985,-2.0522,-2.007,-1.9315,-1.8491,-1.7731,-1.6892,-1.5965,-1.5122,-1.4199,-1.366,-1.3351,-1.2811,-1.2579,-1.2501,-1.2501,-1.2424,-1.2114,-1.165,-1.1107,-1.0641,-1.0253,-1.0019,-1.0019,-1.0019,-1.0019,-1.0019,-1.0019,-1.0019,-1.0019,-1.0019,-1.0019,-1.0019,-1.0019,-1.0019,-1.0019,-1.0019,-1.0019,-1.0019,-1.0019,-1.0019,-1.0019,-1.0019,-1.0019,-1.0019,-1.0019,-1.0019,-1.0019,-1.0019,-1.0019,-1.0019,-1.0019,-0.9703,-0.9066,-0.8384,-0.7583,-0.6815,-0.6155,-0.5134,-0.3762,-0.2867,-0.1983,-0.1259,-0.0523,0.0,0.0,0.0,0.0,-2.4697,-2.4963,-2.5301,-2.5348,-2.5348,-2.5348,-2.5348,-2.5348,-2.5348,-2.5348,-2.5348,-2.5348,-2.5348,-2.5324,-2.5264,-2.5168,-2.4927,-2.4649,-2.4383,-2.4142,-2.3961,-2.3864,-2.384,-2.384,-2.384,-2.384,-2.384,-2.3828,-2.384,-2.3748,-2.3736,-2.384,-2.3756,-2.3724,-2.37,-2.358,-2.3471,-2.3447,-2.314,-2.2925,-2.2668,-2.2183,-2.1866,-2.1575,-2.1331,-2.0985,-2.0759,-2.0522,-2.007,-1.9466,-1.8709,-1.7959,-1.7273,-1.6357,-1.5429,-1.4661,-1.3814,-1.3351,-1.3042,-1.2656,-1.2579,-1.2501,-1.2424,-1.2269,-1.1805,-1.1417,-1.1029,-1.0486,-1.0175,-1.0019,-1.0019,-1.0019,-1.0019,-1.0019,-1.0019,-1.0019,-1.0025,-1.0041,-1.0036,-1.0019,-1.0019,-1.0019,-1.0019,-1.0019,-1.0019,-1.0019,-1.0019,-1.0019,-1.0019,-1.0019,-1.0019,-1.0019,-1.0019,-1.0019,-1.0019,-1.0019,-1.0019,-1.0019,-1.0019,-0.9703,-0.9071,-0.8433,-0.7777,-0.7018,-0.6131,-0.5028,-0.3809,-0.2997,-0.2192,-0.1405,-0.0674,-0.0303,0.0,0.0,0.0317,-2.442,-2.4697,-2.5216,-2.5348,-2.5348,-2.5348,-2.5348,-2.5348,-2.5348,-2.5348,-2.5348,-2.5348,-2.5433,-2.5288,-2.5095,-2.4867,-2.4649,-2.4383,-2.4154,-2.3973,-2.3772,-2.376,-2.384,-2.384,-2.384,-2.384,-2.384,-2.384,-2.384,-2.384,-2.384,-2.384,-2.384,-2.384,-2.3748,-2.37,-2.3676,-2.356,-2.3143,-2.2855,-2.2498,-2.2044,-2.1448,-2.1357,-2.1121,-2.0759,-1.9919,-1.9768,-1.939,-1.8719,-1.7959,-1.7273,-1.6577,-1.5812,-1.4891,-1.4045,-1.3542,-1.3085,-1.2775,-1.2592,-1.2501,-1.2501,-1.2424,-1.2192,-1.1495,-1.1346,-1.088,-1.028,-1.0152,-1.0068,-1.0052,-1.0025,-1.0079,-1.0095,-1.0117,-1.0112,-1.0112,-1.009,-1.0079,-1.0036,-1.003,-1.0047,-1.0019,-1.0019,-1.0019,-1.0019,-1.0019,-1.0019,-1.0019,-1.0019,-1.0019,-1.0019,-1.0019,-1.0019,-1.0019,-1.0019,-1.0019,-1.0019,-1.0019,-0.9553,-0.8929,-0.8419,-0.7969,-0.6848,-0.589,-0.4861,-0.4017,-0.3295,-0.25,-0.1559,-0.0825,-0.0379,0.0,0.0235,0.0557,-2.4299,-2.4444,-2.4963,-2.5289,-2.5348,-2.5348,-2.5348,-2.5348,-2.5348,-2.5348,-2.5348,-2.5348,-2.5349,-2.5204,-2.5096,-2.471,-2.442,-2.4299,-2.3989,-2.3844,-2.376,-2.384,-2.384,-2.384,-2.384,-2.384,-2.384,-2.384,-2.384,-2.384,-2.384,-2.384,-2.384,-2.384,-2.384,-2.376,-2.368,-2.3428,-2.3185,-2.292,-2.2326,-2.1873,-2.1279,-2.0649,-2.0298,-1.9821,-1.9119,-1.8785,-1.8405,-1.7883,-1.7273,-1.6586,-1.5906,-1.5215,-1.4453,-1.3549,-1.3219,-1.3028,-1.2695,-1.2569,-1.2501,-1.2501,-1.2424,-1.2205,-1.146,-1.1335,-1.0908,-1.0465,-1.0193,-1.021,-1.0237,-1.0248,-1.0264,-1.0248,-1.0231,-1.0221,-1.021,-1.0193,-1.0172,-1.015,-1.0123,-1.0112,-1.0068,-1.0019,-1.0019,-1.0019,-1.0019,-1.0019,-1.0019,-1.0019,-1.0019,-1.0019,-1.0019,-1.0019,-1.0019,-1.0019,-1.0019,-1.0019,-1.0019,-0.9475,-0.8993,-0.8674,-0.8084,-0.6896,-0.5803,-0.5002,-0.4248,-0.3604,-0.2664,-0.1565,-0.0904,-0.0457,-0.0077,0.0393,0.0798,-2.4166,-2.4275,-2.4649,-2.4999,-2.5313,-2.5409,-2.5348,-2.5348,-2.5348,-2.5348,-2.5348,-2.5361,-2.5144,-2.4963,-2.4735,-2.4554,-2.4287,-2.4142,-2.3928,-2.382,-2.384,-2.384,-2.384,-2.384,-2.384,-2.384,-2.384,-2.384,-2.384,-2.384,-2.384,-2.384,-2.384,-2.384,-2.3772,-2.3692,-2.344,-2.3291,-2.2866,-2.2659,-2.2077,-2.1477,-2.1039,-2.0259,-1.9744,-1.905,-1.8459,-1.8094,-1.7655,-1.7044,-1.651,-1.5846,-1.5256,-1.4663,-1.4066,-1.351,-1.319,-1.3037,-1.2845,-1.2718,-1.2637,-1.2678,-1.2671,-1.2194,-1.1651,-1.1476,-1.1128,-1.0423,-1.0335,-1.0389,-1.0394,-1.0356,-1.0346,-1.0324,-1.0329,-1.0318,-1.0324,-1.0313,-1.0291,-1.0269,-1.0242,-1.0215,-1.0117,-1.0068,-1.0041,-1.003,-1.0019,-1.0019,-1.0019,-1.0019,-1.0019,-1.0019,-1.0019,-1.0019,-1.0019,-1.0019,-1.0019,-1.0019,-0.9942,-0.9553,-0.9109,-0.8726,-0.8097,-0.6852,-0.5894,-0.5152,-0.4412,-0.3697,-0.2602,-0.1495,-0.0834,-0.0309,0.0,0.0474,0.0879,-2.4009,-2.4226,-2.4263,-2.4494,-2.5035,-2.5313,-2.5397,-2.5349,-2.5276,-2.5361,-2.5325,-2.5144,-2.5023,-2.4807,-2.4446,-2.4229,-2.4097,-2.3985,-2.3784,-2.3772,-2.384,-2.384,-2.384,-2.384,-2.384,-2.384,-2.384,-2.384,-2.384,-2.384,-2.384,-2.376,-2.376,-2.368,-2.3772,-2.344,-2.3199,-2.305,-2.2314,-2.197,-2.1592,-2.0879,-2.0432,-1.9858,-1.9318,-1.8601,-1.7796,-1.7451,-1.6943,-1.6404,-1.5692,-1.52,-1.4899,-1.4054,-1.3562,-1.3518,-1.3162,-1.3036,-1.3043,-1.3036,-1.2935,-1.2888,-1.2847,-1.2469,-1.1869,-1.1579,-1.1344,-1.0545,-1.0422,-1.0422,-1.0405,-1.0405,-1.0427,-1.0438,-1.0449,-1.0454,-1.0465,-1.0465,-1.0449,-1.04,-1.0373,-1.0335,-1.0215,-1.0123,-1.0079,-1.0052,-1.0025,-1.0019,-1.0025,-1.0019,-1.0019,-1.0019,-1.0019,-1.0019,-1.0019,-1.0019,-1.0019,-1.0019,-0.9864,-0.9553,-0.9211,-0.8804,-0.7951,-0.6898,-0.6084,-0.5425,-0.4604,-0.3718,-0.248,-0.1293,-0.054,0.0,0.0236,0.0555,0.1041,-2.39,-2.3985,-2.4166,-2.4335,-2.4458,-2.4794,-2.4902,-2.489,-2.4902,-2.4902,-2.4878,-2.4782,-2.4649,-2.448,-2.4347,-2.4061,-2.3892,-2.3856,-2.384,-2.384,-2.384,-2.384,-2.384,-2.384,-2.384,-2.384,-2.384,-2.384,-2.384,-2.384,-2.384,-2.376,-2.36,-2.3451,-2.3371,-2.3199,-2.2958,-2.2406,-2.1761,-2.1346,-2.1022,-2.0362,-1.9775,-1.9174,-1.8748,-1.8059,-1.7159,-1.6807,-1.6303,-1.5755,-1.5041,-1.4617,-1.437,-1.3511,-1.338,-1.3304,-1.3111,-1.3234,-1.3214,-1.3234,-1.3146,-1.3051,-1.299,-1.2668,-1.1838,-1.1757,-1.1294,-1.0759,-1.0558,-1.0579,-1.0623,-1.0623,-1.0634,-1.0634,-1.0645,-1.0639,-1.0645,-1.0639,-1.0617,-1.0536,-1.0492,-1.0433,-1.034,-1.0253,-1.0199,-1.0155,-1.0139,-1.0063,-1.0047,-1.0025,-1.0019,-1.0019,-1.0019,-1.0019,-1.0019,-1.0019,-1.0019,-1.0019,-0.9942,-0.9786,-0.9351,-0.8842,-0.8171,-0.7337,-0.6517,-0.5716,-0.4517,-0.3327,-0.222,-0.1163,-0.0469,0.0079,0.0393,0.0793,0.1284,-2.384,-2.3784,-2.4033,-2.4106,-2.4073,-2.448,-2.4625,-2.4625,-2.4625,-2.4625,-2.4613,-2.454,-2.442,-2.4251,-2.413,-2.3965,-2.3772,-2.384,-2.384,-2.384,-2.384,-2.384,-2.384,-2.384,-2.384,-2.384,-2.384,-2.384,-2.384,-2.384,-2.384,-2.368,-2.3359,-2.3211,-2.305,-2.2717,-2.2406,-2.1761,-2.1276,-2.0709,-2.0211,-1.9694,-1.9085,-1.8484,-1.7969,-1.7396,-1.6649,-1.6031,-1.5671,-1.5122,-1.4643,-1.4186,-1.3807,-1.3507,-1.3374,-1.3207,-1.3193,-1.3302,-1.3356,-1.3376,-1.3268,-1.3166,-1.3119,-1.2706,-1.2062,-1.1898,-1.1429,-1.0975,-1.0699,-1.0715,-1.0726,-1.0737,-1.0732,-1.0732,-1.0732,-1.0726,-1.0721,-1.071,-1.0699,-1.0628,-1.0596,-1.0536,-1.0465,-1.04,-1.0335,-1.0291,-1.0253,-1.0172,-1.009,-1.0057,-1.0036,-1.0036,-1.0025,-1.0019,-1.0019,-1.0019,-1.0019,-1.0019,-0.9942,-0.9864,-0.9464,-0.8963,-0.8365,-0.7706,-0.6735,-0.5638,-0.4126,-0.2922,-0.1861,-0.1092,-0.0549,0.0,0.0471,0.0953,0.1447,-2.3816,-2.3736,-2.3748,-2.3748,-2.3832,-2.4335,-2.4564,-2.4589,-2.4576,-2.4564,-2.4564,-2.4299,-2.4202,-2.4166,-2.388,-2.3784,-2.3772,-2.376,-2.384,-2.384,-2.384,-2.384,-2.384,-2.384,-2.384,-2.384,-2.384,-2.384,-2.376,-2.384,-2.384,-2.3624,-2.3338,-2.2959,-2.2636,-2.2196,-2.1757,-2.1238,-2.0709,-2.014,-1.9489,-1.899,-1.84,-1.7756,-1.7188,-1.6632,-1.599,-1.5522,-1.5048,-1.4456,-1.388,-1.3798,-1.3619,-1.3417,-1.3357,-1.3342,-1.3376,-1.339,-1.3397,-1.3397,-1.3397,-1.3322,-1.3349,-1.2886,-1.2376,-1.202,-1.1523,-1.1031,-1.0726,-1.0732,-1.0737,-1.0737,-1.0737,-1.0737,-1.0737,-1.0732,-1.0732,-1.0732,-1.0732,-1.071,-1.0704,-1.0655,-1.0579,-1.0514,-1.0471,-1.0454,-1.0411,-1.0346,-1.0248,-1.0101,-1.0085,-1.0063,-1.0047,-1.0025,-1.0019,-1.0019,-1.0019,-1.0019,-1.0019,-0.9864,-0.947,-0.9075,-0.8571,-0.7911,-0.6803,-0.5556,-0.4097,-0.2796,-0.1565,-0.0943,-0.0551,0.0158,0.0712,0.1037,0.1452,-2.3273,-2.3297,-2.349,-2.3483,-2.3531,-2.3844,-2.3989,-2.3989,-2.4069,-2.3989,-2.3989,-2.3916,-2.3985,-2.3868,-2.3876,-2.3852,-2.384,-2.384,-2.384,-2.384,-2.384,-2.384,-2.384,-2.384,-2.384,-2.384,-2.384,-2.376,-2.3772,-2.3772,-2.3624,-2.3371,-2.3156,-2.2807,-2.2315,-2.1757,-2.1278,-2.0742,-2.012,-1.9447,-1.8865,-1.8365,-1.7618,-1.6828,-1.6475,-1.5771,-1.5248,-1.4988,-1.4542,-1.4155,-1.3999,-1.3891,-1.348,-1.3418,-1.3376,-1.3383,-1.3397,-1.3397,-1.3397,-1.3403,-1.3417,-1.3437,-1.3424,-1.2906,-1.2401,-1.1998,-1.1665,-1.107,-1.0737,-1.0737,-1.0737,-1.0737,-1.0737,-1.0737,-1.0737,-1.0737,-1.0737,-1.0737,-1.0737,-1.0737,-1.0737,-1.0721,-1.065,-1.0645,-1.0612,-1.0601,-1.0568,-1.0503,-1.04,-1.0253,-1.0166,-1.0144,-1.0085,-1.0063,-1.0036,-1.003,-1.0025,-1.0019,-1.0019,-0.9942,-0.9708,-0.9314,-0.8915,-0.7959,-0.6615,-0.5375,-0.4061,-0.2745,-0.1414,-0.1025,-0.0632,0.0159,0.0877,0.1127,0.1542,-2.3121,-2.3145,-2.3212,-2.3285,-2.3321,-2.3454,-2.3526,-2.3562,-2.3744,-2.384,-2.384,-2.3852,-2.384,-2.3772,-2.3852,-2.384,-2.384,-2.384,-2.384,-2.384,-2.384,-2.384,-2.384,-2.384,-2.384,-2.384,-2.384,-2.384,-2.3796,-2.3892,-2.3767,-2.3399,-2.3201,-2.2718,-2.2113,-2.1431,-2.064,-2.0093,-1.9498,-1.8945,-1.8321,-1.7707,-1.6691,-1.5982,-1.5644,-1.5066,-1.457,-1.4487,-1.4239,-1.3901,-1.3818,-1.3735,-1.3397,-1.3397,-1.3451,-1.3471,-1.3505,-1.3546,-1.3587,-1.3593,-1.358,-1.3573,-1.3559,-1.3082,-1.2604,-1.216,-1.1527,-1.0904,-1.082,-1.0737,-1.0737,-1.0737,-1.0737,-1.0737,-1.0737,-1.0737,-1.0737,-1.0737,-1.0737,-1.0737,-1.0737,-1.0737,-1.0726,-1.0737,-1.0732,-1.0693,-1.0672,-1.0639,-1.0536,-1.0394,-1.0313,-1.0275,-1.0182,-1.0112,-1.0079,-1.0052,-1.003,-1.0025,-1.0019,-0.9942,-0.9864,-0.9319,-0.8613,-0.7439,-0.619,-0.5016,-0.392,-0.2511,-0.1258,-0.1028,-0.0557,0.0241,0.0889,0.1223,0.1725,-2.3048,-2.3036,-2.3084,-2.3109,-2.3121,-2.3157,-2.3157,-2.3169,-2.3538,-2.3712,-2.378,-2.3724,-2.3724,-2.3748,-2.384,-2.384,-2.384,-2.384,-2.384,-2.384,-2.384,-2.384,-2.384,-2.384,-2.384,-2.384,-2.3772,-2.3796,-2.3961,-2.3989,-2.3946,-2.3622,-2.3455,-2.2905,-2.1924,-2.1252,-2.0492,-1.9711,-1.9222,-1.8575,-1.7631,-1.681,-1.6001,-1.5391,-1.4954,-1.4539,-1.4206,-1.4033,-1.3853,-1.3604,-1.3444,-1.3464,-1.3471,-1.3485,-1.3553,-1.3593,-1.3641,-1.3688,-1.3743,-1.3763,-1.3783,-1.3797,-1.3752,-1.3278,-1.2677,-1.2349,-1.1704,-1.1104,-1.0862,-1.0867,-1.0867,-1.0867,-1.0867,-1.0867,-1.0867,-1.0835,-1.0802,-1.078,-1.0737,-1.0737,-1.0737,-1.0737,-1.0737,-1.0737,-1.0737,-1.0732,-1.0726,-1.0715,-1.0655,-1.0525,-1.046,-1.04,-1.0297,-1.0204,-1.015,-1.0112,-1.0052,-1.0036,-1.0025,-1.0019,-0.9942,-0.9163,-0.8232,-0.7056,-0.5883,-0.4944,-0.3846,-0.2362,-0.1345,-0.1115,-0.0562,0.0324,0.09,0.1238,0.1825,-2.2527,-2.2464,-2.2733,-2.2927,-2.3109,-2.3121,-2.3109,-2.3133,-2.3242,-2.3345,-2.3435,-2.3483,-2.358,-2.3724,-2.376,-2.384,-2.384,-2.384,-2.384,-2.384,-2.384,-2.384,-2.384,-2.384,-2.384,-2.384,-2.3784,-2.388,-2.4025,-2.4064,-2.3962,-2.3467,-2.3374,-2.2921,-2.1747,-2.1159,-2.0554,-1.9503,-1.8804,-1.7983,-1.6916,-1.6519,-1.5963,-1.5163,-1.4478,-1.4295,-1.4041,-1.3885,-1.3814,-1.3736,-1.3736,-1.3736,-1.3743,-1.3729,-1.3664,-1.3698,-1.3797,-1.3831,-1.3871,-1.3899,-1.3813,-1.3871,-1.3693,-1.3251,-1.2784,-1.2563,-1.2112,-1.1436,-1.0998,-1.0998,-1.0998,-1.0992,-1.0992,-1.0992,-1.0992,-1.0938,-1.0884,-1.0824,-1.0759,-1.0753,-1.0753,-1.0742,-1.0748,-1.0737,-1.0737,-1.0737,-1.0737,-1.0732,-1.0726,-1.0645,-1.0585,-1.052,-1.0416,-1.0324,-1.0259,-1.0172,-1.0112,-1.0052,-1.0036,-1.0025,-0.9942,-0.9241,-0.831,-0.6822,-0.5648,-0.4797,-0.3711,-0.2381,-0.1515,-0.1205,-0.0405,0.0492,0.1073,0.1497,0.2005,-2.2346,-2.2358,-2.2491,-2.2636,-2.2757,-2.277,-2.277,-2.277,-2.277,-2.285,-2.3128,-2.3333,-2.3459,-2.3628,-2.37,-2.376,-2.376,-2.384,-2.384,-2.384,-2.384,-2.384,-2.384,-2.384,-2.384,-2.3852,-2.3904,-2.4037,-2.4193,-2.421,-2.4068,-2.3588,-2.354,-2.2909,-2.1635,-2.1068,-2.0434,-1.9283,-1.8427,-1.7331,-1.6254,-1.5965,-1.5615,-1.4736,-1.4279,-1.4108,-1.393,-1.3752,-1.3752,-1.3838,-1.3817,-1.3817,-1.3817,-1.3725,-1.3865,-1.3919,-1.3953,-1.3973,-1.4014,-1.4027,-1.4021,-1.4014,-1.4034,-1.3639,-1.321,-1.2898,-1.2101,-1.1485,-1.116,-1.1058,-1.1058,-1.1058,-1.1058,-1.1058,-1.1058,-1.1031,-1.1003,-1.0976,-1.0944,-1.0944,-1.0905,-1.084,-1.0819,-1.0753,-1.0753,-1.0737,-1.0737,-1.0737,-1.0737,-1.0737,-1.0688,-1.0634,-1.0525,-1.0465,-1.0416,-1.0297,-1.0172,-1.0112,-1.0057,-0.9719,-0.948,-0.909,-0.831,-0.6837,-0.5597,-0.4828,-0.3658,-0.2322,-0.1617,-0.1305,-0.0329,0.0745,0.1249,0.1674,0.218,-2.2346,-2.2346,-2.2346,-2.2346,-2.2346,-2.2346,-2.2358,-2.2358,-2.2358,-2.2479,-2.2669,-2.3116,-2.3267,-2.3447,-2.3592,-2.3688,-2.376,-2.376,-2.384,-2.384,-2.384,-2.384,-2.384,-2.384,-2.3876,-2.3973,-2.4025,-2.4193,-2.4362,-2.4318,-2.4135,-2.3755,-2.3306,-2.2686,-2.1562,-2.0781,-1.9998,-1.8777,-1.7814,-1.6753,-1.6068,-1.5483,-1.5097,-1.4557,-1.4071,-1.3899,-1.3899,-1.3905,-1.3905,-1.3919,-1.3946,-1.396,-1.396,-1.3973,-1.4014,-1.4075,-1.4102,-1.4156,-1.4224,-1.4238,-1.4251,-1.4272,-1.4299,-1.4115,-1.3571,-1.2984,-1.2266,-1.1772,-1.1356,-1.1156,-1.1161,-1.1161,-1.1161,-1.115,-1.115,-1.1134,-1.1123,-1.1107,-1.1096,-1.109,-1.1031,-1.0949,-1.09,-1.0829,-1.0797,-1.0775,-1.0759,-1.0748,-1.0742,-1.0737,-1.0715,-1.0688,-1.0628,-1.0579,-1.0536,-1.0433,-1.0286,-1.0172,-1.0039,-0.9521,-0.91,-0.8895,-0.8203,-0.6788,-0.5625,-0.4873,-0.3699,-0.2428,-0.1881,-0.132,-0.0083,0.1001,0.1338,0.1763,0.2184,-2.2346,-2.2346,-2.2346,-2.2346,-2.2346,-2.2346,-2.2346,-2.2346,-2.2346,-2.2382,-2.2491,-2.2669,-2.3007,-2.3375,-2.3411,-2.3544,-2.376,-2.384,-2.384,-2.384,-2.384,-2.384,-2.384,-2.3852,-2.3973,-2.4106,-2.4181,-2.448,-2.4519,-2.4448,-2.4322,-2.3972,-2.347,-2.2686,-2.1475,-2.0694,-1.9824,-1.8602,-1.7463,-1.6489,-1.5793,-1.5315,-1.4868,-1.4474,-1.4211,-1.4211,-1.4217,-1.4211,-1.4211,-1.4211,-1.419,-1.4177,-1.4163,-1.415,-1.4183,-1.419,-1.4224,-1.4245,-1.4292,-1.4299,-1.4299,-1.4299,-1.4299,-1.4122,-1.3584,-1.3135,-1.2537,-1.2014,-1.1704,-1.1439,-1.1351,-1.1351,-1.1351,-1.1324,-1.1308,-1.127,-1.1243,-1.1188,-1.1145,-1.1134,-1.1107,-1.1069,-1.1058,-1.0998,-1.0954,-1.0927,-1.0884,-1.0867,-1.0808,-1.0775,-1.0748,-1.0732,-1.0715,-1.0639,-1.0574,-1.0623,-1.0422,-1.0291,-1.0109,-0.9608,-0.9278,-0.8962,-0.8102,-0.6687,-0.5697,-0.4857,-0.3665,-0.2455,-0.1811,-0.1079,0.0251,0.126,0.143,0.1851,0.2358]}]]